[[{"header":{"parameterUnit":"m.s-1","parameterCategory":1,"la1":30.6,"la2":28.766,"lo1":-90.7593,"lo2":-88.6598,"dy":0.0162,"dx":0.0183,"nx":116,"ny":114,"refTime":"2024-05-11T12:00:00:Z","depth":0,"parameterNumber":2,"parameterNumberName":"U-component_of_WINDS"},"data":[0.0,0.0,0.0,0.0,0.0,0.0,0.0,0.0,0.0,0.0,0.0,0.0,0.0,0.0,0.0,0.0,0.0,0.0,0.0,0.0,0.0,0.0,0.0,0.0,0.0,0.0,0.0,0.0,0.0,0.0,0.0,0.0,0.0,0.0,0.0,0.0,0.0,0.0,0.0,0.0,0.0,0.0,0.0,0.0,0.0,0.0,0.0,0.0,0.0,0.0,0.0,0.0,0.0,0.0,0.0,0.0,0.0,0.0,0.0,0.0,0.0,0.0,0.0,0.0,0.0,0.0,0.0,0.0,0.0,0.0,0.0,0.0,0.0,0.0,0.0,0.0,0.0,0.0,0.0,0.0,0.0,0.0,0.0,0.0,0.0,0.0,0.0,0.0,0.0,0.0,0.0,0.0,0.0,0.0,0.0,0.0,0.0,0.0,0.0,0.0,0.0,0.0,0.0,0.0,0.0,0.0,0.0,0.0,0.0,0.0,0.0,0.0,0.0,0.0,0.0,0.0,0.0,0.0,0.0,0.0,0.0,0.0,0.0,0.0,0.0,0.0,0.0,0.0,0.0,0.0,0.0,0.0,0.0,0.0,0.0,0.0,0.0,0.0,0.0,0.0,0.0,0.0,0.0,0.0,0.0,0.0,0.0,0.0,0.0,0.0,0.0,0.0,0.0,0.0,0.0,0.0,0.0,0.0,0.0,0.0,0.0,0.0,0.0,0.0,0.0,0.0,0.0,0.0,0.0,0.0,0.0,0.0,0.0,0.0,0.0,0.0,0.0,0.0,0.0,0.0,0.0,0.0,0.0,0.0,0.0,0.0,0.0,0.0,0.0,0.0,0.0,0.0,0.0,0.0,0.0,0.0,0.0,0.0,0.0,0.0,0.0,0.0,0.0,0.0,0.0,0.0,0.0,0.0,0.0,0.0,0.0,0.0,0.0,0.0,0.0,0.0,0.0,0.0,0.0,0.0,0.0,0.0,0.0,0.0,0.0,0.0,0.0,0.0,0.0,0.0,0.0,0.0,0.0,0.0,0.0,0.0,0.0,0.0,0.0,0.0,0.0,0.0,0.0,0.0,0.0,0.0,0.0,0.0,0.0,0.0,0.0,0.0,0.0,0.0,0.0,0.0,0.0,0.0,0.0,0.0,0.0,0.0,0.0,0.0,0.0,0.0,0.0,0.0,0.0,0.0,0.0,0.0,0.0,0.0,0.0,0.0,0.0,0.0,0.0,0.0,0.0,0.0,0.0,0.0,0.0,0.0,0.0,0.0,0.0,0.0,0.0,0.0,0.0,0.0,0.0,0.0,0.0,0.0,0.0,0.0,0.0,0.0,0.0,0.0,0.0,0.0,0.0,0.0,0.0,0.0,0.0,0.0,0.0,0.0,0.0,0.0,0.0,0.0,0.0,0.0,0.0,0.0,0.0,0.0,0.0,0.0,0.0,0.0,0.0,0.0,0.0,0.0,0.0,0.0,0.0,0.0,0.0,0.0,0.0,0.0,0.0,0.0,0.0,0.0,0.0,0.0,0.0,0.0,0.0,0.0,0.0,0.0,0.0,0.0,0.0,0.0,0.0,0.0,0.0,0.0,0.0,0.0,0.0,0.0,0.0,0.0,0.0,0.0,0.0,0.0,0.0,0.0,0.0,0.0,0.0,0.0,0.0,0.0,0.0,0.0,0.0,0.0,0.0,0.0,0.0,0.0,0.0,0.0,0.0,0.0,0.0,0.0,0.0,0.0,0.0,0.0,0.0,0.0,0.0,0.0,0.0,0.0,0.0,0.0,0.0,0.0,0.0,0.0,0.0,0.0,0.0,0.0,0.0,0.0,0.0,0.0,0.0,0.0,0.0,0.0,0.0,0.0,0.0,0.0,0.0,0.0,0.0,0.0,0.0,0.0,0.0,0.0,0.0,0.0,0.0,0.0,0.0,0.0,0.0,0.0,0.0,0.0,0.0,0.0,0.0,0.0,0.0,0.0,0.0,0.0,0.0,0.0,0.0,0.0,0.0,0.0,0.0,0.0,0.0,0.0,0.0,0.0,0.0,0.0,0.0,0.0,0.0,0.0,0.0,0.0,0.0,0.0,0.0,0.0,0.0,0.0,0.0,0.0,0.0,0.0,0.0,0.0,0.0,0.0,0.0,0.0,0.0,0.0,0.0,0.0,0.0,0.0,0.0,0.0,0.0,0.0,0.0,0.0,0.0,0.0,0.0,0.0,0.0,0.0,0.0,0.0,0.0,0.0,0.0,0.0,0.0,0.0,0.0,0.0,0.0,0.0,0.0,0.0,0.0,0.0,0.0,0.0,0.0,0.0,0.0,0.0,0.0,0.0,0.0,0.0,0.0,0.0,0.0,0.0,0.0,0.0,0.0,0.0,0.0,0.0,0.0,0.0,0.0,0.0,0.0,0.0,0.0,0.0,0.0,0.0,0.0,0.0,0.0,0.0,0.0,0.0,0.0,0.0,0.0,0.0,0.0,0.0,0.0,0.0,0.0,0.0,0.0,0.0,0.0,0.0,0.0,0.0,0.0,0.0,0.0,0.0,0.0,0.0,0.0,0.0,0.0,0.0,0.0,0.0,0.0,0.0,0.0,0.0,0.0,0.0,0.0,0.0,0.0,0.0,0.0,0.0,0.0,0.0,0.0,0.0,0.0,0.0,0.0,0.0,0.0,0.0,0.0,0.0,0.0,0.0,0.0,0.0,0.0,0.0,0.0,0.0,0.0,0.0,0.0,0.0,0.0,0.0,0.0,0.0,0.0,0.0,0.0,0.0,0.0,0.0,0.0,0.0,0.0,0.0,0.0,0.0,0.0,0.0,0.0,0.0,0.0,0.0,0.0,0.0,0.0,0.0,0.0,0.0,0.0,0.0,0.0,0.0,0.0,0.0,0.0,0.0,0.0,0.0,0.0,0.0,0.0,0.0,0.0,0.0,0.0,0.0,0.0,0.0,0.0,0.0,0.0,0.0,0.0,0.0,0.0,0.0,0.0,0.0,0.0,0.0,0.0,0.0,0.0,0.0,0.0,0.0,0.0,0.0,0.0,0.0,0.0,0.0,0.0,0.0,0.0,0.0,0.0,0.0,0.0,0.0,0.0,0.0,0.0,0.0,0.0,0.0,0.0,0.0,0.0,0.0,0.0,0.0,0.0,0.0,0.0,0.0,0.0,0.0,0.0,0.0,0.0,0.0,0.0,0.0,0.0,0.0,0.0,0.0,0.0,0.0,0.0,0.0,0.0,0.0,0.0,0.0,0.0,0.0,0.0,0.0,0.0,0.0,0.0,0.0,0.0,0.0,0.0,0.0,0.0,0.0,0.0,0.0,0.0,0.0,0.0,0.0,0.0,0.0,0.0,0.0,0.0,0.0,0.0,0.0,0.0,0.0,0.0,0.0,0.0,0.0,0.0,0.0,0.0,0.0,0.0,0.0,0.0,0.0,0.0,0.0,0.0,0.0,0.0,0.0,0.0,0.0,0.0,0.0,0.0,0.0,0.0,0.0,0.0,0.0,0.0,0.0,0.0,0.0,0.0,0.0,0.0,0.0,0.0,0.0,0.0,0.0,0.0,0.0,0.0,0.0,0.0,0.0,0.0,0.0,0.0,0.0,0.0,0.0,0.0,0.0,0.0,0.0,0.0,0.0,0.0,0.0,0.0,0.0,0.0,0.0,0.0,0.0,0.0,0.0,0.0,0.0,0.0,0.0,0.0,0.0,0.0,0.0,0.0,0.0,0.0,0.0,0.0,0.0,0.0,0.0,0.0,0.0,0.0,0.0,0.0,0.0,0.0,0.0,0.0,0.0,0.0,0.0,0.0,0.0,0.0,0.0,0.0,0.0,0.0,0.0,0.0,0.0,0.0,0.0,0.0,0.0,0.0,0.0,0.0,0.0,0.0,0.0,0.0,0.0,0.0,0.0,0.0,0.0,0.0,0.0,0.0,0.0,0.0,0.0,0.0,0.0,0.0,0.0,0.0,0.0,0.0,0.0,0.0,0.0,0.0,0.0,0.0,0.0,0.0,0.0,0.0,0.0,0.0,0.0,0.0,0.0,0.0,0.0,0.0,0.0,0.0,0.0,0.0,0.0,0.0,0.0,0.0,0.0,0.0,0.0,0.0,0.0,0.0,0.0,0.0,0.0,0.0,0.0,0.0,0.0,0.0,0.0,0.0,0.0,0.0,0.0,0.0,0.0,0.0,0.0,0.0,0.0,0.0,0.0,0.0,0.0,0.0,0.0,0.0,0.0,0.0,0.0,0.0,0.0,0.0,0.0,0.0,0.0,0.0,0.0,0.0,0.0,0.0,0.0,0.0,0.0,0.0,0.0,0.0,0.0,0.0,0.0,0.0,0.0,0.0,0.0,0.0,0.0,0.0,0.0,0.0,0.0,0.0,0.0,0.0,0.0,0.0,0.0,0.0,0.0,0.0,0.0,0.0,0.0,0.0,0.0,0.0,0.0,0.0,0.0,0.0,0.0,0.0,0.0,0.0,0.0,0.0,0.0,0.0,0.0,0.0,0.0,0.0,0.0,0.0,0.0,0.0,0.0,0.0,0.0,0.0,0.0,0.0,0.0,0.0,0.0,0.0,0.0,0.0,0.0,0.0,0.0,0.0,0.0,0.0,0.0,0.0,0.0,0.0,0.0,0.0,0.0,0.0,0.0,0.0,0.0,0.0,0.0,0.0,0.0,0.0,0.0,0.0,0.0,0.0,0.0,0.0,0.0,0.0,0.0,0.0,0.0,0.0,0.0,0.0,0.0,0.0,0.0,0.0,0.0,0.0,0.0,0.0,0.0,0.0,0.0,0.0,0.0,0.0,0.0,0.0,0.0,0.0,0.0,0.0,0.0,0.0,0.0,0.0,0.0,0.0,0.0,0.0,0.0,0.0,0.0,0.0,0.0,0.0,0.0,0.0,0.0,0.0,0.0,0.0,0.0,0.0,0.0,0.0,0.0,0.0,0.0,0.0,0.0,0.0,0.0,0.0,0.0,0.0,0.0,0.0,0.0,0.0,0.0,0.0,0.0,0.0,0.0,0.0,0.0,0.0,0.0,0.0,0.0,0.0,0.0,0.0,0.0,0.0,0.0,0.0,0.0,0.0,0.0,0.0,0.0,0.0,0.0,0.0,0.0,0.0,0.0,0.0,0.0,0.0,0.0,0.0,0.0,0.0,0.0,0.0,0.0,0.0,0.0,0.0,0.0,0.0,0.0,0.0,0.0,0.0,0.0,0.0,0.0,0.0,0.0,0.0,0.0,0.0,0.0,0.0,0.0,0.0,0.0,0.0,0.0,0.0,0.0,0.0,0.0,0.0,0.0,0.0,0.0,0.0,0.0,0.0,0.0,0.0,0.0,0.0,0.0,0.0,0.0,0.0,0.0,0.0,0.0,0.0,0.0,0.0,0.0,0.0,0.0,0.0,0.0,0.0,0.0,0.0,0.0,0.0,0.0,0.0,0.0,0.0,0.0,0.0,0.0,0.0,0.0,0.0,0.0,0.0,0.0,0.0,0.0,0.0,0.0,0.0,0.0,0.0,0.0,0.0,0.0,0.0,0.0,0.0,0.0,0.0,0.0,0.0,0.0,0.0,0.0,0.0,0.0,0.0,0.0,0.0,0.0,0.0,0.0,0.0,0.0,0.0,0.0,0.0,0.0,0.0,0.0,0.0,0.0,0.0,0.0,0.0,0.0,0.0,0.0,0.0,0.0,0.0,0.0,0.0,0.0,0.0,0.0,0.0,0.0,0.0,0.0,0.0,0.0,0.0,0.0,0.0,0.0,0.0,0.0,0.0,0.0,0.0,0.0,0.0,0.0,0.0,0.0,0.0,0.0,0.0,0.0,0.0,0.0,0.0,0.0,0.0,0.0,0.0,0.0,0.0,0.0,0.0,0.0,0.0,0.0,0.0,0.0,0.0,0.0,0.0,0.0,0.0,0.0,0.0,0.0,0.0,0.0,0.0,0.0,0.0,0.0,0.0,0.0,0.0,0.0,0.0,0.0,0.0,0.0,0.0,0.0,0.0,0.0,0.0,0.0,0.0,0.0,0.0,0.0,0.0,0.0,0.0,0.0,0.0,0.0,0.0,0.0,0.0,0.0,0.0,0.0,-5.1095,-5.1439,0.0,0.0,0.0,0.0,0.0,0.0,0.0,0.0,0.0,0.0,0.0,0.0,0.0,0.0,0.0,0.0,0.0,0.0,0.0,0.0,0.0,0.0,0.0,-3.4152,-3.3919,-3.3794,-3.3175,-3.2618,-3.2228,0.0,0.0,0.0,0.0,0.0,-3.3088,-3.3349,-3.3723,-3.4213,-3.4944,-3.5322,-3.5298,-3.4833,-3.4307,-3.3699,0.0,0.0,0.0,0.0,0.0,0.0,0.0,0.0,0.0,0.0,0.0,0.0,0.0,0.0,0.0,0.0,0.0,0.0,0.0,0.0,0.0,0.0,0.0,0.0,0.0,0.0,0.0,0.0,0.0,0.0,0.0,0.0,0.0,0.0,0.0,0.0,0.0,0.0,0.0,0.0,0.0,0.0,0.0,0.0,0.0,0.0,0.0,0.0,0.0,0.0,0.0,0.0,0.0,0.0,0.0,0.0,0.0,0.0,0.0,0.0,0.0,0.0,0.0,0.0,0.0,0.0,0.0,0.0,0.0,0.0,-5.3612,-5.2712,0.0,0.0,0.0,0.0,0.0,0.0,0.0,0.0,0.0,0.0,0.0,0.0,0.0,0.0,0.0,0.0,0.0,0.0,0.0,0.0,0.0,-3.4905,-3.546,-3.4607,-3.4129,-3.4404,-3.3465,-3.2674,-3.2391,-3.2381,0.0,0.0,-3.2789,-3.3142,-3.3251,-3.3772,-3.4124,-3.4206,-3.5499,-3.6475,-3.7165,-3.6341,-3.5701,-3.5174,-3.3403,0.0,0.0,0.0,0.0,0.0,0.0,0.0,0.0,0.0,0.0,0.0,0.0,0.0,0.0,0.0,0.0,0.0,0.0,0.0,0.0,0.0,0.0,0.0,0.0,0.0,0.0,0.0,0.0,0.0,0.0,0.0,0.0,0.0,0.0,0.0,0.0,0.0,0.0,0.0,0.0,0.0,0.0,0.0,0.0,0.0,0.0,0.0,0.0,0.0,0.0,0.0,0.0,0.0,0.0,0.0,0.0,0.0,0.0,0.0,0.0,0.0,0.0,0.0,-5.6217,-5.7772,-5.9737,-5.9915,-6.0648,-6.1464,-5.7815,-5.5521,-5.4517,-5.4614,0.0,0.0,0.0,0.0,0.0,0.0,0.0,0.0,0.0,0.0,0.0,0.0,0.0,0.0,0.0,0.0,0.0,0.0,0.0,-3.5398,-3.5491,-3.5817,-3.5759,-3.516,-3.4918,-3.4306,-3.3043,-3.2979,-3.2762,-3.2246,-3.2789,-3.3295,-3.3772,-3.4368,-3.4938,-3.5453,-3.7476,-3.8962,-3.9867,-3.9499,-3.9077,-3.8527,-3.5618,-3.5169,-3.6363,0.0,0.0,0.0,0.0,0.0,0.0,0.0,0.0,0.0,0.0,0.0,0.0,0.0,0.0,0.0,0.0,0.0,0.0,0.0,0.0,0.0,0.0,0.0,0.0,0.0,0.0,0.0,0.0,0.0,0.0,0.0,0.0,0.0,0.0,0.0,0.0,0.0,0.0,0.0,0.0,0.0,-3.7768,-3.8286,0.0,0.0,0.0,0.0,0.0,0.0,0.0,0.0,0.0,0.0,0.0,0.0,0.0,-5.4465,-5.6207,-5.8305,-5.9186,-5.8894,-6.1577,-6.2735,-6.2622,-6.3727,-6.4856,-6.6048,-6.5438,0.0,-5.8493,-5.797,0.0,0.0,0.0,0.0,0.0,0.0,0.0,0.0,0.0,0.0,0.0,0.0,0.0,0.0,0.0,0.0,0.0,0.0,0.0,0.0,0.0,-3.6451,-3.6204,-3.5799,-3.5955,-3.5363,-3.3658,-3.419,-3.4136,-3.3213,-3.3729,-3.419,-3.4395,-3.5229,-3.6438,-3.8061,-3.9701,-4.1135,-4.2304,-4.1889,-4.1748,-4.1692,-3.9306,-3.7645,-3.658,-3.5335,0.0,0.0,0.0,0.0,0.0,0.0,0.0,0.0,0.0,0.0,0.0,0.0,0.0,0.0,0.0,0.0,0.0,0.0,0.0,0.0,0.0,0.0,0.0,0.0,0.0,0.0,0.0,0.0,0.0,0.0,0.0,0.0,0.0,0.0,0.0,0.0,0.0,0.0,0.0,-3.8588,-3.9262,-3.8344,-3.9522,-4.0134,0.0,0.0,0.0,0.0,0.0,0.0,0.0,0.0,0.0,-5.6125,-5.7956,-5.939,-6.0443,-6.2509,-6.396,-6.4774,-6.6484,-6.7667,-6.845,-6.9031,-6.9786,-7.0657,-7.0657,-6.8973,-6.5983,-6.2441,-5.9829,-5.797,0.0,0.0,0.0,0.0,-6.0935,-6.1213,0.0,0.0,0.0,0.0,0.0,0.0,0.0,0.0,0.0,0.0,0.0,0.0,-3.7461,-3.7355,-3.7273,-3.7256,-3.7291,-3.6638,-3.5068,-3.5286,-3.4992,-3.3962,-3.4477,-3.4802,-3.4802,-3.6182,-3.8145,-4.0619,-4.1897,-4.3219,-4.4643,-4.4238,-4.4291,-4.4584,-4.2918,-4.0543,-3.7627,-3.6288,-3.5394,-3.4765,0.0,0.0,0.0,0.0,0.0,0.0,0.0,0.0,0.0,0.0,0.0,0.0,0.0,0.0,0.0,0.0,0.0,0.0,0.0,0.0,0.0,0.0,0.0,0.0,0.0,0.0,0.0,0.0,0.0,0.0,0.0,0.0,0.0,0.0,0.0,0.0,0.0,-4.0039,-4.0824,-3.8894,-4.0877,-4.163,0.0,0.0,0.0,0.0,0.0,0.0,-5.1646,-5.3826,-5.6776,-6.07,-6.3167,-6.4721,-6.5519,-6.7434,-6.9031,-7.0308,-7.1266,-7.2456,-7.385,-7.4024,-7.4372,-7.4837,-7.4837,-7.3908,-7.1992,-6.6738,-6.3167,-6.0934,-6.0177,-5.9816,-6.0016,-6.293,-6.3863,-6.396,0.0,0.0,0.0,0.0,0.0,0.0,0.0,0.0,0.0,0.0,0.0,-3.7461,-3.7492,-3.8913,-3.998,-4.0151,-3.9215,-3.8412,-3.7924,-3.5955,-3.4558,-3.3935,-3.4477,-3.4802,-3.4802,-3.7094,-3.9727,-4.258,-4.374,-4.5249,-4.6909,-4.6966,-4.7053,-4.714,-4.5983,-4.388,-4.1029,-3.7767,-3.6751,-3.7196,-3.4925,0.0,0.0,0.0,0.0,0.0,0.0,0.0,0.0,0.0,0.0,0.0,0.0,0.0,0.0,0.0,0.0,0.0,0.0,0.0,0.0,0.0,0.0,0.0,0.0,0.0,0.0,0.0,0.0,0.0,0.0,0.0,0.0,0.0,0.0,0.0,0.0,0.0,0.0,-4.0576,-4.3288,0.0,0.0,0.0,0.0,-4.5959,-4.7151,-4.9735,-5.4221,-5.6605,-6.01,-6.4844,-6.7907,-7.0279,-7.2108,-7.4053,-7.475,-7.4256,-7.6114,-7.7072,-7.7188,-7.7827,-7.8146,-7.8175,-7.8175,-7.6724,-7.4111,-7.0163,-6.7376,-6.546,-6.4183,-6.3374,-6.3149,-6.5335,-6.6241,-6.6637,0.0,0.0,0.0,0.0,0.0,-3.4568,-3.5922,-3.6138,-3.6384,-3.7061,-3.7338,-3.8169,-3.9955,-3.9659,-3.9905,-4.1312,-3.997,-3.8843,-3.835,-3.7179,-3.6266,-3.5642,-3.5493,-3.5885,-3.6893,-3.9321,-4.2021,-4.4883,-4.6578,-4.8498,-5.0596,-4.9884,-4.9594,-4.963,-4.8656,-4.7214,-4.5322,-4.1478,-3.902,-3.7535,-3.6107,-3.4856,0.0,0.0,0.0,0.0,0.0,0.0,0.0,0.0,0.0,0.0,0.0,0.0,0.0,0.0,0.0,0.0,0.0,0.0,0.0,0.0,0.0,0.0,0.0,0.0,0.0,0.0,0.0,0.0,0.0,0.0,0.0,0.0,0.0,0.0,0.0,0.0,0.0,-4.5271,-4.7933,0.0,-4.7355,-4.8058,-4.9012,-4.9967,-5.2026,-5.4994,-5.9039,-6.2113,-6.5736,-6.9997,-7.2686,-7.4808,-7.6317,-7.7014,-7.7653,-7.8233,-7.8494,-7.8843,-7.9278,-7.9511,-7.9627,-7.9598,-7.9162,-7.8233,-7.6869,-7.4634,-7.1382,-6.7754,-6.7289,-6.6902,-6.6875,-6.91,-6.9958,-7.027,0.0,0.0,0.0,-3.2167,-3.3581,-3.4874,-3.5984,-3.6353,-3.6722,-3.74,-3.7892,-3.8898,-4.0883,-4.0545,-4.0799,-4.2428,-4.0777,-3.9479,-3.9227,-3.7942,-3.6931,-3.6334,-3.6307,-3.711,-3.88,-4.1407,-4.4201,-4.7086,-4.9024,-5.1016,-5.2911,-5.2008,-5.1632,-5.1796,-5.0793,-4.9914,-4.8948,-4.5775,-4.2729,-3.98,-3.8214,-3.6796,-3.5486,0.0,0.0,0.0,0.0,0.0,0.0,0.0,0.0,0.0,0.0,0.0,0.0,0.0,0.0,0.0,0.0,0.0,0.0,0.0,0.0,0.0,0.0,0.0,0.0,0.0,0.0,0.0,0.0,0.0,0.0,0.0,0.0,0.0,0.0,0.0,-4.8535,-4.9238,-5.2302,-5.3683,-5.1975,-5.2854,-5.3808,-5.4536,-5.6821,-5.9642,-6.3049,-6.6597,-7.0063,-7.346,-7.6298,-7.8262,-7.9336,-7.9569,-7.9975,-8.0585,-8.0381,-8.0497,-8.0933,-8.0933,-8.0817,-8.0585,-8.012,-7.922,-7.8001,-7.7391,-7.4605,-7.0744,-7.0744,-7.0614,-7.0712,-7.2619,-7.3586,-7.4086,0.0,-3.0417,-3.0817,-3.2167,-3.3581,-3.472,-3.5398,-3.6045,-3.6753,-3.743,-3.8692,-3.9669,-4.0166,-4.1748,-4.2996,-4.3661,-4.1569,-4.0364,-4.0759,-3.813,-3.6334,-3.5818,-3.6916,-3.845,-4.0341,-4.3302,-4.625,-4.9247,-5.1072,-5.2545,-5.3613,-5.3071,-5.3088,-5.3554,-5.2389,-5.1909,-5.1769,-5.0356,-4.7727,-4.4346,-4.1182,-3.9547,-3.8718,0.0,0.0,0.0,0.0,0.0,0.0,0.0,0.0,0.0,0.0,0.0,0.0,0.0,0.0,0.0,0.0,0.0,0.0,0.0,0.0,0.0,0.0,0.0,0.0,0.0,0.0,0.0,0.0,0.0,0.0,0.0,0.0,0.0,-4.4091,-4.8761,-5.2277,-5.2377,-5.6219,-5.7826,-5.5189,-5.6872,-5.8579,-5.9633,-6.1266,-6.3375,-6.6061,-6.9568,-7.2587,-7.5035,-7.848,-8.0643,-8.1252,-8.1891,-8.1891,-8.1281,-8.192,-8.2239,-8.2239,-8.2239,-8.1891,-8.1252,-8.1223,-7.9801,-7.7537,-7.8175,-7.6927,-7.4605,-7.4576,-7.4483,-7.4506,-7.5784,-7.691,-7.7768,-3.0905,-3.0751,-3.0817,-3.2167,-3.3581,-3.472,-3.5398,-3.6045,-3.6907,-3.8077,-3.9,-4.0222,-4.2124,-4.3307,-4.3994,-4.4106,-4.2098,-4.0646,-4.0392,-3.7588,-3.6469,-3.7636,-3.8396,-4.0495,-4.4042,-4.6197,-4.88,-5.1791,-5.3191,-5.3999,-5.4235,-5.4086,-5.3874,-5.3588,-5.3679,-5.351,-5.3103,-5.2674,-5.147,-4.9328,-4.4718,-4.1774,-3.9929,0.0,0.0,0.0,0.0,0.0,0.0,0.0,0.0,0.0,0.0,0.0,0.0,0.0,0.0,0.0,0.0,0.0,0.0,0.0,0.0,0.0,0.0,0.0,0.0,0.0,0.0,0.0,0.0,0.0,0.0,0.0,-4.6677,-4.8761,-4.8611,-5.2352,-5.5968,-5.8403,-6.0839,-6.2496,-6.2898,-6.3124,-6.3726,-6.4831,-6.6086,-6.7317,-6.8472,-7.2765,-7.5463,-7.6141,-7.9757,-8.1978,-8.2646,-8.2355,-8.2559,-8.3284,-8.3052,-8.3139,-8.3575,-8.3575,-8.3226,-8.2617,-8.2123,-8.0991,-7.9481,-7.9191,-7.8088,-7.655,-7.6114,-7.5831,-7.5884,-7.7495,-7.9004,-8.0233,-3.1613,-3.1274,-3.1151,-3.2198,-3.3306,-3.426,-3.4967,-3.5675,-3.6661,-3.8292,-3.9616,-4.1112,-4.3127,-4.4057,-4.4312,-4.3743,-4.1852,-4.022,-3.9129,-3.7657,-3.7455,-3.8944,-4.0587,-4.3119,-4.6578,-4.8464,-5.0601,-5.3134,-5.4083,-5.4658,-5.4911,-5.516,-5.5166,-5.5074,-5.5208,-5.5057,-5.4704,-5.446,-5.3673,-5.2252,-4.893,-4.6041,-4.3387,-4.1484,-4.0298,-3.9514,-3.8405,-3.8407,-3.8715,-3.7387,0.0,0.0,0.0,0.0,0.0,0.0,0.0,0.0,0.0,0.0,0.0,0.0,0.0,0.0,0.0,0.0,0.0,0.0,0.0,0.0,0.0,0.0,0.0,0.0,-5.0469,-5.3331,-5.4737,-5.7072,-5.9608,-6.2245,-6.4454,-6.6137,-6.7066,-6.7493,-6.7894,-6.8321,-6.9376,-7.0367,-7.123,-7.4623,-7.7111,-7.8132,-8.1026,-8.2907,-8.3575,-8.3168,-8.3342,-8.4097,-8.372,-8.3749,-8.4097,-8.4097,-8.3604,-8.2762,-8.2355,-8.131,-7.9859,-7.9452,-7.8727,-7.7816,0.0,0.0,0.0,0.0,-8.0175,-8.1154,-3.2317,-3.1886,-3.164,-3.2345,-3.2995,-3.3673,-3.4411,-3.5089,-3.6261,-3.8263,-4.0297,-4.1954,-4.3133,-4.4216,-4.4342,-4.295,-4.133,-3.9618,-3.7848,-3.8213,-3.9075,-4.0365,-4.3318,-4.6103,-4.8658,-5.0348,-5.2095,-5.3813,-5.4422,-5.4943,-5.5403,-5.601,-5.6617,-5.7071,-5.6614,-5.6387,-5.6359,-5.5898,-5.5057,-5.3944,-5.3293,-5.1008,-4.7808,-4.5661,-4.4308,-4.3433,-4.2346,-4.1387,-4.0532,-3.9783,0.0,0.0,0.0,0.0,0.0,0.0,0.0,0.0,0.0,0.0,0.0,0.0,0.0,0.0,0.0,0.0,0.0,0.0,0.0,0.0,0.0,0.0,0.0,0.0,-5.4587,-5.7951,-6.1115,-6.2245,-6.3274,-6.468,-6.7191,-6.8848,-6.8974,-7.033,-7.0983,-7.048,-7.1359,-7.2496,-7.3907,0.0,0.0,0.0,0.0,-8.3575,-8.4184,-8.4126,-8.4097,-8.4097,-8.4097,-8.4097,-8.4097,-8.4097,-8.3429,-8.2297,-8.2239,-8.1165,-7.9511,-7.9452,-7.9172,-7.8722,-7.8361,-7.8633,-7.9345,-7.9994,-8.0742,-8.1344,-3.2578,-3.1994,-3.18,-3.2648,-3.3277,-3.3932,-3.4701,-3.5414,-3.6536,-3.8489,-4.0168,-4.1348,-4.1769,-4.3883,-4.4515,-4.2682,-4.1951,-4.0868,-3.9199,-3.955,-4.1151,-4.419,-4.6355,-4.8841,-5.1759,-5.2627,-5.3735,-5.5124,-5.574,-5.5806,-5.5403,-5.601,-5.6369,-5.6496,-5.6858,-5.7011,-5.7038,-5.7391,-5.7146,-5.6387,-5.5328,-5.2739,-4.9459,-4.7973,-4.7083,-4.641,-4.5227,-4.5281,-4.571,-4.4098,-4.4253,-4.4678,-4.2479,-4.1908,0.0,0.0,0.0,0.0,0.0,0.0,0.0,0.0,0.0,0.0,0.0,0.0,0.0,0.0,0.0,0.0,0.0,0.0,0.0,-5.3356,-5.7851,-6.1567,-6.355,-6.586,-6.7292,-6.7166,-6.8798,-7.0305,-7.1184,-7.156,-7.1711,-7.1585,-7.1786,-7.2648,-7.4507,-7.6762,-7.9219,-8.1797,-8.3211,-8.4242,-8.4881,-8.4358,-8.4097,-8.4097,-8.4097,0.0,-8.4097,-8.4097,-8.3691,-8.2965,-8.2413,-8.1659,-8.0788,-8.0294,-8.0524,-8.1012,-7.9469,-8.0139,-8.1787,-8.1392,-8.1878,-8.2798,-3.2881,-3.252,-3.2395,-3.2823,-3.3388,-3.4073,-3.4784,-3.5502,-3.6657,-3.865,-4.0111,-4.131,-4.2289,-4.3602,-4.3796,-4.2317,-4.1204,-4.049,-4.0295,-4.172,-4.3881,-4.68,-4.8821,-5.1051,-5.3581,-5.3605,-5.42,-5.5472,-5.5751,-5.6053,-5.6346,-5.7214,-5.7823,-5.8096,-5.8395,-5.853,-5.853,-5.853,-5.8178,-5.7581,-5.6984,-5.5138,-5.2561,-5.1041,-4.9928,-4.906,-4.8463,-4.8246,-4.8056,-4.6889,-4.6672,-4.6643,-4.48,-4.3823,-4.3096,0.0,0.0,0.0,0.0,0.0,0.0,0.0,0.0,0.0,0.0,0.0,0.0,0.0,0.0,-4.4426,-4.6637,0.0,-5.4009,-5.7323,-6.1366,-6.4454,-6.5559,-6.7869,-6.9024,-6.7919,-6.9501,-7.1008,-7.1836,-7.2414,-7.274,-7.274,-7.3631,-7.5066,-7.7044,-7.8889,-8.1166,-8.3963,-8.4145,-8.4416,-8.5084,-8.4416,-8.4097,-8.4097,-8.4097,-8.4097,-8.4097,-8.4097,-8.3575,-8.2675,-8.2326,-8.1659,-8.078,-8.0659,-8.1631,-8.3092,-8.1816,-8.1709,-8.2285,-8.1628,-8.1927,-8.2703,-3.3123,-3.3168,-3.3119,-3.2993,-3.3525,-3.4182,-3.4901,-3.5589,-3.6809,-3.881,-4.0055,-4.1336,-4.2827,-4.315,-4.291,-4.1949,-4.045,-4.0253,-4.1974,-4.3998,-4.6379,-4.9304,-5.1091,-5.2861,-5.4624,-5.4195,-5.441,-5.5403,-5.564,-5.6251,-5.7201,-5.8422,-5.9371,-6.005,-6.005,-6.0185,-6.0375,-5.9887,-5.9399,-5.891,-5.8557,-5.7553,-5.6061,-5.4026,-5.2479,-5.1394,-5.115,-5.0227,-4.9005,-4.8652,-4.811,-4.7431,-4.6537,-4.5587,-4.4637,-4.3687,-4.2656,0.0,0.0,0.0,0.0,0.0,0.0,0.0,0.0,0.0,-4.198,-4.3546,-4.5515,-4.7852,-5.0893,-5.4377,-5.7901,-6.114,-6.4354,-6.6689,-6.7367,-6.9175,-6.9928,-6.8597,-7.0204,-7.161,-7.2188,-7.3067,-7.3785,-7.4116,-7.5548,-7.7361,-7.9626,-8.0878,-8.2881,-8.5899,-8.4765,-8.4533,-8.5432,-8.4533,-8.4213,-8.4474,-8.4213,-8.4155,-8.4271,-8.4155,-8.3458,-8.2384,-8.2123,-8.1586,-8.0853,-8.1159,-8.2595,-8.4511,-8.3915,-8.3224,-8.2545,-8.2134,-8.2166,-8.2418,-3.3282,-3.3756,-3.395,-3.335,-3.3711,-3.4349,-3.5212,-3.5906,-3.7077,-3.8999,-4.007,-4.0858,-4.148,-4.2265,-4.2422,-4.1471,-4.1025,-4.2183,-4.5403,-4.5756,-4.7951,-5.2632,-5.3163,-5.4007,-5.5366,-5.5228,-5.5237,-5.5403,-5.6486,-5.7065,-5.7201,-5.8422,-5.9589,-6.0674,-6.0674,-6.1244,-6.2248,-6.2166,-6.2112,-6.1895,-6.0321,-5.9561,-5.9073,-5.6197,-5.4351,-5.3158,-5.2099,-5.0607,-4.9196,-4.9657,-4.906,-4.8164,-4.8599,-4.8653,-4.811,-4.5912,-4.4827,-4.4067,-4.2885,-4.2101,-4.194,-4.317,-4.3312,-4.3782,0.0,0.0,-4.7334,-4.8868,-5.0238,-5.1669,-5.3587,-5.6775,-6.006,-6.2948,-6.5785,-6.797,-6.9024,-7.0229,-7.0932,-7.0732,-7.1786,-7.2765,-7.3343,-7.3519,-7.4306,-7.5989,-7.6334,-7.7812,-8.0887,-8.1738,-8.3278,-8.5928,-8.4765,-8.4968,-8.6739,-8.4997,-8.4678,-8.581,-8.4649,-8.4387,-8.4968,-8.4358,-8.372,-8.3023,-8.1833,-8.1858,-8.2688,-8.262,-8.3427,-8.455,-8.4311,-8.4185,-8.4093,-8.4662,-8.4125,-8.3208,-3.3309,-3.3846,-3.4194,-3.3909,-3.4739,-3.5562,-3.5903,-3.6595,-3.7608,-3.9219,-3.9661,-4.0259,-4.1363,-4.174,-4.1771,-4.1521,-4.1476,-4.2989,-4.6576,-4.7705,-5.0292,-5.4899,-5.5613,-5.6345,-5.7278,-5.6936,-5.6823,-5.7126,-5.7583,-5.8108,-5.8821,-5.93,-5.9968,-6.0782,-6.1108,-6.1542,-6.2004,-6.2004,-6.2193,-6.2367,-6.1325,-6.0267,-5.9154,-5.7201,-5.4596,-5.1909,-5.1068,-5.0064,0.0,-4.8626,-4.8355,-4.8219,-4.849,-4.8138,-4.7323,-4.5994,-4.4664,-4.3525,-4.3036,-4.317,-4.3775,0.0,-4.5714,-4.6745,-4.934,-4.9487,-4.968,-5.1825,-5.3251,-5.4893,-5.7069,-6.0222,-6.3099,0.0,-6.7367,-6.9024,-6.9803,-7.0305,-7.0355,-6.9727,-7.0631,-7.1761,-7.2966,-7.3092,-7.402,-7.6216,-7.7187,-7.8827,-8.171,-8.2767,-8.4155,-8.5899,-8.4765,-8.4852,-8.6419,-8.4881,-8.4562,-8.549,-8.4533,-8.4242,-8.4503,-8.4213,-8.3546,-8.2611,-8.1987,-8.2172,-8.2935,-8.3141,-8.3697,-8.4431,-8.437,-8.403,-8.3682,-8.3999,-8.3714,-8.3272,-3.353,-3.413,-3.4668,-3.4857,-3.59,-3.6629,-3.644,-3.7196,-3.8175,-3.9345,-3.9566,-4.0165,-4.1462,-4.1489,-4.1456,-4.1588,-4.1815,-4.3381,-4.6687,-4.8473,-5.1364,-5.5707,-5.6601,-5.7521,-5.8742,-5.8147,-5.808,-5.8555,-5.869,-5.9164,-6.0021,-6.0125,-6.0498,-6.1027,-6.1434,-6.1786,-6.2085,-6.1922,-6.2221,-6.2709,-6.1759,-6.043,-5.8774,-5.6739,-5.3754,-5.0553,-4.9793,-4.8517,-4.7106,-4.6754,-4.6591,-4.6592,-4.7243,-4.7025,-4.6319,-4.556,-4.4176,-4.3009,-4.3497,-4.4393,0.0,-4.7269,-4.8617,-5.0116,-5.265,-5.2686,-5.2851,-5.5381,-5.6474,-5.766,-6.003,-6.2552,-6.4856,-6.6689,-6.8246,-6.9451,-7.0154,-7.0432,-7.0196,-6.9296,-6.9917,-7.1001,-7.2536,-7.3037,-7.4403,-7.702,-7.8641,-8.0359,-8.2596,-8.3807,-8.4794,-8.5752,-8.4678,-8.4707,-8.6013,-8.4736,-8.4503,-8.5345,-8.4503,-8.4184,-8.4358,-8.431,-8.3686,-8.2656,-8.2587,-8.2905,-8.3538,-8.3283,-8.3769,-8.4536,-8.4157,-8.3777,-8.3493,-8.3303,-8.324,-8.324,-3.413,-3.4857,-3.5584,-3.6219,-3.6943,-3.7227,-3.6503,-3.7577,-3.8744,-3.9408,-4.0135,-4.083,-4.1525,-4.1588,-4.1588,-4.1588,-4.2084,-4.3443,-4.597,-4.7471,-5.0246,-5.4777,-5.5299,-5.6621,-5.9112,-5.861,-5.8594,-5.9194,-5.9736,-6.003,-6.0021,-6.059,-6.1096,-6.1569,-6.1597,-6.2275,-6.3333,-6.2692,-6.2845,-6.3252,-6.1488,-6.0077,-5.8557,-5.4406,-5.1692,-4.9874,-4.8652,-4.5617,-4.2493,-4.4203,-4.3633,-4.2602,-4.4936,-4.6048,-4.6238,-4.5071,-4.385,-4.328,-4.5017,-4.5967,-4.7106,-5.0037,-5.2126,-5.4243,-5.7228,-5.7678,-5.8125,-6.047,-6.0224,-6.0104,-6.1794,-6.3027,-6.4429,-6.6614,-6.7919,-6.9024,-7.0104,-7.068,-7.0897,-7.0845,-7.0823,-7.1255,0.0,-7.3928,-7.5951,-7.8992,-8.1001,-8.2682,-8.3961,-8.4707,-8.5084,-8.5113,-8.4445,-8.4707,-8.6013,-8.4736,-8.4736,-8.5984,-8.4707,-8.4416,-8.5109,-8.4912,-8.4496,-8.3941,-8.3778,-8.4363,-8.5266,-8.3325,-8.3613,-8.5136,-8.3777,-8.3651,-8.4157,-8.3461,-8.324,-8.3335,-3.4162,-3.4889,-3.5616,-3.6282,-3.7006,-3.7447,-3.7164,-3.7923,-3.8744,-3.9408,-4.0514,0.0,0.0,0.0,0.0,0.0,-4.1643,-4.2793,-4.5472,-4.7243,-4.9766,-5.3272,-5.5599,-5.7516,-5.9049,-5.9021,-5.9608,-6.0706,-5.944,-5.9276,-6.0058,-5.9786,-5.9926,-6.0511,-6.1271,-6.1841,-6.2193,-6.1624,-6.1705,-6.2004,-5.9426,-5.815,-5.7282,-5.2669,-4.9331,-4.6781,0.0,-4.2602,-4.1381,-4.1191,-4.0974,-4.1082,-4.2711,-4.3335,-4.3416,-4.3036,-4.3742,-4.4908,-4.5912,-4.8056,-5.0661,-5.3239,-5.5545,-5.7982,-6.1109,-6.1383,-6.1486,-6.2983,-6.1332,-5.9918,-6.0659,-6.1165,-6.2295,-6.4881,-6.7631,-6.9588,-7.0185,-7.1835,-7.1659,-6.7976,-6.9665,0.0,0.0,0.0,0.0,-7.9116,-8.0388,-8.1831,-8.3985,-8.43,-8.4416,-8.4416,-8.4213,-8.4503,-8.5403,-8.4533,-8.4533,-8.5403,-8.4859,-8.453,-8.4374,-8.4714,-8.4712,-8.4517,-8.4375,-8.4238,-8.4201,-8.4313,-8.42,-8.3935,-8.3904,-8.3777,-8.3556,-8.3303,-8.324,-8.3272,0.0,-3.5236,-3.5679,-3.6627,-3.7196,0.0,0.0,0.0,0.0,0.0,0.0,0.0,0.0,0.0,0.0,0.0,0.0,-4.2236,-4.4203,-4.6128,-4.8247,-5.0642,-5.345,-5.5472,-5.6611,-5.6829,-5.7236,-5.7962,-5.6849,-5.6526,-5.7093,-5.6913,-5.7213,-5.7988,-5.8964,-5.9616,-5.9968,-5.9182,-5.8937,-5.8802,-5.5817,-5.4107,-5.2913,-4.8735,-4.5695,0.0,-4.0513,-3.9644,-3.9708,-3.9183,-3.9102,-3.9454,-4.0648,-4.1327,-4.1869,-4.2711,-4.4366,-4.6265,-4.792,-5.0688,-5.3727,-5.6359,-5.8666,-6.0934,-6.3418,-6.3444,-6.3109,-6.3884,-6.1414,-5.9155,-5.9078,-5.8782,-5.9515,-6.2414,-6.5301,-6.7924,-6.9971,-7.154,-7.1494,-6.8677,-7.0173,-7.0928,0.0,0.0,0.0,-7.8819,-8.0274,-8.1846,-8.3956,-8.4097,-8.4097,-8.4097,-8.4097,-8.43,-8.4736,-8.43,-8.4184,-8.4387,-8.4097,-8.3854,-8.3644,-8.4215,-8.4511,-8.4723,-8.455,-8.42,-8.3832,-8.4325,-8.4188,-8.3619,-8.3809,-8.3777,-8.3556,-8.3303,-8.324,-8.324,0.0,0.0,-3.5868,0.0,0.0,0.0,0.0,0.0,0.0,0.0,0.0,0.0,0.0,0.0,0.0,0.0,0.0,0.0,-4.2328,-4.4239,-4.5822,-4.6943,-4.9088,-5.0818,-5.2105,-5.2259,-5.2072,-5.1617,-5.2285,-5.2295,-5.1618,-5.2295,-5.3158,-5.4195,-5.4758,-5.5681,-5.6658,-5.5491,-5.465,-5.3863,-5.0878,-4.8355,-4.6048,-4.3063,-4.1191,-3.9888,-3.7528,-3.7066,-3.7567,-3.8136,-3.8027,-3.7838,-3.902,-4.0241,-4.1707,-4.4067,-4.5723,-4.7541,-5.1014,-5.3782,-5.6387,-5.929,-6.1298,-6.2894,-6.4245,-6.3919,-6.3264,-6.3141,-6.0484,-5.7933,0.0,0.0,-5.6185,-5.9403,-6.1711,-6.4735,-6.9586,-7.0379,-7.11,0.0,0.0,0.0,0.0,0.0,0.0,-7.8308,0.0,-8.2675,-8.401,-8.4097,-8.4097,-8.4097,-8.4097,-8.4097,-8.4097,-8.4068,-8.3749,-8.3139,-8.2604,-8.2544,-8.3009,-8.3702,-8.4215,-8.4621,-8.4478,-8.4315,-8.422,-8.3556,-8.3651,-8.4157,-8.3524,-8.3651,-8.4157,-8.3461,-8.324,-8.324,0.0,0.0,0.0,0.0,0.0,0.0,0.0,0.0,0.0,0.0,0.0,0.0,0.0,0.0,0.0,0.0,0.0,0.0,-4.1806,-4.3255,-4.426,-4.4606,-4.6941,-4.8738,-4.9712,-5.002,-5.0615,-5.1666,-5.0726,-5.0223,-5.0069,-5.0205,-5.0062,-4.9694,-5.0297,-5.051,-5.0471,-4.9711,-4.9304,-4.9007,-4.6401,-4.5288,-4.4827,-4.1815,-4.0458,-3.9997,-3.8505,-3.7729,-3.7512,-3.7675,-3.8532,0.0,-4.0404,-4.1788,-4.3389,-4.4908,-4.811,-5.1502,-5.332,-5.6549,-5.9806,-6.1461,-6.2614,-6.3416,-6.3833,-6.3464,-6.2633,-6.1274,-5.7425,-5.408,0.0,0.0,0.0,-5.8889,-6.4434,0.0,-7.1962,-7.5783,0.0,-7.4,0.0,-7.6259,-7.5127,-7.6027,0.0,0.0,-8.0434,-8.1746,-8.3981,-8.4097,-8.4097,-8.4097,-8.4097,-8.4097,-8.4097,-8.3633,-8.3081,-8.2442,-8.3615,-8.3657,-8.2917,-8.54,-8.5993,-8.5107,-8.5064,-8.4757,-8.4251,-8.4093,-8.3809,-8.3524,-8.3872,-8.3809,-8.3461,-8.3303,-8.324,-8.324,0.0,0.0,0.0,0.0,0.0,0.0,0.0,0.0,0.0,0.0,0.0,0.0,0.0,0.0,0.0,0.0,0.0,0.0,0.0,-4.2347,-4.2789,-4.2792,-4.4484,-4.5646,-4.6171,-4.6615,-4.7159,-4.7821,-4.7008,-4.6591,-4.656,-4.6558,-4.6308,-4.5946,-4.6505,-4.659,-4.6238,-4.5641,-4.5071,0.0,0.0,-4.1327,-4.0974,-3.9264,-3.8613,-3.8559,-3.8179,-3.8109,-3.8434,0.0,0.0,-4.1571,-4.2711,-4.4312,-4.613,-4.8138,0.0,-5.4324,-5.6332,-5.9421,-6.2177,-6.2753,-6.3484,-6.386,-6.3026,-6.2005,-6.0651,-5.8548,-5.5027,-5.2044,-5.1072,-5.1228,0.0,0.0,0.0,0.0,-7.3203,-7.6841,-7.8417,0.0,-7.7549,0.0,-7.6898,-7.742,-7.8756,0.0,-8.0846,-8.1688,-8.3981,-8.4097,-8.4097,-8.4097,-8.4097,-8.4097,-8.4097,-8.3487,-8.3174,-8.3034,-8.3657,-8.4003,-8.4073,-8.5174,-8.5541,-8.5294,-8.4662,-8.4157,-8.3809,-8.3809,-8.3588,-8.3272,-8.3651,-8.3556,-8.324,-8.324,-8.324,-8.324,0.0,0.0,0.0,0.0,0.0,0.0,0.0,0.0,0.0,0.0,-4.1114,-4.1588,0.0,0.0,0.0,0.0,0.0,0.0,0.0,0.0,-4.1588,-4.1588,-4.2189,-4.2537,-4.2537,-4.3137,-4.3144,-4.2616,-4.275,-4.2698,-4.2406,-4.2537,-4.2636,-4.2721,-4.324,-4.3343,-4.3013,-4.2425,-4.1513,-4.0405,-3.882,-3.7555,-3.6632,0.0,-3.6849,-3.6931,-3.7512,-3.8423,-3.9699,0.0,-4.3226,-4.3687,-4.5587,-4.7513,-4.9547,-5.2371,-5.4569,-5.6712,-5.9533,-6.2097,-6.3929,-6.3734,-6.418,-6.4077,-6.1912,-5.9979,-5.7854,-5.5259,-5.2793,-5.0701,-4.9667,-5.053,-5.2883,-5.7193,0.0,-6.7545,-7.4139,-7.6143,-7.7653,-7.9481,-7.9307,-7.9017,-7.8901,-7.8988,-7.9946,-8.2152,-8.1775,-8.2239,-8.401,-8.4097,-8.4097,-8.4097,-8.4097,-8.4151,-8.4315,-8.3646,-8.3621,-8.4235,-8.3645,-8.4064,-8.544,-8.4466,-8.4463,-8.5231,-8.403,-8.3493,-8.3493,-8.3303,-8.3272,-8.3366,-8.3272,-8.324,-8.324,-8.324,-8.3272,-8.3335,0.0,0.0,0.0,0.0,0.0,0.0,0.0,0.0,0.0,0.0,-4.0798,-4.1588,0.0,0.0,0.0,0.0,0.0,0.0,0.0,0.0,0.0,-4.1588,-4.1715,-4.1778,-4.1778,-4.1904,-4.17,-4.1155,-4.1625,-4.1376,-4.0408,-4.0954,-4.0746,-3.9963,-4.0081,-3.9856,-3.9283,-3.8524,-3.7954,-3.7613,-3.7112,-3.6795,-3.6714,-3.7718,0.0,0.0,-3.8776,-3.9129,-3.9834,-4.3253,-4.5044,-4.6238,-4.8517,-5.115,-5.37,-5.522,-5.7662,-6.0185,-6.1876,-6.368,-6.5135,-6.5168,-6.4606,-6.3261,-6.0188,-5.7703,0.0,0.0,-4.9592,-4.79,-4.765,-4.8973,-5.2278,-5.8823,0.0,0.0,0.0,0.0,-8.0149,0.0,-8.2094,-8.2152,-8.1601,-8.2036,0.0,0.0,-8.2907,-8.3197,-8.4039,-8.4097,-8.4097,-8.4097,-8.4097,-8.4644,-8.567,-8.4486,-8.4432,-8.5485,-8.5274,-8.4978,-8.486,-8.6149,-8.6194,-8.5294,-8.5041,-8.4947,-8.4852,-8.3714,-8.3556,-8.403,-8.3461,-8.324,-8.324,-8.324,-8.3588,-8.3999,0.0,0.0,0.0,0.0,0.0,0.0,0.0,-3.8871,-3.9629,-4.0008,-4.0956,-4.1588,-4.1588,-4.1588,-4.1588,0.0,0.0,0.0,0.0,0.0,0.0,-4.1588,-4.1588,-4.1588,-4.1588,-4.1588,-4.1834,-4.2285,0.0,-4.1379,-4.1765,-4.134,-4.0654,-3.9732,-4.004,-3.9475,-3.8274,-3.7878,-3.7545,-3.7235,-3.7346,-3.7275,-3.7175,0.0,0.0,0.0,0.0,0.0,-4.0576,-4.3588,-4.6228,-4.8588,-5.0764,-5.3512,-5.6305,-5.8209,-6.0164,-6.2174,-6.4194,-6.5656,-6.6325,-6.5725,-6.4235,-6.2107,-5.8795,0.0,0.0,0.0,-4.8505,-4.7586,-4.7901,-4.9733,0.0,0.0,0.0,0.0,0.0,0.0,0.0,0.0,-8.2559,-8.2936,0.0,-8.2791,-8.3313,-8.3633,-8.3662,-8.3778,-8.4068,-8.4097,-8.4097,-8.4097,-8.4097,-8.4725,-8.5991,-8.5011,-8.5263,-8.6722,-8.6327,-8.6099,-8.6079,-8.6636,-8.6495,-8.5831,-8.5484,-8.5105,-8.4725,-8.4062,-8.3967,-8.4251,-8.3904,-8.3777,-8.3872,-8.4599,-8.4631,-8.4315,0.0,0.0,0.0,0.0,0.0,0.0,-3.8397,-3.9092,-3.9756,-4.0514,-4.1178,-4.1588,-4.1588,-4.1588,-4.1588,0.0,0.0,0.0,0.0,0.0,0.0,0.0,0.0,0.0,0.0,0.0,0.0,-4.3137,-4.1576,0.0,0.0,0.0,0.0,0.0,-4.0952,-4.0334,-3.8899,-3.8736,-3.8435,0.0,0.0,-3.8324,0.0,0.0,0.0,0.0,0.0,0.0,-4.1073,-4.3626,-4.65,-4.9382,-5.146,-5.4741,-5.8145,-6.0038,-6.1714,-6.3539,-6.595,-6.7059,-6.727,-6.6166,-6.3988,-6.1276,-5.8029,-5.4316,0.0,-4.9069,-4.8333,-4.813,-4.8624,-5.0598,-5.3036,0.0,-5.9045,0.0,0.0,0.0,0.0,0.0,0.0,0.0,-8.2471,-8.2994,0.0,-8.4039,-8.4097,-8.4097,-8.4097,-8.4097,-8.4262,-8.448,-8.448,-8.5207,-8.6547,-8.6038,-8.6427,-8.7788,-8.7218,-8.7128,-8.738,-8.6843,-8.659,-8.6558,-8.5673,-8.5168,-8.4915,-8.4473,-8.4473,-8.4694,-8.4567,-8.4504,-8.4631,-8.5737,-8.5547,-8.4883,0.0,0.0,0.0,0.0,0.0,0.0,-3.8397,-3.9092,-3.9756,-4.0514,-4.1178,-4.1588,-4.1588,-4.1588,-4.1588,0.0,0.0,0.0,0.0,0.0,0.0,0.0,0.0,0.0,0.0,0.0,0.0,-4.126,-4.0948,0.0,0.0,0.0,0.0,0.0,0.0,-4.155,-4.1249,-4.049,0.0,0.0,0.0,0.0,0.0,0.0,0.0,0.0,0.0,0.0,0.0,0.0,0.0,-4.6876,-4.9246,-5.4402,-5.9591,-5.927,0.0,0.0,-6.631,-6.717,-6.7547,-6.6958,-6.4439,-6.128,-5.8088,0.0,-5.1062,-4.9069,-4.8682,-4.8653,-4.8663,-4.9901,-5.1875,-5.4981,-5.7274,-6.1309,0.0,0.0,0.0,0.0,0.0,0.0,0.0,-8.3662,0.0,-8.4097,-8.4097,-8.4097,-8.4097,-8.4097,-8.4644,-8.5831,-8.5831,-8.6693,-8.8414,-8.8353,-8.8337,-8.8307,-8.8244,-8.7935,-8.7412,-8.7348,-8.7317,-8.7222,-8.5895,-8.5989,-8.6969,-8.5073,-8.501,-8.6116,-8.5452,-8.5231,-8.5231,-8.5357,-8.5737,-8.6211,0.0,0.0,0.0,0.0,0.0,0.0,-3.8934,-3.9345,-3.9914,-4.1051,-4.143,-4.1588,-4.1588,-4.1588,-4.1588,-4.1588,-4.1588,0.0,0.0,0.0,0.0,0.0,0.0,0.0,0.0,0.0,-4.1536,-4.1494,-4.1457,0.0,0.0,0.0,0.0,0.0,0.0,-4.213,-4.1481,-4.1157,0.0,0.0,0.0,0.0,0.0,0.0,0.0,0.0,0.0,0.0,-4.0752,0.0,0.0,0.0,-4.7098,-5.0829,0.0,0.0,-6.0382,-6.299,-6.6041,-6.7534,-6.8057,-6.7091,-6.3632,-5.9858,-5.7797,0.0,-5.022,-4.9465,-4.9291,-4.9291,-4.9291,-4.9727,-5.0627,-5.2281,-5.353,-5.6432,-6.2616,0.0,0.0,0.0,0.0,0.0,0.0,0.0,-8.4097,-8.4097,-8.4097,-8.4097,-8.4097,-8.4097,-8.4725,-8.5991,-8.5961,-8.7079,-8.9314,-8.8477,-8.8411,-8.9055,-8.8202,-8.7664,-8.7412,-8.7412,-8.7159,-8.6748,-8.6179,-8.6021,-8.6084,-8.5231,-8.5484,-8.6337,-8.6053,-8.5958,-8.6053,-8.6874,-8.7117,-8.7076,0.0,0.0,0.0,0.0,0.0,-3.7953,-3.9313,-3.9503,-4.0008,-4.1399,-4.1588,-4.1588,-4.1588,-4.1588,-4.1588,-4.1588,-4.1588,0.0,0.0,0.0,0.0,0.0,0.0,0.0,0.0,0.0,-4.1502,-4.181,-4.1427,-4.1809,0.0,0.0,0.0,0.0,0.0,0.0,0.0,0.0,0.0,0.0,0.0,0.0,0.0,0.0,0.0,0.0,0.0,0.0,0.0,0.0,0.0,0.0,0.0,0.0,-5.0772,0.0,-5.8343,-6.1393,-6.4856,-6.7036,-6.8119,-6.7128,-6.3196,-5.9132,0.0,0.0,-4.9601,-4.9204,-4.9117,-4.9175,-4.9349,-4.9378,-4.9611,-5.0328,-5.1091,-5.3355,-5.8319,0.0,0.0,0.0,0.0,0.0,0.0,-8.3168,-8.4097,-8.4097,-8.448,-8.4644,-8.4644,-8.5022,-8.564,-8.649,-8.6915,-8.795,-8.9617,-8.8868,-8.8648,-8.8865,-8.8075,-8.7601,-8.7412,-8.7412,-8.7032,-8.6437,-8.6147,-8.5768,-8.5326,-8.5326,-8.5737,-8.6437,-8.6437,-8.6495,-8.6817,-8.7746,-8.7808,-8.7544,0.0,0.0,0.0,0.0,0.0,-3.7953,-3.9313,-3.9503,-4.0008,-4.1399,-4.1588,-4.1588,-4.1588,-4.1588,-4.1588,-4.1588,-4.1588,0.0,0.0,0.0,0.0,0.0,0.0,0.0,-4.0783,-4.0783,-4.1159,-4.181,-4.0601,-4.0995,-4.2887,-4.1676,-4.1453,-4.2092,0.0,0.0,0.0,0.0,0.0,0.0,0.0,0.0,0.0,0.0,0.0,0.0,0.0,0.0,0.0,0.0,0.0,0.0,0.0,-4.5372,-4.6708,-5.0569,-5.5736,-6.0642,-6.2616,-6.546,-6.7725,-6.7057,-6.3516,-5.9539,0.0,0.0,-4.932,-4.8072,-4.7811,-4.7985,-4.8624,-4.8692,-4.8943,-4.9582,-5.0772,-5.3181,-5.7681,0.0,0.0,0.0,0.0,0.0,0.0,0.0,-8.4097,-8.4097,-8.5266,0.0,-8.5961,-8.7121,-8.7793,-8.7793,-8.8975,-8.9585,-8.9529,-9.0193,-8.9466,-8.7443,-8.8107,-8.8075,-8.7412,-8.7412,-8.7032,-8.6405,-8.5642,-8.5326,-8.5326,-8.5326,-8.5737,-8.6437,-8.6437,-8.678,-8.7386,-8.7406,-8.7451,-8.771,0.0,0.0,0.0,0.0,0.0,0.0,-4.004,-4.0261,-4.0577,-4.1462,-4.1588,-4.1588,-4.1588,-4.1588,-4.1588,-4.1588,-4.1588,0.0,0.0,0.0,0.0,0.0,0.0,0.0,-4.0783,-4.0374,-4.0501,-4.1173,-4.1237,-4.1633,-4.2195,-4.2357,-4.2309,-4.2092,-4.2092,-4.2092,0.0,0.0,0.0,0.0,0.0,0.0,0.0,0.0,0.0,0.0,0.0,0.0,0.0,0.0,0.0,0.0,0.0,0.0,0.0,-4.7869,-5.1497,-5.5503,-5.7884,-6.0235,-6.1861,-6.1193,-5.8639,-5.5968,-5.472,0.0,-4.8914,-4.8508,-4.8072,-4.784,-4.8043,-4.842,-4.8943,-4.9611,-5.1527,-5.3413,0.0,0.0,0.0,0.0,0.0,0.0,0.0,0.0,-8.3923,-8.3517,-8.503,-8.5575,-8.4684,-8.7492,-8.8866,-8.8405,-8.8811,-8.9191,-8.9497,-8.9213,-8.877,-8.8107,-8.7854,-8.7601,-8.7412,-8.7412,-8.7032,-8.6437,-8.6116,-8.6021,-8.6021,-8.6021,-8.6432,-8.7064,-8.7064,-8.719,-8.738,-8.7403,-8.7988,-8.8855,0.0,0.0,0.0,0.0,0.0,0.0,-4.0419,-4.0609,-4.083,-4.1494,-4.1588,-4.1588,-4.1588,-4.1588,-4.1588,-4.1588,-4.1588,0.0,0.0,0.0,0.0,0.0,0.0,0.0,-4.0474,-4.0127,-4.0245,-4.0916,-4.1348,-4.1701,-4.1912,-4.2404,-4.2474,-4.2092,-4.2092,-4.2092,0.0,0.0,0.0,0.0,0.0,0.0,-4.3398,0.0,0.0,0.0,0.0,0.0,0.0,0.0,0.0,0.0,0.0,0.0,0.0,0.0,-4.8508,-5.1439,-5.4487,-5.71,-5.8813,-5.8406,-5.6403,-5.4284,-5.3355,0.0,-4.8653,-4.842,-4.8043,-4.784,-4.8101,-4.8449,-4.8943,-4.9611,-5.1033,-5.2572,0.0,0.0,0.0,0.0,0.0,0.0,0.0,-8.3052,-8.3739,-8.3818,-8.5159,-8.5804,-8.5347,-8.8075,-8.9296,-8.864,-8.9108,-8.9316,-8.9086,-8.8391,-8.8044,-8.8044,-8.7064,-8.6748,-8.7001,-8.7001,-8.6622,-8.5989,-8.6242,-8.6121,0.0,-8.5863,-8.6211,-8.659,-8.6337,-8.6695,-8.7349,-8.708,-8.7723,-8.8733,0.0,0.0,0.0,0.0,0.0,0.0,0.0,-4.0672,-4.0893,-4.1494,-4.1588,-4.1588,-4.1588,-4.1588,-4.1588,-4.1588,-4.1555,0.0,0.0,0.0,0.0,0.0,0.0,-4.0443,-3.9889,-3.9881,-4.0196,-4.0904,-4.093,-4.127,-4.1834,-4.1901,-4.1976,-4.2034,-4.2034,-4.2063,-4.2208,-4.276,-4.3021,-4.3137,-4.3805,-4.4066,0.0,0.0,0.0,0.0,0.0,0.0,0.0,0.0,0.0,0.0,0.0,0.0,0.0,0.0,0.0,0.0,0.0,-5.5358,-5.7623,-5.7681,-5.591,-5.3849,-5.263,-5.0481,0.0,-4.7956,-4.784,-4.8014,-4.8566,-4.8692,-4.9001,-4.9582,-4.9814,0.0,0.0,0.0,0.0,0.0,0.0,0.0,0.0,-8.1477,-8.3818,-8.4763,-8.5525,-8.6423,-8.7443,-8.8761,-8.915,-8.8391,-8.9624,-8.9655,-8.8296,-8.7633,-8.7317,-8.7222,-8.5926,-8.5642,-8.6274,-8.6274,-8.5958,-8.5421,-8.6021,-8.5579,-8.4473,-8.5105,-8.5357,-8.5263,-8.4729,-8.567,-8.7261,-8.663,-8.6781,-8.7664,0.0,0.0,0.0,0.0,0.0,0.0,0.0,0.0,0.0,0.0,-4.1588,-4.1588,-4.1588,-4.1588,-4.1588,0.0,0.0,0.0,0.0,0.0,0.0,0.0,-4.013,-4.006,-3.9889,-3.9062,-3.9392,-4.1002,-4.0061,-4.0226,-4.1277,-4.0808,-4.0844,-4.1337,-4.1337,-4.1889,-4.2789,-4.2934,-4.3282,-4.3805,-4.4414,-4.4676,0.0,0.0,0.0,0.0,-4.5663,-4.6069,0.0,0.0,0.0,0.0,0.0,0.0,0.0,0.0,-4.7898,-4.8711,-4.9611,0.0,-5.1091,-5.1585,-5.1265,-5.0743,0.0,-4.9524,-4.8682,-4.8537,0.0,0.0,-4.8072,-4.8827,-4.9524,-4.964,0.0,-5.3094,0.0,0.0,0.0,0.0,0.0,0.0,0.0,-8.3201,-8.5019,-8.4249,-8.6579,-8.747,-8.6184,-8.8227,-8.8928,-8.7696,-8.798,-8.7728,-8.6874,-8.6685,-8.6337,-8.58,-8.5484,-8.5389,-8.5547,-8.5547,-8.5768,-8.6084,-8.5737,-8.5673,-8.5895,-8.6053,-8.58,-8.5425,-8.6344,-8.6611,-8.6621,-8.6921,-8.7496,-8.8191,0.0,0.0,0.0,0.0,0.0,0.0,0.0,0.0,0.0,0.0,-4.1588,-4.1588,-4.1588,-4.1588,-4.1588,0.0,0.0,0.0,0.0,0.0,0.0,-3.9565,-3.9529,-3.9421,-3.9133,-3.8831,-3.9284,-4.0558,-4.0246,-4.0583,-4.1541,-4.1192,-4.1221,-4.1541,-4.1541,-4.2092,-4.3021,-4.3311,-4.3805,-4.4472,-4.5082,0.0,0.0,0.0,0.0,0.0,-4.6214,-4.6534,0.0,-4.7445,-4.7927,-4.8217,0.0,0.0,0.0,0.0,-4.8217,-4.8663,-4.8663,-4.8943,-4.9233,-4.9582,-4.9717,-4.9717,-4.9717,0.0,0.0,0.0,0.0,0.0,0.0,0.0,0.0,0.0,-5.1556,0.0,0.0,0.0,0.0,0.0,0.0,0.0,0.0,-8.4228,-8.5418,-8.5229,-8.6502,-8.6897,-8.6033,-8.7354,-8.757,-8.6463,-8.6432,-8.6432,-8.6437,-8.5737,-8.5389,-8.5294,-8.4662,-8.4504,-8.482,-8.482,-8.5041,-8.5389,-8.5326,-8.5357,-8.5421,-8.5421,-8.518,-8.4812,-8.5302,-8.576,-8.6241,-8.6328,-8.679,-8.7408,0.0,0.0,0.0,0.0,0.0,0.0,0.0,0.0,0.0,0.0,0.0,0.0,0.0,0.0,0.0,0.0,0.0,0.0,0.0,0.0,-3.9457,-3.898,-3.9053,-3.8856,-3.8347,-3.8899,-3.9538,-4.0263,-4.0728,-4.1279,-4.1947,-4.1947,-4.2005,-4.2092,-4.2092,-4.2498,-4.3195,-4.3747,-4.4385,-4.5082,-4.5663,0.0,0.0,0.0,0.0,0.0,0.0,0.0,0.0,-4.8333,-4.8798,-4.8856,-4.8856,0.0,0.0,0.0,0.0,0.0,-4.8856,-4.9349,-4.9814,-4.9746,-4.9717,-4.9746,-4.9814,0.0,0.0,0.0,0.0,0.0,0.0,0.0,0.0,0.0,0.0,0.0,0.0,0.0,0.0,0.0,0.0,0.0,-8.4295,-8.4894,-8.5536,-8.638,-8.6111,-8.5994,-8.6242,-8.6211,-8.5895,-8.5168,-8.5168,-8.5389,-8.5895,-8.4725,-8.4346,-8.482,-8.3651,-8.3335,-8.3809,-8.3904,-8.3967,-8.3999,-8.4473,-8.4476,-8.4166,-8.4166,-8.4051,-8.4027,-8.3641,-8.449,-8.5804,-8.5363,-8.5525,-8.6097,0.0,0.0,0.0,0.0,0.0,0.0,0.0,0.0,0.0,0.0,0.0,0.0,0.0,0.0,0.0,0.0,0.0,0.0,0.0,-3.873,-3.8427,-3.8352,-3.8833,-3.9062,-3.9044,-3.916,-3.977,-4.0931,-4.0466,-4.0583,-4.125,-4.125,-4.1541,-4.2092,-4.2092,-4.2731,-4.3834,-4.395,-4.4676,-4.575,-4.5837,0.0,0.0,0.0,0.0,0.0,0.0,0.0,0.0,-4.8478,-4.9088,-4.9524,-4.9524,0.0,0.0,0.0,0.0,0.0,-4.9524,-5.0017,-5.0394,-4.9814,-4.9717,-4.9863,-5.0394,0.0,0.0,0.0,0.0,0.0,0.0,0.0,0.0,0.0,0.0,0.0,0.0,0.0,0.0,0.0,0.0,0.0,-8.2564,-8.5299,-8.6771,-8.5771,-8.6573,-8.6604,-8.5547,-8.5484,-8.5168,-8.4473,-8.4441,-8.422,-8.3714,-8.3493,-8.3145,-8.2671,-8.245,-8.2102,-8.1692,-8.226,-8.2513,-8.2482,-8.2039,-8.2427,-8.3355,-8.3355,-8.3289,-8.3363,-8.4435,-8.4669,-8.4484,-8.4951,-8.521,-8.5302,0.0,0.0,0.0,0.0,0.0,0.0,0.0,0.0,0.0,0.0,0.0,0.0,0.0,0.0,0.0,0.0,0.0,0.0,-3.9126,-3.8538,-3.8376,-3.8725,-3.8668,-3.8785,-3.9189,-3.9189,-4.0002,-4.1628,-4.096,-4.1134,-4.2121,-4.1773,-4.1802,-4.2092,-4.2092,-4.2789,-4.3979,-4.3979,-4.4734,-4.5895,0.0,0.0,0.0,0.0,0.0,0.0,0.0,0.0,0.0,0.0,-4.9436,-4.9717,-4.9717,0.0,0.0,0.0,0.0,0.0,-4.9717,-4.9901,-5.0162,-5.024,-5.0481,-5.0801,-5.112,-5.0917,0.0,0.0,0.0,0.0,0.0,0.0,0.0,0.0,0.0,0.0,0.0,0.0,0.0,0.0,0.0,-8.3235,-8.3818,-8.5375,-8.6072,-8.5415,-8.5899,-8.5673,-8.4251,-8.4188,-8.3872,-8.3177,-8.3145,-8.2987,-8.2671,-8.2671,-8.2513,-8.2197,-8.1818,-8.1502,-8.1218,-8.1502,-8.1854,-8.2111,-8.1825,-8.2205,-8.3121,-8.3121,-8.3072,-8.3123,-8.3721,-8.4012,-8.4068,-8.4391,-8.4506,-8.4473,0.0,0.0,0.0,0.0,0.0,0.0,0.0,0.0,0.0,0.0,0.0,0.0,0.0,0.0,0.0,0.0,0.0,-3.9493,-3.8907,-3.8464,-3.8434,-3.8957,-3.8609,-3.8812,-3.9625,-3.9654,-4.0525,-4.2295,-4.1802,-4.1976,-4.276,-4.2324,-4.2092,-4.2121,-4.2237,-4.2934,-4.4008,-4.4124,-4.485,-4.5895,0.0,0.0,0.0,0.0,0.0,0.0,0.0,0.0,0.0,0.0,0.0,0.0,0.0,0.0,0.0,-4.9717,-4.9717,-4.9717,-4.9717,-4.9785,-5.0075,-5.0743,-5.1149,-5.1556,-5.2165,-5.1933,0.0,0.0,0.0,0.0,0.0,0.0,0.0,0.0,0.0,0.0,0.0,-7.2599,-7.462,-7.9886,-8.1114,-8.2603,-8.5236,-8.5221,-8.501,-8.4852,-8.4662,-8.403,-8.2829,-8.2766,-8.2418,-8.1723,-8.2008,-8.1944,-8.147,-8.1786,-8.1881,-8.1692,-8.1186,-8.0933,-8.0933,-8.0967,-8.1189,-8.1597,-8.1591,-8.1862,-8.2307,-8.2307,-8.2399,-8.2469,-8.2469,-8.2856,-8.3513,-8.3678,-8.3745,-8.3645,0.0,0.0,0.0,0.0,0.0,0.0,0.0,0.0,0.0,0.0,0.0,0.0,0.0,0.0,0.0,0.0,-3.9457,-3.8907,-3.8315,-3.824,-3.8231,-3.826,-3.8812,-3.9712,-4.0931,-4.096,-4.1599,-4.2934,-4.2876,-4.2615,-4.215,-4.2121,-4.2092,-4.2121,-4.2673,-4.3311,-4.4037,-4.4589,-4.5227,-4.5895,-4.5895,0.0,0.0,0.0,0.0,0.0,0.0,0.0,0.0,0.0,0.0,0.0,0.0,0.0,-4.9717,-4.9717,-4.9717,-4.9717,-4.9717,-5.0133,-5.0743,-5.1381,-5.1149,-5.1381,-5.3762,-5.4284,0.0,-5.652,0.0,0.0,0.0,0.0,0.0,0.0,0.0,0.0,0.0,0.0,-7.9826,-8.2148,-8.3354,-8.4406,-8.5222,-8.4721,-8.4093,-8.343,-8.2766,-8.2102,-8.1376,-8.1344,-8.0996,-8.0269,-8.1502,-8.1281,-7.9353,-8.0617,-8.0933,-8.0238,-8.0206,-8.0175,-8.0143,-8.0105,-8.0094,-8.0155,-8.0086,-8.0055,-8.0043,-8.0043,-8.0349,-8.0874,-8.0874,-8.1271,-8.2022,-8.2718,-8.2983,-8.2983,0.0,0.0,0.0,0.0,0.0,0.0,0.0,0.0,0.0,0.0,0.0,-4.1489,-4.1122,0.0,0.0,0.0,-3.9199,-3.8833,-3.824,-3.8202,-3.8405,-3.8812,-3.8667,-3.9363,-4.1047,-4.1105,-4.1715,-4.2992,-4.2992,-4.2469,-4.1482,-4.1889,-4.2092,-4.2121,-4.2731,-4.3573,-4.456,-4.4792,-4.5285,-4.5924,-4.633,-4.6388,0.0,0.0,0.0,0.0,0.0,0.0,0.0,0.0,-4.9717,-4.9717,-4.9717,-4.9717,-4.9717,-4.9717,-4.9717,-4.9717,-4.9717,-5.0211,-5.0917,-5.1962,-5.202,0.0,0.0,-5.6138,-5.6917,-5.7959,-5.8862,0.0,0.0,0.0,0.0,0.0,0.0,0.0,0.0,0.0,-7.9922,-8.2669,-8.2608,-8.2836,-8.3893,-8.3028,-8.226,-8.1976,-8.1602,-8.0967,-7.9922,-8.0237,-7.9919,-7.8816,-7.9764,-7.9669,-7.8437,-7.9416,-7.951,-7.8767,-7.9627,-7.9595,-7.8767,-7.9561,-7.9909,-7.9866,-7.9838,-8.0034,-8.0365,-8.0365,-8.0531,-8.0697,-8.0697,-8.1128,-8.1823,-8.2121,-8.2221,-8.2221,0.0,0.0,0.0,0.0,0.0,0.0,0.0,0.0,-4.1588,0.0,0.0,0.0,0.0,-4.0646,0.0,0.0,-3.8907,-3.8649,-3.824,-3.8202,-3.8405,-3.887,-3.8638,-3.9131,-4.0466,-4.0699,-4.1512,-4.2992,-4.2789,-4.215,-4.1105,-4.1773,-4.1976,-4.1831,-4.305,-4.3979,-4.4618,-4.5024,-4.5459,-4.5924,-4.6592,-4.6679,0.0,0.0,0.0,0.0,0.0,0.0,0.0,0.0,-4.9717,-4.9717,-4.9717,-4.9717,-4.9717,-4.9717,-4.9717,-4.9776,-4.9979,-5.0336,-5.1075,-5.261,0.0,0.0,-5.7462,-5.8466,-5.921,-6.0588,-6.174,-6.2656,-6.3188,0.0,0.0,0.0,0.0,0.0,0.0,-7.9066,-7.9977,-8.2557,-8.1443,-8.1157,-8.2684,-8.1221,-8.0365,-8.0808,-8.0326,-7.9654,-7.8778,-7.9083,-7.886,-7.771,-7.8405,-7.8372,-7.7667,-7.8588,-7.8544,-7.7537,-7.9129,-7.9419,-7.8533,-7.9212,-7.9602,-7.9772,-7.9711,-7.9815,-8.0001,-8.0001,-8.0001,-8.0034,-8.0266,-8.0664,-8.1128,-8.1359,-8.1459,-8.1459,0.0,0.0,0.0,0.0,0.0,0.0,0.0,0.0,-4.1588,-4.1588,-4.1588,0.0,0.0,0.0,0.0,0.0,-3.8538,-3.8202,-3.8202,-3.8202,-3.8202,-3.8202,-3.8841,-3.9189,-3.9189,-3.9799,-4.1047,-4.2963,-4.2382,-4.1744,-4.1105,-4.1773,-4.1744,-4.1221,-4.3747,-4.456,-4.4095,-4.5343,-4.5895,-4.5953,-4.6592,-4.723,-4.784,0.0,0.0,0.0,0.0,0.0,0.0,0.0,-4.9717,-4.9717,-4.9717,-4.9717,-4.9717,-4.9717,-4.9717,-4.9814,-5.0481,-5.0685,-5.1204,0.0,0.0,0.0,-6.0977,-6.1378,-6.1774,-6.4993,-6.5444,-6.5046,-6.4209,-6.6603,0.0,-6.9428,-7.4265,-7.8247,-7.8974,-7.9669,-8.0587,-8.1917,-8.03,-7.9857,-8.1854,-7.9602,-7.8526,-7.9902,-7.8715,-7.7915,-7.7915,-7.7915,-7.7617,-7.7012,-7.7646,-7.7636,-7.6859,-7.8175,-7.8147,-7.6742,-7.877,-7.9757,-7.9736,-7.9064,-7.9084,-7.9706,-7.9628,-7.9206,-7.8511,-7.8511,-7.8511,-7.861,-7.9339,-7.9549,-7.9703,-8.0432,-8.0664,-8.0664,0.0,0.0,0.0,0.0,0.0,0.0,0.0,0.0,-4.1588,-4.1588,-4.1256,0.0,0.0,0.0,0.0,0.0,0.0,0.0,-3.8202,-3.8202,-3.8202,-3.8202,-3.8405,-3.8725,-3.9189,-3.9799,-4.0612,-4.1657,-4.1947,-4.1744,-4.1105,-4.1773,-4.2208,-4.2469,-4.3718,-4.4647,-4.5343,-4.5721,-4.6156,-4.6592,-4.723,-4.7608,-4.7898,0.0,0.0,0.0,0.0,0.0,0.0,0.0,0.0,0.0,-4.9717,-4.9717,-4.9717,-4.9717,-5.0017,-5.0473,-5.0676,-5.1323,0.0,0.0,0.0,0.0,0.0,-6.4412,0.0,0.0,-6.9927,-6.9646,-6.892,0.0,0.0,-7.1143,-7.4183,-7.6667,-7.6888,-7.7488,-7.8209,-7.9071,-7.8266,-7.8202,-7.9704,-7.8679,-7.8271,-7.9059,-7.8719,-7.8315,-7.7822,-7.8225,-7.7941,-7.6792,-7.7467,-7.7294,-7.6015,-7.6378,-7.6589,-7.655,-7.6649,-7.7238,-7.828,-7.8991,-7.9166,-7.8869,-7.8833,-7.8709,-7.8511,-7.8511,-7.8511,-7.8544,-7.8776,-7.9173,-7.9637,-7.9869,-7.9935,-7.9935,0.0,0.0,0.0,0.0,0.0,0.0,-4.1588,-4.1588,-4.1588,-4.1588,-4.1122,-4.0578,0.0,0.0,0.0,0.0,0.0,0.0,-3.8202,-3.8202,-3.8202,-3.8202,-3.8202,-3.8522,-3.9189,-4.006,-4.0699,-4.1105,-4.1221,-4.1366,-4.1512,-4.2411,-4.2905,-4.305,-4.4472,-4.5256,-4.5518,-4.5779,-4.6243,-4.6836,-4.7521,-4.7927,-4.8275,0.0,0.0,0.0,0.0,0.0,0.0,0.0,0.0,0.0,-4.9717,-4.9717,-4.9717,-4.9717,-5.0162,-5.0714,-5.0975,0.0,0.0,0.0,0.0,-6.1727,-6.6786,0.0,0.0,0.0,0.0,-7.1768,-7.161,-7.2053,0.0,-7.2243,-7.4328,-7.6003,-7.6003,-7.6572,-7.7316,-7.8212,-7.7481,-7.7568,-7.9087,-7.8164,-7.7764,-7.8665,-7.8206,-7.7804,-7.7706,-7.752,-7.7072,-7.6297,-7.6403,-7.6159,-7.5559,-7.5526,-7.5799,-7.6424,-7.5964,-7.6227,-7.7115,-7.825,-7.8511,-7.808,-7.808,-7.8246,-7.8511,-7.8511,-7.8511,-7.8511,-7.8511,-7.8776,-7.9173,-7.9173,-7.9173,-7.9173,0.0,0.0,-4.1588,-4.1588,0.0,0.0,-4.1588,-4.1555,-4.1522,-4.1522,-4.1021,-4.0439,0.0,0.0,0.0,-3.824,-3.8202,-3.8202,-3.8202,-3.8202,-3.8202,-3.8202,-3.826,-3.8609,-3.9276,-4.0408,-4.1047,-4.1105,-4.0554,-4.0931,-4.2208,-4.3369,-4.3631,-4.3253,-4.5605,-4.604,-4.5024,-4.5692,-4.633,-4.6969,-4.7608,-4.8246,-4.8885,-4.9465,0.0,0.0,0.0,0.0,0.0,0.0,0.0,0.0,-4.9805,-4.9776,-4.9698,-4.9814,-5.0278,-5.0967,-5.1715,0.0,0.0,0.0,0.0,0.0,0.0,0.0,0.0,-7.4403,0.0,-7.2369,-7.2906,-7.2495,-7.2306,-7.2906,-7.4613,-7.5908,-7.5908,-7.6414,-7.7277,-7.8461,-7.7531,-7.7513,-7.9331,-7.7827,-7.725,-7.8396,-7.7304,-7.6845,-7.7435,-7.6189,-7.5527,-7.5631,-7.5015,-7.4898,-7.537,-7.537,-7.5668,-7.6225,-7.6159,-7.6192,-7.6324,-7.702,-7.7351,-7.7417,-7.7417,-7.7848,-7.8511,-7.8511,-7.8511,-7.8511,-7.8511,-7.8511,-7.8511,-7.8511,-7.8511,-7.8511,0.0,0.0,-4.1588,-4.1588,0.0,0.0,-4.1588,-4.1256,-4.0953,-4.0953,-4.0091,-3.9415,-3.9307,-3.876,0.0,-3.8202,-3.8202,-3.8202,-3.8202,-3.8202,-3.8202,-3.8202,-3.8696,-3.9276,-3.9886,-4.0176,-4.0583,-4.1105,-4.1482,-4.2063,-4.2789,-4.3079,-4.366,-4.4501,-4.5053,-4.543,-4.5721,-4.6359,-4.6998,-4.7637,-4.8275,-4.8914,-4.9494,-4.964,-4.9717,0.0,0.0,0.0,0.0,0.0,0.0,0.0,-5.0452,-5.0104,-4.9872,-5.0888,-5.1294,-5.1795,-5.3617,-5.5248,0.0,0.0,0.0,0.0,0.0,0.0,0.0,0.0,0.0,-7.496,-7.4518,-7.4328,-7.4265,-7.4423,-7.4834,-7.5118,-7.5118,-7.5245,-7.5637,-7.64,-7.6181,-7.6328,-7.714,-7.7336,-7.7238,-7.6822,-7.704,-7.7007,-7.6578,-7.6247,-7.6096,-7.6156,-7.6024,-7.5713,-7.5341,-7.5341,-7.5393,-7.5496,-7.49,-7.5231,-7.6324,-7.6457,-7.6854,-7.7417,-7.7417,-7.7848,-7.8511,-7.8511,-7.8511,-7.8511,-7.8511,-7.8511,-7.8511,-7.8511,-7.8511,-7.8511,0.0,0.0,0.0,0.0,0.0,0.0,0.0,0.0,-4.0783,-4.0783,-3.9809,-3.909,-3.909,-3.8575,0.0,0.0,-3.8202,-3.8202,-3.8202,-3.8202,-3.8347,-3.8667,-3.9305,-3.9915,-4.0554,-4.0873,-4.1221,-4.157,-4.2208,-4.2673,-4.3021,-4.424,-4.5024,-4.5401,-4.6011,-4.6301,-4.633,-4.6359,-4.6911,-4.7811,-4.813,-4.8827,-4.9717,-4.9717,-4.9717,-4.9717,-4.9717,0.0,0.0,0.0,0.0,0.0,0.0,0.0,-5.0842,-5.1833,-5.2423,-5.2956,0.0,0.0,0.0,0.0,0.0,0.0,0.0,0.0,0.0,0.0,0.0,0.0,-7.496,-7.4897,-7.4897,-7.4897,-7.4897,-7.4897,-7.4897,-7.4613,-7.4744,-7.5578,-7.5402,-7.5552,-7.6305,-7.6741,-7.6802,-7.6305,-7.6357,-7.6357,-7.6324,-7.5662,-7.5463,-7.5794,-7.5132,-7.4602,-7.4237,-7.4237,-7.4072,-7.3707,-7.4038,-7.4568,-7.5297,-7.5662,-7.6225,-7.6854,-7.6523,-7.6788,-7.7484,-7.7848,-7.798,-7.8014,-7.8378,-7.8511,-7.8511,-7.8511,-7.8511,-7.8511,0.0,0.0,0.0,0.0,0.0,0.0,0.0,0.0,0.0,-4.0509,-3.9595,-3.8943,-3.8943,-3.8501,-3.8202,0.0,0.0,0.0,-3.8202,-3.8318,-3.8725,-3.9479,-4.0002,-4.0583,-4.125,-4.1802,-4.215,-4.2266,-4.2876,-4.334,-4.3689,-4.5605,-4.633,-4.6098,-4.7143,-4.7317,-4.6749,-4.6505,-4.6911,-4.7811,-4.8014,-4.874,-4.9717,-4.9717,-4.9717,-4.9717,-4.9717,-5.0104,-5.0734,-5.0734,0.0,0.0,0.0,0.0,-5.1996,-5.2872,-5.3556,-5.4192,0.0,0.0,0.0,0.0,0.0,0.0,0.0,0.0,0.0,0.0,0.0,0.0,0.0,-7.4802,-7.4707,-7.4707,-7.4613,-7.4518,-7.4518,-7.4075,-7.4161,-7.5288,-7.4937,-7.5038,-7.6055,-7.6225,-7.6192,-7.596,-7.5397,-7.5297,-7.5728,-7.4502,-7.4072,-7.4701,-7.3541,-7.2912,-7.2912,-7.2912,-7.2614,-7.2018,-7.321,-7.3873,-7.4005,-7.4635,-7.5363,-7.6092,-7.5529,-7.5662,-7.6357,-7.6987,-7.7219,-7.7285,-7.7914,-7.8212,-7.8345,-7.8345,-7.8411,-7.8511,0.0,0.0,0.0,0.0,0.0,0.0,0.0,0.0,0.0,0.0,-3.8723,-3.8315,-3.8315,-3.824,-3.8202,-3.8202,-3.8202,-3.8202,-3.8202,0.0,0.0,-4.0786,-4.0931,-4.1279,-4.1947,-4.2063,-4.2353,-4.2876,-4.3544,-4.4705,-4.6256,-4.5518,-4.5692,-4.6662,-4.6836,-4.6865,-4.6865,-4.788,-4.813,-4.7869,-4.8972,-4.9572,-4.9717,-4.9717,-4.9717,-4.9717,-4.9717,-5.0104,-5.0734,-5.0734,-5.1091,0.0,0.0,0.0,-5.2892,-5.409,-5.459,-5.5177,0.0,0.0,0.0,0.0,0.0,0.0,0.0,0.0,0.0,0.0,0.0,0.0,0.0,0.0,-7.4044,-7.4044,-7.3507,-7.3096,-7.3096,-7.3001,-7.3397,-7.4577,-7.4646,-7.4843,-7.536,-7.596,-7.5794,-7.4535,-7.442,-7.4105,-7.3575,-7.2746,-7.2349,-7.2448,-7.225,-7.215,-7.215,-7.215,-7.2117,-7.2018,-7.2216,-7.2647,-7.3243,-7.3343,-7.4138,-7.5397,-7.533,-7.5662,-7.6324,-7.6424,-7.6457,-7.6457,-7.6556,-7.6987,-7.755,-7.755,-7.798,-7.8511,0.0,0.0,0.0,0.0,0.0,0.0,0.0,0.0,0.0,0.0,0.0,-3.8202,-3.8202,-3.8202,-3.8202,-3.8202,-3.8551,-3.8899,-3.9247,-3.9538,-4.0118,-4.1047,-4.1105,-4.1395,-4.2092,-4.2092,-4.2382,-4.2992,-4.366,-4.4966,-4.6778,-4.6969,-4.7724,-4.8972,-4.8624,-4.8449,-4.8391,-4.7869,-4.7898,-4.8333,-4.8537,-4.903,-4.9717,-4.9717,-4.9717,-4.9717,-4.9717,-5.0652,-5.1876,-5.1876,-5.2523,-5.3457,-5.4209,0.0,0.0,0.0,-5.6066,0.0,0.0,0.0,0.0,0.0,0.0,0.0,0.0,0.0,0.0,0.0,0.0,0.0,0.0,0.0,0.0,-7.3285,-7.3001,-7.2811,-7.2811,-7.2495,-7.2666,-7.3802,-7.3642,-7.3767,-7.4566,-7.4568,-7.427,-7.3608,-7.3177,-7.2813,-7.2515,-7.2183,-7.2018,-7.2018,-7.1587,-7.1388,-7.1388,-7.1388,-7.1587,-7.2018,-7.1587,-7.1786,-7.2515,-7.2912,-7.3674,-7.4668,-7.4668,-7.4833,-7.5165,-7.5562,-7.5728,-7.5761,-7.6159,-7.6755,-7.7417,-7.7417,-7.7881,-7.8511,0.0,0.0,0.0,0.0,0.0,0.0,0.0,0.0,0.0,0.0,0.0,0.0,-3.8202,0.0,0.0,0.0,-3.8812,-3.9538,-4.0292,-4.035,-4.0641,-4.1308,-4.1337,-4.1599,-4.2092,-4.2092,-4.2469,-4.3253,-4.3747,-4.5198,-4.7579,-4.8537,-4.993,-5.1614,-5.0801,-5.0336,-5.0124,-4.8843,-4.8851,-4.9668,-4.9087,-4.9416,-5.0268,-5.0268,-5.0268,-5.0298,-5.0474,-5.1509,-5.2886,-5.3215,-5.3992,-5.488,-5.5659,-5.562,0.0,0.0,0.0,0.0,0.0,0.0,0.0,0.0,0.0,0.0,0.0,0.0,0.0,0.0,0.0,0.0,0.0,0.0,0.0,0.0,0.0,-7.2021,-7.2021,-7.1421,-7.1458,-7.2542,-7.2249,-7.2398,-7.3507,-7.3144,-7.2813,-7.2813,-7.215,-7.172,-7.172,-7.1554,-7.1455,-7.1455,-7.0891,-7.0626,-7.0626,-7.0626,-7.0891,-7.1421,-7.0891,-7.1024,-7.1753,-7.2481,-7.3111,-7.3641,-7.4056,-7.4221,-7.4255,-7.4767,-7.505,-7.5032,-7.5562,-7.6225,-7.6887,-7.6887,-7.745,-7.8246,0.0,0.0,0.0,0.0,0.0,0.0,0.0,0.0,0.0,0.0,0.0,-3.8202,-3.8202,-3.8202,-3.8202,-3.8202,-3.8812,-3.9741,-4.096,-4.1047,-4.1337,-4.2005,-4.2034,0.0,-4.2092,-4.2092,-4.2702,-4.395,-4.3979,-4.5895,-4.9524,-4.964,-5.1323,-5.4255,-5.2978,-5.2078,-5.1548,-5.2151,-5.2417,-5.2437,-5.1887,-5.1728,-5.1789,-5.1789,-5.1789,-5.188,-5.2516,-5.2789,-5.3078,-5.4352,-5.4807,-5.4989,-5.5705,-5.6409,-5.6988,0.0,0.0,0.0,0.0,0.0,0.0,0.0,0.0,0.0,0.0,0.0,0.0,0.0,0.0,0.0,0.0,0.0,0.0,0.0,0.0,0.0,-6.9841,-6.9272,-6.9263,-7.0364,-7.0436,-7.0899,-7.2019,-7.2084,-7.2051,-7.2051,-7.1355,-7.0958,-7.0958,-7.0295,-6.9898,-6.9898,-6.9864,-6.9864,-6.9864,-6.9864,-6.9864,-6.9898,-6.9864,-7.0229,-7.0991,-7.172,-7.2084,-7.2183,-7.3575,-7.4221,-7.4221,-7.4255,-7.4288,-7.4288,-7.4321,-7.4734,-7.5397,-7.5397,-7.6258,-7.7484,0.0,0.0,0.0,0.0,0.0,0.0,0.0,0.0,0.0,0.0,0.0,0.0,0.0,-3.8202,-3.8376,-3.8812,-3.9799,-4.0786,-4.1686,-4.1744,-4.1831,-4.2092,-4.2469,-4.2673,-4.2673,-4.2673,-4.3282,-4.456,-4.4182,-4.5518,-4.8526,-4.9756,-5.1149,-5.263,-5.2645,-5.2986,-5.3529,-5.2127,-5.2038,-5.2748,-5.1698,-5.1516,-5.188,-5.188,-5.2154,-5.2548,-5.2791,-5.3757,-5.5054,-5.5516,-5.593,-5.655,-5.771,-5.7959,-5.7831,-5.8341,-5.8751,0.0,0.0,0.0,0.0,0.0,0.0,0.0,0.0,0.0,0.0,0.0,0.0,0.0,0.0,0.0,0.0,0.0,0.0,0.0,-6.9051,-6.8829,-6.9104,-7.0202,-7.0306,-7.0768,-7.1886,-7.1587,-7.1289,-7.1289,-7.0593,-7.0196,-7.0196,-6.9931,-6.9798,-6.9798,-6.9798,-6.9798,-6.9798,-6.9798,-6.9798,-6.9798,-6.9798,-6.9931,-7.0229,-7.0958,-7.1289,-7.1355,-7.2349,-7.3045,-7.3508,-7.3972,-7.4221,-7.4221,-7.4221,-7.4635,-7.5264,-7.5264,-7.6192,-7.7417,0.0,0.0,0.0,0.0,0.0,-3.8649,-3.8277,-3.8202,-3.8202,-3.8202,0.0,0.0,0.0,0.0,-3.8899,-3.977,-4.0612,-4.1366,-4.2063,-4.2092,-4.2092,-4.2092,-4.2673,-4.2992,-4.2992,-4.3224,-4.3834,-4.4879,-4.4472,-4.5488,-4.7811,-4.9088,-5.0513,-5.1959,-5.2278,-5.3684,-5.5619,-5.3988,-5.3926,-5.4782,-5.3284,-5.3082,-5.3729,-5.3944,-5.4314,-5.4745,-5.4961,-5.5814,-5.6825,-5.6825,-5.7137,-5.7715,-5.8924,-5.9112,-5.8933,-5.9491,-5.9475,0.0,-5.9854,0.0,0.0,0.0,0.0,0.0,0.0,0.0,0.0,0.0,0.0,0.0,0.0,0.0,0.0,0.0,0.0,0.0,0.0,-6.8134,-6.8405,-6.9491,-6.9594,-7.0001,-7.1158,-7.0825,-7.0527,-7.0527,-7.0063,0.0,-6.9798,-6.9798,-6.9798,-6.9798,-6.9798,-6.9798,-6.9798,-6.9798,-6.9798,-6.9798,-6.9798,-6.9798,-6.9831,-7.056,-7.0759,-7.0593,-7.1587,-7.2283,-7.2813,-7.3508,-7.3807,-7.384,-7.4072,-7.452,-7.49,-7.49,-7.5662,-7.6722,0.0,0.0,-3.8202,-3.8202,-3.8202,-3.8202,-3.8202,-3.8202,-3.8202,-3.8202,0.0,0.0,0.0,0.0,0.0,-4.096,-4.1076,-4.1366,-4.2063,-4.2092,-4.2092,-4.2092,-4.2702,-4.3021,-4.3021,-4.3689,-4.4298,-4.4908,-4.4908,-4.5866,-4.7724,-4.78,-4.952,-5.2605,-5.2162,-5.4104,-5.766,-5.7848,-5.8337,-5.8851,-5.6944,-5.6599,-5.7358,-5.799,-5.8321,-5.8447,-5.9096,-5.8938,-5.8447,-5.8415,-5.8415,-5.8464,-5.9128,-5.9791,-6.0329,-6.0329,-5.9886,-5.9349,0.0,0.0,0.0,0.0,0.0,0.0,0.0,0.0,0.0,0.0,0.0,0.0,0.0,0.0,0.0,0.0,0.0,0.0,0.0,-6.6997,-6.7005,-6.805,-6.8201,-6.86,-6.9703,-6.9798,-6.9798,-6.9798,-6.9798,-6.9798,-6.9798,-6.9798,-6.9765,-6.9732,-6.9765,-6.9765,-6.9732,-6.9765,-6.9765,-6.9765,-6.9765,-6.9765,-6.9831,-7.0527,-7.0461,-6.9864,-7.1322,-7.1951,-7.1985,-7.2746,-7.3078,-7.3177,-7.3873,-7.4188,-7.4221,-7.4221,-7.4686,-7.5363,0.0,-3.8202,-3.8202,-3.8202,-3.8202,-3.8202,-3.8202,-3.8202,-3.8202,0.0,0.0,0.0,-3.8928,-3.9479,-4.0002,-4.035,-4.0815,-4.1366,-4.2063,-4.2092,-4.2092,-4.2092,-4.3137,-4.3718,-4.3718,-4.4327,-4.4966,-4.5605,-4.5111,-4.5401,-4.6492,-4.79,-4.9284,-5.0721,-5.3085,-5.5005,-5.6427,-5.5547,-5.6709,-5.8986,-5.6447,-5.6757,-5.8654,-5.7832,-5.8432,-5.976,-5.9949,-6.055,-6.1213,-6.0708,-6.017,-5.976,-5.9949,-6.0518,-6.1087,-6.1087,-6.0961,-6.0613,-5.957,0.0,0.0,0.0,0.0,0.0,-6.0771,-6.2067,0.0,0.0,0.0,0.0,0.0,0.0,0.0,0.0,0.0,0.0,0.0,0.0,-6.6849,-6.7542,-6.7949,-6.8451,-6.914,-6.9574,-6.9798,0.0,-6.9798,-6.9798,-6.9798,-6.9798,-6.9301,-6.8241,-6.9235,-6.9301,-6.8241,-6.8738,-6.9003,-6.9003,-6.9003,-6.9268,-6.9798,-6.9997,-6.9997,-6.9798,-7.0229,-7.0394,-7.0494,-7.1786,-7.2614,-7.3144,-7.331,-7.3707,-7.4221,-7.4221,-7.4686,-7.5297,-3.8202,-3.8202,-3.8202,-3.8202,-3.8202,-3.8202,-3.8202,-3.8202,-3.8202,0.0,0.0,0.0,-3.9538,-4.0147,-4.0525,-4.0525,-4.1134,-4.1686,-4.2063,-4.2092,-4.2092,-4.2092,-4.3311,-4.3979,-4.3979,-4.485,-4.5634,-4.6272,-4.5634,-4.5812,-4.6695,-4.7599,-4.8656,-4.9942,-5.2021,-5.3748,-5.5152,-5.4151,-5.5873,-5.9191,-5.7832,-5.8622,-6.0581,-6.036,-6.1024,-6.2067,-6.2067,-6.2604,-6.3141,-6.2161,-6.134,-6.0645,-6.0076,-6.036,-6.0929,-6.0929,-6.0929,-6.0771,-5.9949,-5.9728,-5.9696,-5.9602,0.0,0.0,-5.9159,-6.0012,-6.0866,0.0,0.0,0.0,0.0,0.0,0.0,0.0,0.0,0.0,0.0,0.0,-6.6796,-6.7368,-6.7848,-6.8271,-6.8519,-6.9313,-6.9666,-6.9334,-6.9334,-6.9202,-6.8904,-6.9169,-6.8804,-6.7632,-6.844,-6.8473,-6.7599,-6.8042,-6.8407,-6.8672,-6.8672,-6.9069,-6.9798,-6.9798,-6.9798,-6.9798,-6.9798,-6.9798,-6.9864,-7.0726,-7.1686,-7.268,-7.2978,-7.3541,-7.4221,-7.4221,-7.4487,-7.4867,0.0,-3.8202,-3.8202,-3.8202,-3.8202,-3.8202,-3.8202,-3.8202,-3.8202,0.0,-3.8841,-3.9538,-4.0147,-4.0728,-4.1105,-4.1105,-4.1628,-4.2005,-4.2092,-4.215,-4.2208,-4.2208,-4.3398,-4.4095,-4.4095,-4.5256,-4.6214,-4.6778,-4.6363,-4.6695,-4.7778,-4.742,-4.82,-4.9905,-5.005,-5.1507,-5.385,-5.3502,-5.5588,-5.9254,-5.9823,-6.1119,-6.2744,-6.4058,-6.4563,-6.4658,-6.4721,-6.4753,-6.4532,-6.3091,-6.2161,-6.1277,-6.0044,-5.9949,-6.0297,-6.0392,-6.036,-6.0265,-6.0202,-6.0234,-6.0423,-6.1024,-5.9286,0.0,-5.8843,-5.8654,-5.859,-5.9728,0.0,0.0,0.0,0.0,0.0,0.0,0.0,0.0,0.0,0.0,0.0,-6.7137,-6.7604,-6.7815,-6.7702,-6.8789,-6.9221,-6.8606,-6.8572,-6.8274,-6.7546,-6.8175,-6.8208,-6.7367,-6.7499,-6.7499,-6.7334,-6.7433,-6.7877,-6.8572,-6.8572,-6.9003,-6.9798,-6.9798,-6.9798,-6.9798,-6.9798,-6.9798,-6.9798,-6.9798,-7.0659,-7.2051,-7.2647,-7.3409,-7.4221,-7.4122,-7.4155,-7.4321,-3.8202,-3.8202,-3.8202,-3.8202,-3.8202,-3.8202,-3.8202,-3.8202,-3.8202,-3.8202,-3.9218,-4.0176,-4.0815,-4.1018,-4.1105,-4.1105,-4.1221,-4.1512,-4.2063,-4.2557,-4.2818,-4.2818,-4.4037,-4.4705,-4.4705,-4.5488,-4.6214,-4.6778,-4.727,-4.76,-4.7822,-4.8913,-4.9273,-4.9161,-5.0285,-5.1389,-5.2523,-5.4071,-5.6189,-5.8542,-5.8622,-6.0866,-6.4152,-6.4405,-6.4879,-6.5448,-6.5985,-6.6207,-6.5985,-6.4595,-6.3268,-6.2193,-6.1909,-6.1119,-6.0423,-6.0992,-6.0771,-6.017,-5.9633,-5.9886,-6.0202,-5.9823,-5.9317,0.0,-5.7832,-5.7958,-5.818,0.0,0.0,0.0,0.0,0.0,0.0,0.0,0.0,0.0,0.0,0.0,0.0,-6.592,-6.5892,-6.6009,-6.642,-6.7081,-6.7556,-6.7797,-6.7844,-6.7512,-6.6784,-6.7446,-6.7214,-6.5889,-6.697,-6.7003,-6.5856,-6.6452,-6.7069,-6.7844,-6.7844,-6.8506,-6.9798,-6.9798,-6.9798,-6.9798,-6.9798,-6.9798,-6.9798,-6.9798,-7.0659,-7.1951,-7.1488,-7.2481,-7.4155,-7.3541,-7.3674,-7.4255,-3.8202,-3.8202,-3.8202,-3.8202,-3.8492,-3.858,-3.826,-3.8492,-3.8696,-3.8696,-4.0089,-4.1105,-4.1105,-4.1657,-4.1773,-4.1163,-4.1395,-4.186,-4.2498,-4.2818,-4.3137,-4.3485,-4.4705,-4.5227,-4.4908,-4.6562,-4.7519,-4.7842,-4.8581,-4.9265,-4.9877,-4.997,-4.9978,-4.9994,-5.0695,-5.1353,-5.2112,-5.3534,-5.5525,-5.7895,-5.9633,-6.2003,-6.4626,-6.5669,-6.627,-6.6681,-6.7376,-6.766,-6.7376,-6.5638,-6.4563,-6.3742,-6.2351,-6.1656,-6.1308,0.0,-6.0834,-6.0613,-5.957,-6.0076,-6.0676,-5.9981,-5.9791,0.0,0.0,-5.8022,-5.8226,0.0,0.0,0.0,0.0,0.0,0.0,0.0,0.0,0.0,0.0,0.0,0.0,-6.5037,-6.523,-6.5247,-6.5141,-6.6207,-6.6968,-6.7036,-6.7367,-6.7148,-6.6022,-6.6639,-6.6506,-6.5459,-6.6154,-6.6154,-6.5425,-6.579,-6.6519,-6.7566,-6.7566,-6.8374,-6.9798,-6.9798,-6.9798,-6.9798,-6.9798,-6.9798,-6.9798,-6.9798,-7.0461,-7.1421,-7.1024,-7.2018,-7.3608,-7.3243,-7.3575,-7.4221,-3.8202,-3.8202,-3.8202,-3.8202,-3.8638,-3.8812,-3.8289,-3.8667,-3.9131,-3.9509,-4.1047,-4.1976,-4.1727,-4.2598,-4.2973,-4.2485,-4.2679,-4.3106,-4.3881,-4.378,-4.3828,-4.4153,-4.5256,-4.5723,-4.5303,-4.7524,-4.8834,-4.9089,-4.994,-5.0967,-5.1971,-5.09,-5.0673,-5.1164,-5.1078,-5.1512,-5.246,-5.306,-5.4988,-5.7895,-6.0834,-6.2857,-6.4342,-6.6428,-6.7186,-6.7313,-6.8166,-6.8482,-6.8229,-6.6523,-6.589,-6.5353,-6.2951,-6.2383,0.0,0.0,0.0,0.0,0.0,0.0,0.0,0.0,-6.0708,-6.036,0.0,0.0,0.0,0.0,0.0,0.0,0.0,0.0,0.0,0.0,0.0,0.0,0.0,0.0,0.0,-6.4089,-6.427,-6.4186,-6.3819,-6.5446,-6.6442,-6.6308,-6.6804,-6.6684,-6.5492,-6.5989,-6.6022,-6.5425,-6.5425,-6.5425,-6.5425,-6.5425,-6.6154,-6.7566,-6.7566,-6.8374,-6.9798,-6.9798,-6.9798,-6.9798,-6.9798,-6.9798,-6.9798,-6.9798,-7.0129,-7.0693,-7.0693,-7.1587,-7.2912,-7.2912,-7.3343,-7.4005,-3.824,-3.8202,-3.8202,-3.8202,-3.826,-3.8289,-3.8202,-3.826,-3.8928,-4.0641,-4.1599,-4.2582,-4.3812,-4.3905,-4.4814,-4.7092,-4.6018,-4.5804,-4.7166,-4.6515,-4.5696,-4.4836,-4.5488,-4.6151,-4.6681,-4.7555,-4.8596,-4.9775,-5.1102,-5.1834,-5.1971,-5.1821,-5.1808,-5.1859,-5.1259,-5.2049,-5.385,-5.3945,-5.5967,-5.9159,-6.0139,-6.1403,-6.2888,-6.5006,-6.5848,-6.5954,-6.7249,-6.7723,-6.7692,-6.7439,-6.6965,-6.6333,0.0,-6.431,-6.3331,-6.3173,0.0,0.0,0.0,0.0,0.0,0.0,-6.2144,-6.1814,-6.0392,0.0,-5.9191,-5.9191,0.0,0.0,0.0,0.0,0.0,0.0,0.0,0.0,0.0,0.0,0.0,-6.2459,-6.1578,-6.1281,-6.2253,-6.3952,-6.5082,-6.5513,-6.5624,-6.5591,-6.5425,-6.5492,-6.5492,-6.5425,-6.5425,-6.5425,-6.5425,-6.5425,-6.6154,-6.7566,-6.7566,-6.8374,-6.9798,-6.9798,-6.9798,-6.9798,-6.9798,-6.9798,-6.9798,-6.9798,-6.9831,-6.9931,-6.9931,-7.0825,-7.2117,-7.2117,-7.2581,-7.331,-3.8389,-3.8352,-3.8315,-3.8202,-3.8812,-3.9044,-3.8318,-3.916,-4.0321,-4.1512,-4.2876,-4.3964,-4.4574,-4.4938,-4.5683,-4.7068,-4.6513,-4.6411,0.0,-4.6671,-4.6181,-4.5504,-4.6098,-4.656,-4.6887,-4.8715,-4.991,-5.0519,-5.2336,-5.3013,-5.2636,-5.2208,-5.2238,-5.2618,-5.1891,-5.2744,-5.4735,-5.5146,-5.6378,-5.818,-5.9286,-6.055,-6.2161,-6.5069,-6.6681,-6.7502,-6.845,-6.8798,-6.8671,-6.7881,-6.7692,-6.7565,0.0,0.0,0.0,-6.431,0.0,0.0,0.0,0.0,0.0,-6.1561,-6.1814,-6.1923,-6.0139,-5.9791,-5.976,-5.938,0.0,0.0,0.0,0.0,0.0,0.0,-5.9949,0.0,0.0,0.0,0.0,0.0,0.0,0.0,-6.1997,-6.3024,-6.3982,-6.491,-6.4895,-6.4995,-6.5392,-6.5425,-6.5425,-6.5425,-6.5425,-6.5425,-6.5425,-6.5425,-6.6154,-6.7566,-6.7566,-6.8374,-6.9798,-6.9798,-6.9798,-6.9798,-6.9798,-6.9798,-6.9798,-6.9798,-7.0049,-7.0389,-7.0389,-7.1292,-7.263,-7.263,-7.3654,-7.5046,-3.8686,-3.8604,-3.8551,-3.8623,-3.9324,-3.9634,-3.8946,-3.9954,-4.1233,-4.2374,-4.3774,-4.4996,-4.5917,-4.6931,0.0,0.0,-4.9455,-4.9396,0.0,-4.8521,-4.7691,-4.6798,-4.6992,-4.7244,-4.7606,-4.96,-5.0777,-5.0996,-5.2912,-5.3566,-5.3092,-5.2365,-5.2491,-5.3376,-5.3028,-5.3871,-5.5734,-5.6663,-5.7548,-5.8432,-5.9254,-6.0645,-6.2541,-6.529,-6.706,-6.8197,-6.8861,-6.9114,-6.8956,-6.7945,-6.7945,-6.8103,-6.6396,-6.6207,-6.6365,0.0,0.0,0.0,-6.2762,-6.3141,-6.3552,-6.1403,-6.1814,-6.2256,-6.055,-6.0676,-6.1024,-6.055,-6.0676,0.0,0.0,0.0,-6.0392,-5.9791,0.0,-6.1277,0.0,0.0,0.0,0.0,0.0,0.0,0.0,-6.2403,-6.3172,-6.4034,-6.4299,-6.4597,-6.5094,-6.5326,-6.5425,-6.5425,-6.5425,-6.5425,-6.5425,-6.5425,-6.6055,-6.7268,-6.7466,-6.8274,-6.95,-6.9699,-6.9798,-6.9798,-6.9798,-6.9907,-7.0096,-7.0096,-7.0482,-7.1086,-7.1086,-7.2,-7.3334,-7.3138,-7.4056,-7.5501,-3.9053,-3.8789,-3.8743,-3.9576,-3.9457,-3.9499,-4.0276,-4.0275,-4.0975,-4.3325,-4.3871,-4.5245,0.0,0.0,0.0,0.0,0.0,-5.6647,-5.5928,0.0,-5.1204,-4.9085,0.0,-4.8366,-4.9407,-4.9822,-5.0351,-5.1006,-5.2428,-5.3123,-5.3092,-5.2365,-5.2744,-5.4103,-5.4735,-5.5765,-5.7231,-5.8622,-6.0012,-6.1213,-6.0518,-6.194,-6.45,-6.529,-6.6048,-6.6775,-6.7439,-6.766,-6.766,-6.7597,-6.7597,-6.7502,-6.6807,-6.6586,-6.6459,-6.5764,0.0,0.0,-6.4816,-6.4942,-6.5006,-6.2888,-6.292,-6.3268,-6.2509,-6.2888,-6.3362,-6.3362,-6.2825,-6.2302,-6.227,-6.1782,-6.1782,-6.311,-6.2225,0.0,0.0,0.0,0.0,0.0,0.0,0.0,0.0,-6.216,-6.275,-6.2671,-6.3705,-6.4399,-6.4399,-6.5061,-6.5425,-6.5425,-6.5425,-6.5425,-6.5425,-6.5425,-6.579,-6.6506,-6.7235,-6.8009,-6.8738,-6.9467,-6.9798,-6.9798,-6.9798,-7.0156,-7.0769,-7.0769,-7.1221,-7.1873,-7.1873,-7.2786,-7.3987,-7.3264,-7.3062,-7.3205,-3.9957,-4.0092,-4.014,-3.9829,-4.0391,-4.1106,-4.1832,-4.188,-4.3323,0.0,-4.8451,0.0,0.0,-5.6513,-5.7777,0.0,0.0,-5.8668,-5.7022,-5.5178,0.0,0.0,0.0,-5.0801,0.0,-5.1463,-5.1454,-5.167,-5.2144,-5.2365,-5.2365,-5.1638,-5.208,-5.3471,-5.4134,-5.5493,0.0,0.0,0.0,0.0,0.0,-6.3394,-6.589,-6.5638,-6.6017,-6.6681,-6.7344,-6.7597,-6.7597,-6.7597,-6.7597,-6.7471,-6.6807,-6.6617,-6.6554,-6.6333,-6.6428,-6.6396,-6.548,-6.5732,-6.5638,-6.3078,-6.2951,-6.3173,-6.2003,-6.2288,-6.2793,-6.2793,-6.2983,-6.2857,-6.1909,-6.194,-6.2067,-6.2098,-6.2098,-6.2003,0.0,0.0,0.0,0.0,0.0,0.0,0.0,0.0,-6.1575,-6.2048,-6.2607,-6.3382,-6.4332,-6.4597,-6.4929,-6.5392,-6.5425,-6.5425,-6.5425,-6.5425,-6.579,-6.6519,-6.7235,-6.8009,-6.8752,-6.9916,-7.0448,-7.0448,-7.0448,-7.086,-7.1488,-7.0996,-7.1532,-7.2559,-7.2559,-7.3192,-7.4066,-7.4341,-7.4738,-7.5138,-4.0337,-4.0823,-4.1097,-4.0774,-4.134,-4.207,-4.2721,-4.3905,0.0,0.0,-5.2352,0.0,-5.9334,0.0,-6.2189,0.0,-6.2991,-6.2,-5.8838,-5.7865,0.0,-5.4736,-5.3883,0.0,0.0,0.0,-5.2986,-5.2263,-5.2827,-5.287,-5.2396,-5.167,-5.1986,-5.3155,-5.4324,-5.5715,-5.739,-5.9949,-6.1213,0.0,0.0,-6.39,-6.548,-6.5258,-6.5922,-6.6997,-6.7155,-6.7249,-6.7249,-6.7249,-6.7249,-6.7155,-6.6744,-6.6617,-6.6554,-6.6301,-6.6396,-6.6396,-6.5448,-6.5701,-6.5701,-6.3394,-6.352,-6.3868,-6.2446,-6.2857,-6.3489,-6.3236,-6.3331,-6.3299,-6.2635,-6.2477,-6.2351,-6.2161,-6.2288,-6.2238,0.0,-6.1371,0.0,0.0,0.0,0.0,0.0,-6.055,-6.0818,-6.1044,-6.1764,-6.2752,-6.3935,-6.4233,-6.4697,-6.5392,-6.5425,-6.5425,-6.5425,-6.5425,-6.579,-6.6519,-6.7235,-6.8148,-6.9123,-7.0251,-7.0951,-7.1176,-7.1176,-7.1576,-7.2219,-7.1718,-7.2228,-7.3264,-7.3264,-7.3582,-7.4071,-7.4573,-7.5085,-7.5458,-4.0307,-4.0995,-4.1722,-4.2351,-4.2315,-4.2367,0.0,0.0,-4.9169,0.0,-5.5328,-5.9205,-6.1759,-6.4562,-6.6307,-6.6323,-6.7904,-6.6784,-6.1848,-6.1706,0.0,0.0,-5.6988,-5.6711,-5.6355,0.0,0.0,0.0,-5.4285,-5.4313,-5.3123,-5.2333,-5.2333,-5.3092,-5.5272,-5.6568,-5.7358,-6.0912,-6.2857,-6.3489,-6.3489,-6.3552,-6.371,-6.4342,-6.5827,-6.7502,-6.6839,-6.6617,-6.6617,-6.6617,-6.6617,-6.6617,-6.6617,-6.6617,-6.6459,-6.5827,-6.608,-6.6301,-6.4974,-6.51,-6.5342,-6.3931,-6.4595,-6.5278,-6.39,-6.4626,-6.5385,-6.4721,-6.4026,-6.371,-6.4342,-6.3362,-6.2667,-6.3331,-6.2857,-6.2396,-6.2396,-6.2396,-6.2396,-6.2396,0.0,0.0,0.0,-6.0518,-6.0352,-5.976,-6.1172,-6.2444,-6.3282,-6.3935,-6.4664,-6.5392,-6.5425,-6.5425,-6.5425,-6.5425,-6.579,-6.6519,-6.7235,-6.8378,-6.9805,-7.0524,-7.1266,-7.196,-7.196,-7.2347,-7.2977,-7.2936,-7.334,-7.401,-7.401,-7.4006,-7.4067,-7.4004,-7.4046,-7.4124,-4.0995,-4.2043,-4.288,-4.306,-4.3011,-4.322,0.0,0.0,0.0,0.0,-5.9364,-6.3321,-6.7272,-6.9351,-7.0287,-6.9727,-7.0581,0.0,0.0,0.0,0.0,-6.4034,-6.2092,-6.0793,-6.0125,-5.7839,-5.636,-5.5847,0.0,-5.3155,-5.3818,-5.2049,-5.1353,-5.167,-5.5335,-5.6473,-5.5955,-6.1055,-6.3331,-6.3489,-6.3489,-6.4405,-6.5816,-6.588,-6.6604,-6.7502,-6.6839,-6.6617,-6.6617,-6.6617,-6.6617,-6.6617,-6.6617,-6.6617,-6.6586,-6.6396,-6.6459,-6.6523,-6.6175,-6.6207,-6.6143,-6.5258,-6.5342,-6.5532,-6.5152,-6.5373,-6.5563,-6.5353,-6.4721,-6.4152,-6.3805,-6.3015,-6.2428,-6.2667,-6.2491,-6.2396,-6.2396,-6.2396,-6.2396,-6.2396,0.0,0.0,-6.0297,-5.9781,-5.9524,-5.9684,-6.0412,-6.1574,-6.3206,-6.3481,-6.4133,-6.5359,-6.5425,-6.5425,-6.5425,-6.5425,-6.579,-6.6519,-6.7235,-6.8378,-6.985,-7.106,-7.2013,-7.2644,-7.2644,-7.306,-7.3697,-7.3142,-7.334,-7.401,-7.401,-7.4356,-7.4837,-7.4281,-7.4157,-7.4321,-4.1302,-4.2671,-4.3738,-4.3738,0.0,0.0,-4.6782,-4.9097,0.0,-5.7472,-6.1608,0.0,-6.8049,-7.056,-7.1819,-7.1421,-7.1753,0.0,-6.9434,0.0,0.0,-6.6585,-6.5387,-6.4177,-6.2793,-6.0522,0.0,-5.7206,-5.4846,-5.3682,-5.3629,-5.1828,-5.1132,-5.1575,-5.4861,-5.6176,-5.6334,-6.1371,-6.3798,-6.4284,-6.4284,-6.5135,0.0,-6.6396,-6.669,-6.7049,-6.6723,-6.6617,-6.6617,-6.6617,-6.6617,-6.6617,-6.6617,-6.6617,-6.6617,-6.6617,-6.6617,-6.6617,-6.6617,-6.6617,-6.6523,-6.6112,-6.6017,-6.5954,-6.569,-6.5626,-6.5626,-6.5626,-6.4753,-6.4026,-6.3963,-6.311,-6.2396,-6.2396,-6.2396,-6.2396,-6.2396,-6.2396,-6.2396,-6.2396,-6.1435,-6.0645,-6.0329,-5.9529,-5.9197,-5.964,-6.012,-6.1248,-6.3206,-6.3315,-6.3935,-6.5359,-6.5724,-6.5757,-6.5425,-6.5724,-6.6254,-6.7016,-6.7367,-6.8511,-7.0288,-7.1406,-7.227,-7.2936,-7.3223,-7.3617,-7.397,-7.3542,-7.3421,-7.3537,-7.3524,-7.3851,-7.4216,-7.415,-7.4214,-7.4356,-4.1505,-4.3109,0.0,0.0,0.0,0.0,0.0,-5.234,0.0,-5.8961,0.0,-6.6045,-6.6858,-6.9964,-7.1951,-7.1852,0.0,-7.1289,-6.9235,-7.0229,-6.9765,-6.7214,-6.7546,-6.6784,-6.4697,-6.3166,-6.0881,0.0,-5.6316,-5.4688,-5.3092,-5.1638,-5.129,-5.1954,-5.4123,0.0,0.0,-6.1469,-6.373,-6.4863,-6.5023,-6.5511,-6.6161,-6.6377,-6.6497,-6.6537,-6.6679,-6.667,-6.6617,-6.6617,-6.6617,-6.6617,-6.6617,-6.6617,-6.6617,-6.6617,-6.6617,-6.6617,-6.6617,-6.6617,-6.6617,-6.6617,-6.6617,-6.6459,-6.5827,-6.5753,-6.5753,-6.5753,-6.4658,-6.3982,-6.4539,-6.3513,-6.2562,-6.2513,-6.2513,-6.2513,-6.2612,-6.2513,-6.2513,-6.2513,-6.1975,0.0,-6.0392,-5.9593,-5.9325,-5.9673,-6.012,-6.1215,-6.3073,-6.3282,-6.3902,-6.5227,-6.5989,-6.6121,-6.5558,-6.6187,-6.6949,-6.7777,-6.7777,-6.8811,-7.0827,-7.1444,-7.2133,-7.2811,-7.3421,-7.3737,-7.3737,-7.3737,-7.3409,-7.2935,-7.3093,-7.3221,-7.3366,-7.4046,-7.4347,-7.4306,-4.2884,0.0,0.0,0.0,0.0,-5.3001,-5.668,-5.897,-6.1012,-6.3004,-6.61,-6.8399,-6.9136,-7.0891,-7.1753,-7.1156,-7.2216,0.0,0.0,0.0,0.0,-7.0163,-6.9069,-6.7744,-6.6187,-6.3199,-6.0925,-5.9339,-5.5802,-5.3732,-5.3092,-5.1638,-5.1078,-5.1259,0.0,0.0,-5.9571,-6.0305,0.0,-6.2511,-6.3673,-6.4932,-6.6161,-6.6775,-6.7089,-6.7228,-6.7253,-6.6953,-6.6617,-6.6617,-6.6617,-6.6617,-6.6617,-6.6617,-6.6617,-6.6617,-6.6617,-6.6617,-6.6617,-6.6617,-6.6617,-6.6617,-6.6617,-6.6586,-6.6459,-6.6428,-6.6428,-6.6428,-6.5764,-6.5223,-6.5153,-6.4319,-6.3548,-6.3116,-6.3068,-6.3212,-6.3563,-6.3309,-6.3068,-6.3068,-6.2972,-6.2204,-6.0471,-6.0007,-5.9807,-5.9716,-6.012,-6.0985,-6.2312,-6.2984,-6.367,-6.4465,-6.5227,-6.5823,-6.632,-6.6452,-6.7181,-6.8506,-6.8506,-6.9323,-7.0781,-7.0951,-7.1399,-7.209,-7.2219,-7.2262,-7.227,-7.2262,-7.2519,-7.3049,-7.367,-7.4287,-7.4842,-7.5026,-7.4783,-7.4356,0.0,0.0,0.0,0.0,0.0,0.0,0.0,-6.3838,-6.5358,-6.4885,-6.5739,-6.6667,-6.7433,-6.9533,-7.1024,-7.1421,-7.1786,-7.2117,-7.2548,-7.1885,-7.1289,-7.0924,-7.0229,-6.897,-6.7102,-6.4057,-6.1632,-6.0044,-5.5619,-5.327,-5.2863,-5.1222,-5.0627,-5.1141,0.0,-5.7153,0.0,-6.0642,-6.1827,-6.3375,-6.4854,-6.6282,-6.7487,-6.7916,-6.8159,-6.8201,-6.7899,-6.7644,-6.7336,-6.6796,-6.6617,-6.6617,-6.6617,-6.6617,-6.6617,-6.6617,-6.6617,-6.6617,-6.6617,-6.6617,-6.6617,-6.6617,-6.6617,-6.6617,-6.6617,-6.6617,-6.6617,-6.6617,-6.6309,-6.5842,-6.5252,-6.4256,-6.3548,-6.3595,-6.3357,-6.3357,-6.3847,-6.3738,-6.3595,-6.3595,-6.3595,-6.2874,-6.1227,-6.1193,-6.0862,0.0,0.0,-6.0919,-6.2146,-6.2917,-6.3603,-6.4332,-6.5425,-6.5989,-6.5955,-6.6717,-6.7446,-6.8142,-6.8506,-6.9257,-7.0296,-7.0632,-7.0996,-7.1355,-7.1742,-7.1917,-7.1839,-7.1488,-7.1751,-7.2451,-7.286,-7.346,-7.4186,-7.4585,-7.4556,-7.4256,0.0,-4.787,0.0,0.0,-5.7311,-6.1422,-6.4061,-6.701,-6.8307,-6.6552,-6.5653,-6.5436,-6.6229,-6.8539,-7.0428,-7.1455,-7.1156,-7.1322,-7.2349,-7.1852,-7.1289,-7.0693,-7.0659,-6.9798,-6.791,-6.4995,-6.2504,-6.0388,-5.5954,-5.3301,-5.2453,-5.0858,-5.0572,-5.1493,-5.4336,-5.7011,-5.9499,-6.0902,-6.2521,-6.4236,-6.589,-6.7353,-6.8493,-6.8696,-6.8863,-6.8945,-6.8401,-6.8201,-6.805,-6.7213,-6.6953,-6.6953,-6.6953,-6.6953,-6.6953,-6.6953,-6.6953,-6.6901,-6.6796,-6.6849,-6.6901,-6.667,-6.6744,-6.6901,-6.6796,-6.6849,-6.6953,-6.6953,-6.6665,-6.6173,-6.5174,-6.427,-6.3738,-6.3847,-6.369,-6.3643,-6.402,-6.4165,-6.4276,-6.4067,-6.4197,-6.3599,-6.1951,-6.2195,-6.1741,-6.0,-6.0292,-6.0939,-6.1914,-6.2685,-6.3372,-6.4133,-6.5392,-6.5922,-6.5657,-6.6904,-6.7711,-6.7844,-6.8572,-6.9235,-6.9846,-7.0343,-7.0586,-7.0632,-7.121,-7.1433,-7.1423,-7.1185,-7.1425,-7.1935,-7.2162,-7.278,-7.3641,-7.4204,-7.4502,-7.4551,0.0,0.0,0.0,0.0,0.0,-6.3362,-6.5036,-6.7797,-6.9599,-6.9401,-6.8757,-6.8592,-6.9301,-7.0229,-7.0593,-7.003,-7.056,-7.0659,-7.0129,-7.003,-6.9964,-6.9898,-6.9898,-6.95,-6.8606,-6.5724,-6.3,-6.0496,-5.6995,-5.4051,-5.1677,-5.1152,-5.1501,-5.2605,-5.4173,-5.5859,-5.7601,-5.9638,-6.1248,-6.26,-6.4674,-6.6407,-6.7718,-6.794,-6.8404,-6.8945,-6.8401,-6.8201,-6.8201,-6.8101,-6.805,-6.805,-6.805,-6.805,-6.805,-6.805,-6.805,-6.7949,-6.7439,-6.7695,-6.7797,-6.6849,-6.7336,-6.7899,-6.7471,-6.7695,-6.805,-6.805,-6.7346,-6.6383,-6.5205,-6.5114,-6.4897,-6.4035,-6.4254,-6.4577,-6.4656,-6.5213,-6.5376,-6.4722,-6.5166,-6.4556,-6.2061,-6.2228,-6.1906,-6.0433,-6.075,-6.1077,-6.1218,-6.1881,-6.2652,-6.3415,-6.4167,-6.516,-6.6419,-6.7214,-6.7943,-6.8606,-6.9334,-6.9732,-6.9798,-6.9893,-6.986,-6.9893,-6.9955,-7.0002,-7.0054,-7.1368,-7.1917,-7.2049,-7.2713,-7.384,-7.5065,-7.5132,-7.5562,-7.6026,0.0,0.0,-5.7812,-6.0891,-6.3132,-6.5297,-6.7698,-6.9036,-6.9798,-6.9798,-6.9533,-6.9467,-6.9765,-7.0063,-7.0295,-7.0461,-7.0328,-7.0295,-7.0461,-7.003,-6.9798,-6.9798,-6.9798,-6.9434,-6.8705,-6.6254,-6.3814,-6.1537,-5.8158,-5.5545,-5.3623,-5.2771,-5.2845,-5.3753,-5.5037,-5.6426,-5.7962,-6.0412,-6.2018,-6.3083,-6.5194,-6.6419,-6.7036,-6.8008,-6.8587,-6.8837,-6.9073,-6.914,-6.914,-6.914,-6.8748,-6.8201,-6.8201,-6.8201,-6.8201,-6.8201,-6.8201,-6.8151,-6.7949,-6.805,-6.8101,-6.7644,-6.7899,-6.8151,-6.7949,-6.805,-6.8072,-6.7651,-6.6808,-6.6111,-6.5909,-6.5423,-6.4943,-6.4806,-6.4715,-6.4793,-6.5111,-6.5342,-6.5441,-6.5189,-6.4979,-6.4264,-6.2848,-6.2453,-6.2088,-6.1527,-6.1267,-6.1119,-6.1119,-6.2212,-6.3017,-6.3315,-6.4399,-6.5492,-6.6519,-6.7202,-6.7976,-6.8705,-6.9434,-6.9798,-6.9798,-6.9798,-7.003,-7.0461,-7.0461,-7.0693,-7.1156,-7.1753,-7.2515,-7.3343,-7.3641,-7.4635,-7.5894,-7.5894,-7.6059,-7.6258,-5.6237,-5.8829,-6.1712,-6.4047,-6.5527,-6.7148,-6.9434,-6.9798,-6.9798,-6.9798,-6.9798,-6.9798,-6.9798,-6.9798,-6.9997,-7.0527,-7.0096,-7.003,-7.0527,-7.0096,-6.9798,-6.9798,-6.9798,-6.9533,-6.9003,-6.7082,-6.5094,-6.314,-6.0017,-5.7503,-5.5595,-5.4254,-5.4071,-5.4937,-5.617,-5.7617,-5.921,-6.1523,-6.2984,-6.3769,-6.5724,-6.6519,-6.6651,-6.791,-6.8506,-6.8771,-6.9268,-6.9599,-6.9798,-6.9798,-6.9285,-6.8699,-6.8699,-6.8699,-6.8699,-6.8699,-6.8699,-6.8649,-6.8501,-6.855,-6.86,-6.8301,-6.8451,-6.8649,-6.8451,-6.8388,-6.8063,-6.7117,-6.6424,-6.5963,-6.613,-6.5486,-6.4976,-6.5156,-6.5021,-6.4976,-6.5156,-6.5501,-6.5657,-6.5459,-6.4962,-6.4365,-6.367,-6.2785,-6.2221,-6.2221,-6.1516,-6.1185,-6.1417,-6.2378,-6.3083,-6.3272,-6.4664,-6.5757,-6.6473,-6.7479,-6.8175,-6.8705,-6.9434,-6.9798,-6.9798,-7.003,-7.0527,-7.1223,-7.1455,-7.172,-7.2051,-7.2713,-7.3442,-7.4255,-7.4635,-7.5562,-7.6622,-7.6622,-7.6755,-7.6954,-6.0448,-6.2245,-6.4167,-6.7036,-6.8175,-6.8904,-6.9666,-6.9798,-6.9798,-6.9798,-6.9798,-6.9798,-6.9798,-6.9798,-6.9798,-6.9798,-6.9798,-6.9798,-6.9798,-6.9798,-6.9798,-6.9798,-6.9798,-6.9798,-6.9765,-6.8341,-6.6883,-6.5359,-6.2706,-6.0004,-5.7109,-5.527,-5.5017,-5.6126,-5.7642,-5.9293,-6.1185,-6.2643,-6.3746,-6.4498,-6.5955,-6.6519,-6.6585,-6.7301,-6.8076,-6.8672,-6.8705,-6.9169,-6.9798,-6.9798,-6.9798,-6.9798,-6.9798,-6.9798,-6.9798,-6.9798,-6.9798,-6.9655,-6.914,-6.9382,-6.9559,-6.8451,-6.8994,-6.9655,-6.9091,-6.8822,-6.8274,-6.6804,-6.6473,-6.6242,-6.5558,-6.5425,-6.5246,-6.4793,-6.5111,-6.5246,-6.4793,-6.5738,-6.6254,-6.5492,-6.5392,-6.5127,-6.4432,-6.3083,0.0,-6.2221,-6.1516,-6.1417,-6.2155,-6.2221,-6.2553,-6.3315,-6.4664,-6.5757,-6.6473,-6.7943,-6.8672,-6.8705,-6.9434,-6.9798,-6.9831,-7.056,-7.1289,-7.2051,-7.278,-7.268,-7.2183,-7.4337,-7.48,-7.4354,-7.5728,-7.6755,-7.7417,-7.7417,-7.7881,-7.8477,-6.3173,-6.4498,-6.5955,-6.7334,-6.8208,-6.8937,-6.9666,-6.9798,-6.9798,-6.9798,-6.9798,-6.9798,-6.9798,-6.9798,-6.9798,-6.9798,-6.9798,-6.9798,-6.9798,-6.9798,-6.9798,-6.9798,-6.9798,-6.9798,-6.9798,-6.8374,-6.6916,-6.5425,-6.3605,-6.1745,-5.982,-5.8708,-5.8419,-5.8797,-6.0291,-6.13,-6.1947,-6.3405,-6.4432,-6.5127,-6.5591,-6.6055,-6.6585,-6.7301,-6.8076,-6.8771,-6.9268,-6.9599,-6.9798,-6.9798,-6.9798,-6.9798,-6.9798,-6.9798,-6.9798,-6.9798,-6.9798,-6.9751,-6.9607,-6.9655,-6.9751,-6.9382,-6.9559,-6.9751,-6.9574,-6.8696,-6.7844,-6.738,-6.6485,-6.569,-6.5459,-6.5425,-6.5381,-6.5201,-6.5336,-6.5381,-6.5201,-6.5105,-6.516,-6.5392,-6.4564,-6.4067,-6.4365,-6.3547,-6.2984,-6.2984,-6.2288,-6.1956,-6.2188,-6.2685,-6.3315,-6.4045,-6.5425,-6.6519,-6.7235,-6.8208,-6.8937,-6.9434,-6.9666,-7.0063,-7.056,-7.1322,-7.2316,-7.3475,-7.374,-7.427,-7.4999,-7.5695,-7.6125,-7.6424,-7.6887,-7.7517,-7.8179,-7.8179,-7.8312,-7.861,-6.4332,-6.5757,-6.7036,-6.7499,-6.844,-6.9268,-6.9732,-6.9798,-6.9798,-6.9798,-6.9798,-6.9798,-6.9798,-6.9798,-6.9798,-6.9798,-6.9798,-6.9798,-6.9798,-6.9798,-6.9798,-6.9798,-6.9798,-6.9798,-6.9798,-6.8639,-6.7446,-6.6254,-6.4233,-6.2676,-6.1483,-6.102,-6.0821,-6.0887,-6.2345,-6.305,-6.3116,-6.4266,-6.5028,-6.5425,-6.5425,-6.5856,-6.6585,-6.7003,-6.7844,-6.8738,-6.9202,-6.9566,-6.9798,-6.9798,-6.9798,-6.9798,-6.9798,-6.9798,-6.9798,-6.9798,-6.9798,-6.9798,-6.9798,-6.9798,-6.9798,-6.9798,-6.9798,-6.9732,-6.9434,-6.8672,-6.7877,-6.7314,-6.6485,-6.5757,-6.5459,-6.5425,-6.5425,-6.5425,-6.5425,-6.5326,-6.5061,-6.4895,-6.4829,-6.4995,-6.4465,-6.4266,-6.473,-6.41,-6.3746,-6.3746,-6.305,-6.2752,-6.3017,-6.3216,-6.3736,-6.473,-6.6187,-6.7281,-6.8009,-6.8738,-6.9334,-6.9798,-7.0063,-7.0726,-7.1753,-7.2481,-7.3475,-7.4652,-7.4867,-7.5496,-7.6324,-7.6622,-7.6987,-7.745,-7.7715,-7.8113,-7.8544,-7.8842,-7.8941,-7.9074,-6.4299,-6.6121,-6.7533,-6.7566,-6.8771,-6.9699,-6.9699,-6.9765,-6.9765,-6.9732,-6.9765,-6.9798,-6.9798,-6.9798,-6.9798,-6.9798,-6.9798,-6.9798,-6.9798,-6.9798,-6.9798,-6.9798,-6.9798,-6.9765,-6.9699,-6.9003,-6.8241,-6.7433,-6.4697,-6.3083,-6.2453,-6.2387,-6.2354,-6.242,-6.3846,-6.4432,-6.4432,-6.5127,-6.5425,-6.5425,-6.5492,-6.5922,-6.6519,-6.6618,-6.7479,-6.8639,-6.8738,-6.9169,-6.9732,-6.9765,-6.9798,-6.9798,-6.9798,-6.9798,-6.9798,-6.9798,-6.9798,-6.9798,-6.9798,-6.9798,-6.9798,-6.9798,-6.9798,-6.9599,-6.8904,-6.8738,-6.8307,-6.6949,-6.6585,-6.632,-6.5624,-6.5459,-6.5425,-6.5425,-6.5425,-6.516,-6.4465,-6.4929,-6.5094,-6.4465,-6.4962,-6.5359,-6.5425,-6.4829,-6.4432,-6.4365,-6.3736,-6.3713,-6.4332,-6.3769,-6.4067,-6.5459,-6.6916,-6.8009,-6.8672,-6.9434,-6.9831,-6.9864,-7.0693,-7.1786,-7.321,-7.3906,-7.4719,-7.5463,-7.6125,-7.6424,-7.6523,-7.7219,-7.7484,-7.755,-7.8246,-7.8511,-7.861,-7.9372,-7.9583,-7.9836,-6.5127,-6.6055,-6.6904,-6.7466,-6.8341,-6.8937,-6.8937,-6.9434,-6.9599,-6.9003,-6.9434,-6.9798,-6.9798,-6.9798,-6.9798,-6.9798,-6.9798,-6.9798,-6.9798,-6.9798,-6.9798,-6.9798,-6.9798,-6.9533,-6.897,-6.8241,-6.7247,-6.5922,-6.473,-6.4299,-6.463,-6.41,-6.3868,-6.3945,-6.4796,-6.4895,-6.4432,-6.5127,-6.5425,-6.5459,-6.6022,-6.6353,-6.6651,-6.7744,-6.8042,-6.8009,-6.9136,-6.9268,-6.9036,-6.9599,-6.9798,-6.9798,-6.9798,-6.9798,-6.9798,-6.9798,-6.9798,-6.9798,-6.9798,-6.9798,-6.9798,-6.9798,-6.9798,-6.9732,-6.9566,-6.9103,-6.8572,-6.8241,-6.7281,-6.6485,-6.6287,-6.579,-6.5425,-6.5425,-6.5425,-6.516,-6.4432,-6.4498,-6.4564,-6.4365,-6.4498,-6.4829,-6.5359,-6.526,-6.4962,-6.4432,-6.4233,-6.4243,-6.4365,-6.473,-6.5326,-6.622,-6.7678,-6.8506,-6.8672,-6.9434,-7.0063,-7.0659,-7.1951,-7.3045,-7.3939,-7.4668,-7.5695,-7.692,-7.7086,-7.7484,-7.8014,-7.8179,-7.8246,-7.8279,-7.8444,-7.8511,-7.861,-7.9372,-7.9583,-7.9836,-6.5359,-6.6022,-6.6705,-6.7466,-6.7943,-6.8307,-6.8639,-6.9036,-6.9136,-6.8738,-6.9334,-6.9798,-6.9798,-6.9798,-6.9798,-6.9798,-6.9798,-6.9798,-6.9798,-6.9798,-6.9798,-6.9798,-6.9467,-6.9103,-6.8705,-6.8009,-6.7036,-6.5922,-6.5558,-6.5359,-6.5425,-6.5359,-6.5194,-6.4895,-6.5591,-6.5525,-6.4895,-6.526,-6.5591,-6.5922,-6.5989,-6.6419,-6.7036,-6.7512,-6.7678,-6.7731,-6.8871,-6.9036,-6.8804,-6.9533,-6.9798,-6.9798,-6.9798,-6.9798,-6.9798,-6.9798,-6.9798,-6.9798,-6.9798,-6.9798,-6.9798,-6.9798,-6.9798,-6.9798,-6.9798,-6.9467,-6.9103,-6.8771,-6.7811,-6.6916,-6.6585,-6.5922,-6.5326,-6.4995,-6.4929,-6.4564,-6.3471,-6.3935,-6.4233,-6.3868,-6.4432,-6.4995,-6.5392,-6.5425,-6.526,-6.4895,-6.4862,-6.4862,-6.4862,-6.5856,-6.6618,-6.7016,-6.8109,-6.8837,-6.9202,-6.9931,-7.0659,-7.1421,-7.2548,-7.3641,-7.4701,-7.543,-7.6357,-7.745,-7.7782,-7.8146,-7.8511,-7.8511,-7.8511,-7.8511,-7.8511,-7.8742,-7.9107,-7.9836,-8.0332,-8.0763,-6.516,-6.5922,-6.6705,-6.7466,-6.7566,-6.7844,-6.844,-6.8606,-6.8639,-6.8539,-6.9169,-6.9666,-6.9765,-6.9699,-6.9666,-6.9765,-6.9798,-6.9798,-6.9798,-6.9699,-6.9633,-6.9633,-6.9003,-6.8639,-6.8539,-6.7811,-6.7102,-6.6519,-6.6419,-6.6088,-6.5591,-6.622,-6.6187,-6.5591,-6.6254,-6.6121,-6.5425,-6.5425,-6.5856,-6.6485,-6.5823,-6.6353,-6.7367,-6.6837,-6.7016,-6.7579,-6.8407,-6.8672,-6.8804,-6.9533,-6.9798,-6.9798,-6.9798,-6.9798,-6.9798,-6.9798,-6.9798,-6.9798,-6.9798,-6.9798,-6.9798,-6.9798,-6.9798,-6.9798,-6.9798,-6.9798,-6.9599,-6.8837,-6.8109,-6.7367,-6.6651,-6.5922,-6.5227,-6.463,-6.4465,-6.3935,-6.2719,-6.357,-6.4133,-6.3547,-6.4597,-6.5425,-6.5425,-6.5425,-6.5425,-6.5425,-6.5425,-6.5459,-6.5591,-6.6837,-6.7632,-6.7777,-6.8473,-6.9202,-6.9964,-7.0693,-7.1455,-7.2183,-7.3045,-7.4138,-7.5463,-7.6159,-7.6887,-7.7616,-7.8246,-7.8511,-7.8511,-7.8511,-7.8511,-7.8511,-7.8511,-7.8974,-7.9703,-8.0432,-8.1161,-8.1889,-6.4531,-6.5624,-6.6705,-6.7466,-6.7566,-6.7632,-6.7777,-6.8307,-6.8473,-6.7877,-6.8407,-6.9103,-6.9732,-6.9235,-6.9103,-6.9732,-6.9798,-6.9798,-6.9798,-6.9202,-6.8871,-6.8871,-6.8738,-6.8407,-6.7811,-6.7082,-6.6618,-6.6519,-6.5889,-6.5856,-6.6353,-6.6485,-6.6452,-6.6353,-6.6485,-6.6121,-6.5425,-6.5425,-6.5856,-6.6519,-6.6386,-6.6485,-6.6751,-6.7235,-6.7102,-6.6883,-6.8208,-6.8672,-6.8804,-6.9533,-6.9798,-6.9798,-6.9798,-6.9798,-6.9798,-6.9798,-6.9798,-6.9798,-6.9798,-6.9798,-6.9798,-6.9798,-6.9798,-6.9798,-6.9798,-6.9798,-6.9599,-6.8837,-6.8109,-6.7367,-6.6651,-6.5922,-6.5392,-6.526,-6.4763,-6.4299,-6.4067,-6.42,-6.4299,-6.4233,-6.4929,-6.5425,-6.5425,-6.5425,-6.5425,-6.5425,-6.5425,-6.569,-6.632,-6.7135,-6.791,-6.8506,-6.9235,-6.9964,-7.0726,-7.1455,-7.2216,-7.2945,-7.4303,-7.5363,-7.6192,-7.692,-7.7649,-7.8345,-7.8477,-7.8511,-7.8511,-7.8511,-7.8511,-7.8511,-7.8511,-7.8974,-7.9703,-8.0432,-8.1161,-8.1889,-6.4365,-6.5227,-6.6154,-6.6916,-6.6684,-6.6585,-6.6982,-6.7645,-6.8009,-6.7632,-6.8241,-6.897,-6.9699,-6.9136,-6.9003,-6.9732,-6.9798,-6.9798,-6.9798,-6.9467,-6.9268,-6.9268,-6.8904,-6.8341,-6.7599,-6.7235,-6.6916,-6.6519,-6.6949,-6.6751,-6.5922,-6.6751,-6.6916,-6.6552,-6.6949,-6.687,-6.6585,-6.6585,-6.6771,-6.7082,-6.6684,-6.6519,-6.6473,-6.6452,-6.6485,-6.6651,-6.7744,-6.8374,-6.8804,-6.9533,-6.9798,-6.9798,-6.9798,-6.9798,-6.9798,-6.9798,-6.9798,-6.9798,-6.9798,-6.9798,-6.9798,-6.9798,-6.9798,-6.9798,-6.9798,-6.9798,-6.9699,-6.9334,-6.8407,-6.7466,-6.7135,-6.6187,-6.5293,-6.4929,-6.4266,-6.3846,-6.3846,-6.3769,-6.3902,-6.4332,-6.4995,-6.5425,-6.5425,-6.579,-6.6022,-6.6022,-6.6386,-6.6705,-6.7036,-6.7811,-6.8341,-6.8672,-6.9401,-7.0163,-7.0891,-7.162,-7.2382,-7.3144,-7.4568,-7.5628,-7.6324,-7.7086,-7.7815,-7.8511,-7.8511,-7.8511,-7.8511,-7.8511,-7.8511,-7.8511,-7.8511,-7.9206,-8.0233,-8.0564,-8.1426,-8.2453,-6.3912,-6.4564,-6.5425,-6.6154,-6.579,-6.5657,-6.6419,-6.7102,-6.7533,-6.7334,-6.8009,-6.8672,-6.9235,-6.8771,-6.8738,-6.9467,-6.9699,-6.9798,-6.9798,-6.9798,-6.9699,-6.9533,-6.8837,-6.8341,-6.8142,-6.7811,-6.7301,-6.6784,-6.7877,-6.7579,-6.5955,-6.7281,-6.7579,-6.7049,-6.7612,-6.7777,-6.7566,-6.74,-6.7433,-6.7499,-6.6618,-6.6353,-6.6452,-6.569,-6.5989,-6.685,-6.7367,-6.8208,-6.9036,-6.9599,-6.9798,-6.9798,-6.9798,-6.9798,-6.9798,-6.9798,-6.9798,-6.9798,-6.9798,-6.9798,-6.9798,-6.9798,-6.9798,-6.9798,-6.9798,-6.9798,-6.9732,-6.9566,-6.8639,-6.7777,-6.7446,-6.6452,-6.5425,-6.473,-6.4001,-6.3603,-6.3769,-6.3637,-6.3802,-6.4531,-6.5094,-6.5425,-6.5425,-6.6088,-6.6519,-6.6519,-6.7168,-6.7632,-6.7877,-6.8374,-6.8771,-6.8937,-6.95,-7.0229,-7.1156,-7.172,-7.2548,-7.3641,-7.49,-7.5894,-7.6589,-7.7351,-7.798,-7.8511,-7.8511,-7.8511,-7.8511,-7.8511,-7.8511,-7.8544,-7.8709,-7.9571,-8.0697,-8.0863,-8.179,-8.2883,-6.2387,-6.3514,-6.4664,-6.5359,-6.5459,-6.5657,-6.6419,-6.7102,-6.7334,-6.6684,-6.7202,-6.7665,-6.7777,-6.7744,-6.8009,-6.8705,-6.9401,-6.9798,-6.9798,-6.9798,-6.95,-6.8804,-6.8076,-6.8307,-6.9599,-6.8307,-6.7566,-6.7499,-6.7645,-6.7612,-6.7433,-6.8241,-6.8572,-6.8539,-6.8572,-6.8241,-6.7533,-6.6837,-6.7016,-6.7466,-6.6055,-6.5922,-6.6452,-6.569,-6.6287,-6.7499,-6.7566,-6.8539,-6.9732,-6.9765,-6.9798,-6.9798,-6.9798,-6.9798,-6.9798,-6.9798,-6.9798,-6.9798,-6.9798,-6.9798,-6.9798,-6.9798,-6.9798,-6.9798,-6.9798,-6.9798,-6.9599,-6.8904,-6.8672,-6.8208,-6.685,-6.6473,-6.6187,-6.5459,-6.4763,-6.4531,-6.516,-6.4697,-6.4564,-6.526,-6.5392,-6.5425,-6.5425,-6.6088,-6.6519,-6.6519,-6.7168,-6.791,-6.8572,-6.8672,-6.9003,-6.9699,-6.9765,-7.0461,-7.1918,-7.1985,-7.3045,-7.5132,-7.5894,-7.6622,-7.7351,-7.8113,-7.8477,-7.8511,-7.8511,-7.8511,-7.8511,-7.8511,-7.8511,-7.8577,-7.9272,-8.0001,-8.0763,-8.1459,-8.2221,-8.2883,-6.1616,-6.2709,-6.3637,-6.3438,-6.4167,-6.4862,-6.516,-6.6187,-6.685,-6.6552,-6.6705,-6.7069,-6.7533,-6.7566,-6.791,-6.8639,-6.9368,-6.9798,-6.9798,-6.9798,-6.9666,-6.9368,-6.8672,-6.8539,-6.9103,-6.8572,-6.7844,-6.6904,-6.8307,-6.8274,-6.6904,-6.8142,-6.8672,-6.8672,-6.8672,-6.8804,-6.8937,-6.8175,-6.7777,-6.7499,-6.6519,-6.5989,-6.5823,-6.5525,-6.6353,-6.7566,-6.7566,-6.8572,-6.9798,-6.9798,-6.9798,-6.9798,-6.9798,-6.9798,-6.9798,-6.9798,-6.9798,-6.9798,-6.9798,-6.9798,-6.9798,-6.9798,-6.9798,-6.9798,-6.9798,-6.9798,-6.9699,-6.9434,-6.9003,-6.8506,-6.7976,-6.7115,-6.6419,-6.6154,-6.5127,-6.463,-6.5326,-6.4829,-6.463,-6.5326,-6.5425,-6.5425,-6.5425,-6.6485,-6.7168,-6.7168,-6.8307,-6.9103,-6.9368,-6.9368,-6.95,-6.9765,-6.9798,-7.0494,-7.1985,-7.2018,-7.2879,-7.4602,-7.5761,-7.6457,-7.6755,-7.798,-7.8511,-7.8511,-7.8511,-7.8511,-7.8511,-7.8511,-7.8511,-7.8544,-7.8842,-7.9405,-8.0134,-8.0829,-8.1558,-8.2287,-6.0854,-6.1748,-6.2444,-6.1914,-6.304,-6.41,-6.4332,-6.5392,-6.6154,-6.6154,-6.6386,-6.6573,-6.6916,-6.7301,-6.7811,-6.8307,-6.9235,-6.9798,-6.9798,-6.9798,-6.9798,-6.9798,-6.9069,-6.8804,-6.9036,-6.8804,-6.8208,-6.7214,-6.8937,-6.8904,-6.7214,-6.844,-6.9036,-6.9036,-6.9036,-6.9334,-6.9732,-6.9003,-6.8274,-6.7533,-6.6817,-6.622,-6.5724,-6.5492,-6.6485,-6.7943,-6.7665,-6.8572,-6.9798,-6.9798,-6.9798,-6.9798,-6.9798,-6.9798,-6.9798,-6.9798,-6.9798,-6.9798,-6.9798,-6.9798,-6.9798,-6.9798,-6.9798,-6.9798,-6.9798,-6.9798,-6.9798,-6.9798,-6.9401,-6.897,-6.8738,-6.7678,-6.6784,-6.6552,-6.5492,-6.4862,-6.5359,-6.5194,-6.5127,-6.5392,-6.5624,-6.5657,-6.5425,-6.6705,-6.7566,-6.7566,-6.897,-6.9798,-6.9798,-6.9798,-6.9798,-6.9798,-7.003,-7.0726,-7.1985,-7.2018,-7.2846,-7.4586,-7.5728,-7.6424,-7.6689,-7.7947,-7.8511,-7.8511,-7.8511,-7.8511,-7.8511,-7.8511,-7.8511,-7.8544,-7.8776,-7.9119,-7.9736,-8.0697,-8.1359,-8.1889,-5.9993,-6.0589,-6.1119,-6.1086,-6.2312,-6.3547,-6.4266,-6.4962,-6.5392,-6.5425,-6.6055,-6.622,-6.5492,-6.6751,-6.7566,-6.7566,-6.897,-6.9798,-6.9798,-6.9798,-6.9798,-6.9798,-6.9103,-6.9036,-6.9765,-6.9069,-6.8705,-6.8672,-6.9434,-6.9401,-6.8705,-6.9434,-6.9798,-6.9798,-6.9798,-6.9798,-6.9732,-6.9003,-6.8274,-6.7533,-6.6817,-6.6473,-6.6452,-6.569,-6.6784,-6.8572,-6.7877,-6.8572,-6.9798,-6.9798,-6.9798,-6.9798,-6.9798,-6.9798,-6.9798,-6.9798,-6.9798,-6.9798,-6.9798,-6.9798,-6.9798,-6.9798,-6.9798,-6.9798,-6.9798,-6.9798,-6.9798,-6.9798,-6.9798,-6.9566,-6.8837,-6.8109,-6.7334,-6.6651,-6.5922,-6.5425,-6.5425,-6.6055,-6.6254,-6.5525,-6.6088,-6.6254,-6.5492,-6.6784,-6.7599,-6.7599,-6.897,-6.9798,-6.9798,-6.9798,-6.9798,-6.9798,-7.0527,-7.1256,-7.2018,-7.2018,-7.3111,-7.5264,-7.5993,-7.6689,-7.745,-7.8179,-7.8511,-7.8511,-7.8511,-7.8511,-7.8511,-7.8511,-7.8511,-7.861,-7.9339,-7.9604,-7.9802,-8.1227,-8.179,-8.1889,-6.0092,-6.0589,-6.0953,-6.0423,-6.155,-6.2785,-6.3547,-6.4233,-6.4862,-6.5359,-6.5591,-6.5657,-6.5425,-6.6751,-6.7566,-6.7566,-6.897,-6.9798,-6.9798,-6.9798,-6.9798,-6.9798,-6.9599,-6.9566,-6.9798,-6.9566,-6.9202,-6.8672,-6.9434,-6.9401,-6.8705,-6.9434,-6.9798,-6.9798,-6.9798,-6.9798,-6.9699,-6.8473,-6.7811,-6.7466,-6.6254,-6.6055,-6.6485,-6.6287,-6.6916,-6.7976,-6.8274,-6.8639,-6.9103,-6.9633,-6.9798,-6.9798,-6.9798,-6.9798,-6.9798,-6.9798,-6.9798,-6.9798,-6.9798,-6.9798,-6.9798,-6.9798,-6.9798,-6.9798,-6.9798,-6.9798,-6.9798,-6.9798,-6.9798,-6.9732,-6.95,-6.8871,-6.8142,-6.7413,-6.7115,-6.6738,-6.6254,-6.6804,-6.7168,-6.6937,-6.7135,-6.7168,-6.6937,-6.7811,-6.8374,-6.8374,-6.9268,-6.9798,-6.9798,-6.9798,-7.003,-7.056,-7.0792,-7.1488,-7.278,-7.278,-7.3343,-7.4553,-7.5728,-7.6424,-7.6689,-7.7947,-7.8511,-7.8511,-7.8511,-7.8511,-7.8511,-7.8511,-7.8511,-7.8544,-7.8776,-7.8842,-7.8974,-7.9935,-8.0946,-8.202,-5.9595,-6.0158,-6.0523,-6.0092,-6.0986,-6.208,-6.315,-6.3713,-6.4299,-6.5293,-6.5425,-6.5425,-6.5425,-6.6751,-6.7566,-6.7566,-6.897,-6.9666,-6.9368,-6.9633,-6.9798,-6.9798,-6.9798,-6.9798,-6.9798,-6.9798,-6.9566,-6.9136,-6.9566,-6.9566,-6.9136,-6.9599,-6.9633,-6.9368,-6.9666,-6.9467,-6.8904,-6.8307,-6.7711,-6.7115,-6.622,-6.6121,-6.6519,-6.6519,-6.7148,-6.8109,-6.8539,-6.8871,-6.9202,-6.9633,-6.9798,-6.9798,-6.9798,-6.9798,-6.9798,-6.9798,-6.9599,-6.9334,-6.9334,-6.9334,-6.9334,-6.9334,-6.9566,-6.9798,-6.9798,-6.9798,-6.9798,-6.9798,-6.9798,-6.9798,-6.9798,-6.9202,-6.8539,-6.8109,-6.7811,-6.7433,-6.697,-6.7579,-6.7943,-6.7599,-6.7877,-6.7811,-6.7202,-6.8109,-6.8804,-6.9103,-6.9533,-6.9798,-6.9798,-6.9798,-6.9997,-7.0461,-7.1024,-7.1753,-7.268,-7.3243,-7.374,-7.4221,-7.533,-7.6026,-7.6357,-7.755,-7.8246,-7.8511,-7.8511,-7.8511,-7.8511,-7.8511,-7.8511,-7.8511,-7.8511,-7.8671,-7.9055,-7.9788,-8.0905,-8.2139,-5.8767,-5.9496,-6.0026,-6.0092,-6.0655,-6.1583,-6.3017,-6.3216,-6.3703,-6.5127,-6.5326,-6.5326,-6.5392,-6.6684,-6.7466,-6.7466,-6.8837,-6.9434,-6.8837,-6.9434,-6.9798,-6.9798,-6.9798,-6.9798,-6.9798,-6.9798,-6.9798,-6.9798,-6.9798,-6.9798,-6.9798,-6.9798,-6.9434,-6.8804,-6.95,-6.9069,-6.7797,-6.8374,-6.7844,-6.6618,-6.6485,-6.6452,-6.6519,-6.6519,-6.738,-6.8606,-6.8672,-6.9103,-6.9699,-6.9765,-6.9798,-6.9798,-6.9798,-6.9732,-6.9699,-6.9699,-6.9202,-6.8672,-6.8672,-6.8738,-6.8771,-6.8771,-6.9301,-6.9798,-6.9798,-6.9798,-6.9798,-6.9798,-6.9798,-6.9798,-6.9798,-6.9235,-6.8771,-6.8705,-6.8208,-6.7731,-6.7744,-6.8341,-6.8506,-6.7811,-6.8307,-6.8175,-6.685,-6.7976,-6.9069,-6.9732,-6.9798,-6.9798,-6.9798,-6.9798,-6.9831,-6.9898,-7.1189,-7.1951,-7.2117,-7.3409,-7.4155,-7.4221,-7.4933,-7.5628,-7.6324,-7.7086,-7.7815,-7.8511,-7.8511,-7.8511,-7.8511,-7.8511,-7.8511,-7.8617,-7.8617,-7.9113,-7.9904,-8.0544,-8.136,-8.2334,-5.8767,-5.9496,-6.0191,-6.0755,-6.0986,-6.1417,-6.2321,-6.2453,-6.2908,-6.4365,-6.4564,-6.4829,-6.5359,-6.622,-6.6751,-6.6751,-6.8076,-6.9103,-6.9533,-6.9699,-6.9798,-6.9798,-6.9798,-6.9798,-6.9798,-6.9798,-6.9798,-6.9798,-6.9798,-6.9798,-6.9798,-6.9798,-6.9699,-6.9566,-6.9732,-6.9633,-6.9268,-6.8274,-6.7678,-6.7235,-6.6121,-6.5989,-6.6519,-6.6519,-6.7082,-6.791,-6.8473,-6.8804,-6.9003,-6.9599,-6.9798,-6.9798,-6.9798,-6.9401,-6.8937,-6.8937,-6.8804,-6.8672,-6.8672,-6.9103,-6.9566,-6.9566,-6.9666,-6.9798,-6.9798,-6.9798,-6.9798,-6.9798,-6.9798,-6.9798,-6.9798,-6.9666,-6.9368,-6.8771,-6.9036,-6.9136,-6.8539,-6.9103,-6.9268,-6.8539,-6.8606,-6.8572,-6.8241,-6.9036,-6.9633,-6.9765,-6.9798,-6.9798,-6.9798,-6.9798,-7.0063,-7.0626,-7.0958,-7.1686,-7.2846,-7.3177,-7.3608,-7.4221,-7.4933,-7.5628,-7.6324,-7.7086,-7.7815,-7.8511,-7.8511,-7.8511,-7.8511,-7.8511,-7.8883,-7.9425,-7.9425,-7.9905,-8.0656,-8.0827,-8.1728,-8.3257,-5.7707,-5.8999,-6.0125,-6.0523,-6.0887,-6.1351,-6.2122,-6.2221,-6.2752,-6.4167,-6.4365,-6.4664,-6.5326,-6.6088,-6.6651,-6.7016,-6.8042,-6.8837,-6.9235,-6.9599,-6.9798,-6.9798,-6.9798,-6.9798,-6.9798,-6.9798,-6.9798,-6.9798,-6.9434,-6.9268,-6.9268,-6.8937,-6.8771,-6.8771,-6.9103,-6.8871,-6.8208,-6.7811,-6.7168,-6.6485,-6.5724,-6.5657,-6.6022,-6.6386,-6.6982,-6.7711,-6.844,-6.8904,-6.9268,-6.9666,-6.9798,-6.9798,-6.9798,-6.9533,-6.9202,-6.9202,-6.897,-6.8672,-6.8672,-6.897,-6.9268,-6.9268,-6.9533,-6.9798,-6.9798,-6.9798,-6.9798,-6.9798,-6.9798,-6.9798,-6.9798,-6.9798,-6.9666,-6.9268,-6.9533,-6.9666,-6.9268,-6.9235,-6.9235,-6.9235,-6.8904,-6.8837,-6.9169,-6.9235,-6.9401,-6.9765,-6.9798,-6.9798,-6.9798,-6.9798,-6.9964,-7.0361,-7.1057,-7.1786,-7.2581,-7.3276,-7.3807,-7.4221,-7.4933,-7.5628,-7.6324,-7.7086,-7.7815,-7.8511,-7.8511,-7.8511,-7.8511,-7.8936,-7.9321,-7.9734,-8.0107,-8.0755,-8.1482,-8.1482,-8.2439,-8.3972,-5.6183,-5.8104,-5.9661,-5.9794,-6.0523,-6.1318,-6.1914,-6.2022,-6.252,-6.3835,-6.41,-6.4465,-6.516,-6.5889,-6.6618,-6.7334,-6.8109,-6.8506,-6.8506,-6.9301,-6.9732,-6.9599,-6.9732,-6.9798,-6.9798,-6.9798,-6.9798,-6.9798,-6.9036,-6.8672,-6.8672,-6.8076,-6.7811,-6.7844,-6.8572,-6.8142,-6.6916,-6.7413,-6.685,-6.5591,-6.5591,-6.5591,-6.5657,-6.6287,-6.7049,-6.7877,-6.8341,-6.9069,-6.9798,-6.9798,-6.9798,-6.9798,-6.9798,-6.9699,-6.9599,-6.9599,-6.9169,-6.8672,-6.8672,-6.8771,-6.8871,-6.8871,-6.9334,-6.9798,-6.9798,-6.9798,-6.9798,-6.9798,-6.9798,-6.9798,-6.9798,-6.9798,-6.9798,-6.9798,-6.9666,-6.9666,-6.9765,-6.9169,-6.8904,-6.9533,-6.9069,-6.8937,-6.9533,-6.9169,-6.9136,-6.9732,-6.9798,-6.9798,-6.9798,-6.9798,-6.9798,-6.9798,-7.1123,-7.1885,-7.2018,-7.3343,-7.4089,-7.4221,-7.4933,-7.5628,-7.6324,-7.6954,-7.7682,-7.8511,-7.8511,-7.8511,-7.8564,-7.9373,-7.9752,-7.9955,-8.0804,-8.1578,-8.2269,-8.2269,-8.3099,-8.4227,-5.4659,-5.6581,-5.8303,-5.8933,-6.0191,-6.1152,-6.1218,-6.1251,-6.155,-6.242,-6.3083,-6.3746,-6.4432,-6.5127,-6.5856,-6.6585,-6.7301,-6.7777,-6.7777,-6.9036,-6.95,-6.8871,-6.9434,-6.9798,-6.9798,-6.9798,-6.9798,-6.9798,-6.9036,-6.8672,-6.8672,-6.8572,-6.8539,-6.8572,-6.9301,-6.9169,-6.8374,-6.7844,-6.7148,-6.6386,-6.6386,-6.6386,-6.6386,-6.644,-6.7347,-6.8473,-6.7943,-6.8639,-6.9798,-6.9798,-6.9798,-6.9798,-6.9798,-6.9334,-6.8837,-6.8837,-6.8771,-6.8672,-6.8672,-6.9169,-6.9633,-6.9633,-6.9732,-6.9798,-6.9798,-6.9798,-6.9798,-6.9798,-6.9798,-6.9798,-6.9798,-6.9798,-6.9798,-6.9798,-6.9235,-6.9069,-6.9699,-6.9169,-6.8738,-6.8837,-6.8738,-6.8738,-6.8837,-6.9334,-6.9666,-6.9798,-6.9798,-6.9798,-6.9798,-6.9798,-6.9798,-6.9798,-7.0593,-7.1355,-7.1985,-7.2846,-7.3575,-7.4221,-7.4933,-7.5628,-7.6324,-7.6424,-7.7219,-7.8511,-7.8511,-7.8511,-7.8564,-7.9373,-8.0107,-8.0853,-8.1625,-8.2407,-8.3075,-8.3075,-8.319,-8.3454,-5.4357,-5.5951,-5.7541,-5.8701,-5.9794,-6.0622,-6.1053,-6.1119,-6.1351,-6.2122,-6.2487,-6.2984,-6.3746,-6.4399,-6.5293,-6.6419,-6.6817,-6.7135,-6.7566,-6.8241,-6.844,-6.8109,-6.8407,-6.8572,-6.8572,-6.897,-6.897,-6.8572,-6.8639,-6.8672,-6.8672,-6.8274,-6.8307,-6.8672,-6.8606,-6.8407,-6.8042,-6.7314,-6.6817,-6.6519,-6.6519,-6.6784,-6.7102,-6.7102,-6.7777,-6.8705,-6.8804,-6.9235,-6.9798,-6.9798,-6.9798,-6.9798,-6.9798,-6.9566,-6.9301,-6.9301,-6.9301,-6.9301,-6.9301,-6.9533,-6.9798,-6.9798,-6.9798,-6.9798,-6.9798,-6.9798,-6.9798,-6.9798,-6.9798,-6.9798,-6.9798,-6.9798,-6.9798,-6.9798,-6.9533,-6.9434,-6.9732,-6.9169,-6.8672,-6.8672,-6.9036,-6.9301,-6.9301,-6.9599,-6.9798,-6.9798,-6.9798,-6.9798,-6.9798,-6.9798,-6.9798,-6.9798,-7.0924,-7.1686,-7.2018,-7.3144,-7.3873,-7.4221,-7.4553,-7.5231,-7.6324,-7.6755,-7.7517,-7.8511,-7.8511,-7.8777,-7.9217,-8.0057,-8.0853,-8.1625,-8.2407,-8.2941,-8.3208,-8.3208,-8.3208,-8.3314]},{"header":{"parameterUnit":"m.s-1","parameterCategory":1,"la1":30.6,"la2":28.766,"lo1":-90.7593,"lo2":-88.6598,"dy":0.0162,"dx":0.0183,"nx":116,"ny":114,"refTime":"2024-05-11T12:00:00:Z","depth":0,"parameterNumber":3,"parameterNumberName":"V-component_of_WINDS"},"data":[0.0,0.0,0.0,0.0,0.0,0.0,0.0,0.0,0.0,0.0,0.0,0.0,0.0,0.0,0.0,0.0,0.0,0.0,0.0,0.0,0.0,0.0,0.0,0.0,0.0,0.0,0.0,0.0,0.0,0.0,0.0,0.0,0.0,0.0,0.0,0.0,0.0,0.0,0.0,0.0,0.0,0.0,0.0,0.0,0.0,0.0,0.0,0.0,0.0,0.0,0.0,0.0,0.0,0.0,0.0,0.0,0.0,0.0,0.0,0.0,0.0,0.0,0.0,0.0,0.0,0.0,0.0,0.0,0.0,0.0,0.0,0.0,0.0,0.0,0.0,0.0,0.0,0.0,0.0,0.0,0.0,0.0,0.0,0.0,0.0,0.0,0.0,0.0,0.0,0.0,0.0,0.0,0.0,0.0,0.0,0.0,0.0,0.0,0.0,0.0,0.0,0.0,0.0,0.0,0.0,0.0,0.0,0.0,0.0,0.0,0.0,0.0,0.0,0.0,0.0,0.0,0.0,0.0,0.0,0.0,0.0,0.0,0.0,0.0,0.0,0.0,0.0,0.0,0.0,0.0,0.0,0.0,0.0,0.0,0.0,0.0,0.0,0.0,0.0,0.0,0.0,0.0,0.0,0.0,0.0,0.0,0.0,0.0,0.0,0.0,0.0,0.0,0.0,0.0,0.0,0.0,0.0,0.0,0.0,0.0,0.0,0.0,0.0,0.0,0.0,0.0,0.0,0.0,0.0,0.0,0.0,0.0,0.0,0.0,0.0,0.0,0.0,0.0,0.0,0.0,0.0,0.0,0.0,0.0,0.0,0.0,0.0,0.0,0.0,0.0,0.0,0.0,0.0,0.0,0.0,0.0,0.0,0.0,0.0,0.0,0.0,0.0,0.0,0.0,0.0,0.0,0.0,0.0,0.0,0.0,0.0,0.0,0.0,0.0,0.0,0.0,0.0,0.0,0.0,0.0,0.0,0.0,0.0,0.0,0.0,0.0,0.0,0.0,0.0,0.0,0.0,0.0,0.0,0.0,0.0,0.0,0.0,0.0,0.0,0.0,0.0,0.0,0.0,0.0,0.0,0.0,0.0,0.0,0.0,0.0,0.0,0.0,0.0,0.0,0.0,0.0,0.0,0.0,0.0,0.0,0.0,0.0,0.0,0.0,0.0,0.0,0.0,0.0,0.0,0.0,0.0,0.0,0.0,0.0,0.0,0.0,0.0,0.0,0.0,0.0,0.0,0.0,0.0,0.0,0.0,0.0,0.0,0.0,0.0,0.0,0.0,0.0,0.0,0.0,0.0,0.0,0.0,0.0,0.0,0.0,0.0,0.0,0.0,0.0,0.0,0.0,0.0,0.0,0.0,0.0,0.0,0.0,0.0,0.0,0.0,0.0,0.0,0.0,0.0,0.0,0.0,0.0,0.0,0.0,0.0,0.0,0.0,0.0,0.0,0.0,0.0,0.0,0.0,0.0,0.0,0.0,0.0,0.0,0.0,0.0,0.0,0.0,0.0,0.0,0.0,0.0,0.0,0.0,0.0,0.0,0.0,0.0,0.0,0.0,0.0,0.0,0.0,0.0,0.0,0.0,0.0,0.0,0.0,0.0,0.0,0.0,0.0,0.0,0.0,0.0,0.0,0.0,0.0,0.0,0.0,0.0,0.0,0.0,0.0,0.0,0.0,0.0,0.0,0.0,0.0,0.0,0.0,0.0,0.0,0.0,0.0,0.0,0.0,0.0,0.0,0.0,0.0,0.0,0.0,0.0,0.0,0.0,0.0,0.0,0.0,0.0,0.0,0.0,0.0,0.0,0.0,0.0,0.0,0.0,0.0,0.0,0.0,0.0,0.0,0.0,0.0,0.0,0.0,0.0,0.0,0.0,0.0,0.0,0.0,0.0,0.0,0.0,0.0,0.0,0.0,0.0,0.0,0.0,0.0,0.0,0.0,0.0,0.0,0.0,0.0,0.0,0.0,0.0,0.0,0.0,0.0,0.0,0.0,0.0,0.0,0.0,0.0,0.0,0.0,0.0,0.0,0.0,0.0,0.0,0.0,0.0,0.0,0.0,0.0,0.0,0.0,0.0,0.0,0.0,0.0,0.0,0.0,0.0,0.0,0.0,0.0,0.0,0.0,0.0,0.0,0.0,0.0,0.0,0.0,0.0,0.0,0.0,0.0,0.0,0.0,0.0,0.0,0.0,0.0,0.0,0.0,0.0,0.0,0.0,0.0,0.0,0.0,0.0,0.0,0.0,0.0,0.0,0.0,0.0,0.0,0.0,0.0,0.0,0.0,0.0,0.0,0.0,0.0,0.0,0.0,0.0,0.0,0.0,0.0,0.0,0.0,0.0,0.0,0.0,0.0,0.0,0.0,0.0,0.0,0.0,0.0,0.0,0.0,0.0,0.0,0.0,0.0,0.0,0.0,0.0,0.0,0.0,0.0,0.0,0.0,0.0,0.0,0.0,0.0,0.0,0.0,0.0,0.0,0.0,0.0,0.0,0.0,0.0,0.0,0.0,0.0,0.0,0.0,0.0,0.0,0.0,0.0,0.0,0.0,0.0,0.0,0.0,0.0,0.0,0.0,0.0,0.0,0.0,0.0,0.0,0.0,0.0,0.0,0.0,0.0,0.0,0.0,0.0,0.0,0.0,0.0,0.0,0.0,0.0,0.0,0.0,0.0,0.0,0.0,0.0,0.0,0.0,0.0,0.0,0.0,0.0,0.0,0.0,0.0,0.0,0.0,0.0,0.0,0.0,0.0,0.0,0.0,0.0,0.0,0.0,0.0,0.0,0.0,0.0,0.0,0.0,0.0,0.0,0.0,0.0,0.0,0.0,0.0,0.0,0.0,0.0,0.0,0.0,0.0,0.0,0.0,0.0,0.0,0.0,0.0,0.0,0.0,0.0,0.0,0.0,0.0,0.0,0.0,0.0,0.0,0.0,0.0,0.0,0.0,0.0,0.0,0.0,0.0,0.0,0.0,0.0,0.0,0.0,0.0,0.0,0.0,0.0,0.0,0.0,0.0,0.0,0.0,0.0,0.0,0.0,0.0,0.0,0.0,0.0,0.0,0.0,0.0,0.0,0.0,0.0,0.0,0.0,0.0,0.0,0.0,0.0,0.0,0.0,0.0,0.0,0.0,0.0,0.0,0.0,0.0,0.0,0.0,0.0,0.0,0.0,0.0,0.0,0.0,0.0,0.0,0.0,0.0,0.0,0.0,0.0,0.0,0.0,0.0,0.0,0.0,0.0,0.0,0.0,0.0,0.0,0.0,0.0,0.0,0.0,0.0,0.0,0.0,0.0,0.0,0.0,0.0,0.0,0.0,0.0,0.0,0.0,0.0,0.0,0.0,0.0,0.0,0.0,0.0,0.0,0.0,0.0,0.0,0.0,0.0,0.0,0.0,0.0,0.0,0.0,0.0,0.0,0.0,0.0,0.0,0.0,0.0,0.0,0.0,0.0,0.0,0.0,0.0,0.0,0.0,0.0,0.0,0.0,0.0,0.0,0.0,0.0,0.0,0.0,0.0,0.0,0.0,0.0,0.0,0.0,0.0,0.0,0.0,0.0,0.0,0.0,0.0,0.0,0.0,0.0,0.0,0.0,0.0,0.0,0.0,0.0,0.0,0.0,0.0,0.0,0.0,0.0,0.0,0.0,0.0,0.0,0.0,0.0,0.0,0.0,0.0,0.0,0.0,0.0,0.0,0.0,0.0,0.0,0.0,0.0,0.0,0.0,0.0,0.0,0.0,0.0,0.0,0.0,0.0,0.0,0.0,0.0,0.0,0.0,0.0,0.0,0.0,0.0,0.0,0.0,0.0,0.0,0.0,0.0,0.0,0.0,0.0,0.0,0.0,0.0,0.0,0.0,0.0,0.0,0.0,0.0,0.0,0.0,0.0,0.0,0.0,0.0,0.0,0.0,0.0,0.0,0.0,0.0,0.0,0.0,0.0,0.0,0.0,0.0,0.0,0.0,0.0,0.0,0.0,0.0,0.0,0.0,0.0,0.0,0.0,0.0,0.0,0.0,0.0,0.0,0.0,0.0,0.0,0.0,0.0,0.0,0.0,0.0,0.0,0.0,0.0,0.0,0.0,0.0,0.0,0.0,0.0,0.0,0.0,0.0,0.0,0.0,0.0,0.0,0.0,0.0,0.0,0.0,0.0,0.0,0.0,0.0,0.0,0.0,0.0,0.0,0.0,0.0,0.0,0.0,0.0,0.0,0.0,0.0,0.0,0.0,0.0,0.0,0.0,0.0,0.0,0.0,0.0,0.0,0.0,0.0,0.0,0.0,0.0,0.0,0.0,0.0,0.0,0.0,0.0,0.0,0.0,0.0,0.0,0.0,0.0,0.0,0.0,0.0,0.0,0.0,0.0,0.0,0.0,0.0,0.0,0.0,0.0,0.0,0.0,0.0,0.0,0.0,0.0,0.0,0.0,0.0,0.0,0.0,0.0,0.0,0.0,0.0,0.0,0.0,0.0,0.0,0.0,0.0,0.0,0.0,0.0,0.0,0.0,0.0,0.0,0.0,0.0,0.0,0.0,0.0,0.0,0.0,0.0,0.0,0.0,0.0,0.0,0.0,0.0,0.0,0.0,0.0,0.0,0.0,0.0,0.0,0.0,0.0,0.0,0.0,0.0,0.0,0.0,0.0,0.0,0.0,0.0,0.0,0.0,0.0,0.0,0.0,0.0,0.0,0.0,0.0,0.0,0.0,0.0,0.0,0.0,0.0,0.0,0.0,0.0,0.0,0.0,0.0,0.0,0.0,0.0,0.0,0.0,0.0,0.0,0.0,0.0,0.0,0.0,0.0,0.0,0.0,0.0,0.0,0.0,0.0,0.0,0.0,0.0,0.0,0.0,0.0,0.0,0.0,0.0,0.0,0.0,0.0,0.0,0.0,0.0,0.0,0.0,0.0,0.0,0.0,0.0,0.0,0.0,0.0,0.0,0.0,0.0,0.0,0.0,0.0,0.0,0.0,0.0,0.0,0.0,0.0,0.0,0.0,0.0,0.0,0.0,0.0,0.0,0.0,0.0,0.0,0.0,0.0,0.0,0.0,0.0,0.0,0.0,0.0,0.0,0.0,0.0,0.0,0.0,0.0,0.0,0.0,0.0,0.0,0.0,0.0,0.0,0.0,0.0,0.0,0.0,0.0,0.0,0.0,0.0,0.0,0.0,0.0,0.0,0.0,0.0,0.0,0.0,0.0,0.0,0.0,0.0,0.0,0.0,0.0,0.0,0.0,0.0,0.0,0.0,0.0,0.0,0.0,0.0,0.0,0.0,0.0,0.0,0.0,0.0,0.0,0.0,0.0,0.0,0.0,0.0,0.0,0.0,0.0,0.0,0.0,0.0,0.0,0.0,0.0,0.0,0.0,0.0,0.0,0.0,0.0,0.0,0.0,0.0,0.0,0.0,0.0,0.0,0.0,0.0,0.0,0.0,0.0,0.0,0.0,0.0,0.0,0.0,0.0,0.0,0.0,0.0,0.0,0.0,0.0,0.0,0.0,0.0,0.0,0.0,0.0,0.0,0.0,0.0,0.0,0.0,0.0,0.0,0.0,0.0,0.0,0.0,0.0,0.0,0.0,0.0,0.0,0.0,0.0,0.0,0.0,0.0,0.0,0.0,0.0,0.0,0.0,0.0,0.0,0.0,0.0,0.0,0.0,0.0,0.0,0.0,0.0,0.0,0.0,0.0,0.0,0.0,0.0,0.0,0.0,0.0,0.0,0.0,0.0,0.0,0.0,0.0,0.0,0.0,0.0,0.0,0.0,0.0,0.0,0.0,0.0,0.0,0.0,0.0,0.0,0.0,0.0,0.0,0.0,0.0,0.0,0.0,0.0,0.0,0.0,0.0,0.0,0.0,0.0,0.0,0.0,0.0,0.0,0.0,0.0,0.0,0.0,0.0,0.0,0.0,0.0,0.0,0.0,0.0,0.0,0.0,0.0,0.0,0.0,0.0,0.0,0.0,0.0,0.0,0.0,0.0,0.0,0.0,0.0,0.0,0.0,0.0,0.0,0.0,0.0,0.0,0.0,0.0,0.0,0.0,0.0,0.0,0.0,0.0,0.0,0.0,0.0,0.0,0.0,-4.3447,-4.3162,0.0,0.0,0.0,0.0,0.0,0.0,0.0,0.0,0.0,0.0,0.0,0.0,0.0,0.0,0.0,0.0,0.0,0.0,0.0,0.0,0.0,0.0,0.0,-2.7841,-2.9034,-3.0361,-3.1208,-3.2124,-3.3227,0.0,0.0,0.0,0.0,0.0,-3.4189,-3.4534,-3.4769,-3.4892,-3.4716,-3.5168,-3.6235,-3.7272,-3.744,-3.6937,0.0,0.0,0.0,0.0,0.0,0.0,0.0,0.0,0.0,0.0,0.0,0.0,0.0,0.0,0.0,0.0,0.0,0.0,0.0,0.0,0.0,0.0,0.0,0.0,0.0,0.0,0.0,0.0,0.0,0.0,0.0,0.0,0.0,0.0,0.0,0.0,0.0,0.0,0.0,0.0,0.0,0.0,0.0,0.0,0.0,0.0,0.0,0.0,0.0,0.0,0.0,0.0,0.0,0.0,0.0,0.0,0.0,0.0,0.0,0.0,0.0,0.0,0.0,0.0,0.0,0.0,0.0,0.0,0.0,0.0,-4.681,-4.5822,0.0,0.0,0.0,0.0,0.0,0.0,0.0,0.0,0.0,0.0,0.0,0.0,0.0,0.0,0.0,0.0,0.0,0.0,0.0,0.0,0.0,-2.721,-2.7642,-2.8149,-2.9149,-3.091,-3.1412,-3.2179,-3.3395,-3.3459,0.0,0.0,-3.388,-3.4245,-3.4357,-3.5048,-3.5414,-3.5498,-3.5654,-3.6555,-3.8234,-4.0184,-4.0442,-3.9237,-3.9023,0.0,0.0,0.0,0.0,0.0,0.0,0.0,0.0,0.0,0.0,0.0,0.0,0.0,0.0,0.0,0.0,0.0,0.0,0.0,0.0,0.0,0.0,0.0,0.0,0.0,0.0,0.0,0.0,0.0,0.0,0.0,0.0,0.0,0.0,0.0,0.0,0.0,0.0,0.0,0.0,0.0,0.0,0.0,0.0,0.0,0.0,0.0,0.0,0.0,0.0,0.0,0.0,0.0,0.0,0.0,0.0,0.0,0.0,0.0,0.0,0.0,0.0,0.0,-4.9409,-5.0776,-5.2504,-5.2775,-5.3657,-5.4738,-5.1376,-4.9663,-4.9087,-4.8745,0.0,0.0,0.0,0.0,0.0,0.0,0.0,0.0,0.0,0.0,0.0,0.0,0.0,0.0,0.0,0.0,0.0,0.0,0.0,-2.7594,-2.7666,-2.9199,-3.0609,-3.1588,-3.2776,-3.3639,-3.4068,-3.4076,-3.3852,-3.3319,-3.388,-3.4478,-3.5048,-3.5667,-3.6258,-3.6792,-3.6989,-3.7873,-3.9349,-4.0813,-4.2181,-4.3261,-4.1703,-4.0905,-4.0742,0.0,0.0,0.0,0.0,0.0,0.0,0.0,0.0,0.0,0.0,0.0,0.0,0.0,0.0,0.0,0.0,0.0,0.0,0.0,0.0,0.0,0.0,0.0,0.0,0.0,0.0,0.0,0.0,0.0,0.0,0.0,0.0,0.0,0.0,0.0,0.0,0.0,0.0,0.0,0.0,0.0,-4.1579,-4.2428,0.0,0.0,0.0,0.0,0.0,0.0,0.0,0.0,0.0,0.0,0.0,0.0,0.0,-4.7555,-4.9183,-5.1471,-5.2479,-5.222,-5.508,-5.6363,-5.6138,-5.7129,-5.8269,-5.9339,-5.8791,0.0,-5.2668,-5.2082,0.0,0.0,0.0,0.0,0.0,0.0,0.0,0.0,0.0,0.0,0.0,0.0,0.0,0.0,0.0,0.0,0.0,0.0,0.0,0.0,0.0,-2.9782,-3.099,-3.2163,-3.3897,-3.4904,-3.4778,-3.5405,-3.5349,-3.4393,-3.4927,-3.5405,-3.5695,-3.6084,-3.6758,-3.7731,-3.9184,-4.0511,-4.1663,-4.3283,-4.4283,-4.471,-4.4918,-4.3979,-4.2267,-4.1739,0.0,0.0,0.0,0.0,0.0,0.0,0.0,0.0,0.0,0.0,0.0,0.0,0.0,0.0,0.0,0.0,0.0,0.0,0.0,0.0,0.0,0.0,0.0,0.0,0.0,0.0,0.0,0.0,0.0,0.0,0.0,0.0,0.0,0.0,0.0,0.0,0.0,0.0,0.0,-4.2576,-4.428,-4.4305,-4.5868,-4.6475,0.0,0.0,0.0,0.0,0.0,0.0,0.0,0.0,0.0,-4.9984,-5.1275,-5.2544,-5.3829,-5.5914,-5.7338,-5.8068,-5.9731,-6.0927,-6.1633,-6.2156,-6.2835,-6.362,-6.362,-6.2104,-5.9411,-5.6223,-5.387,-5.2082,0.0,0.0,0.0,0.0,-4.8579,-4.9791,0.0,0.0,0.0,0.0,0.0,0.0,0.0,0.0,0.0,0.0,0.0,0.0,-2.9268,-3.0588,-3.1904,-3.2817,-3.4927,-3.6004,-3.553,-3.6301,-3.6314,-3.5245,-3.578,-3.6117,-3.6117,-3.69,-3.7813,-3.8969,-4.1352,-4.3125,-4.4352,-4.6011,-4.6878,-4.7085,-4.8086,-4.6948,-4.4251,-4.3438,-4.2556,-4.1708,0.0,0.0,0.0,0.0,0.0,0.0,0.0,0.0,0.0,0.0,0.0,0.0,0.0,0.0,0.0,0.0,0.0,0.0,0.0,0.0,0.0,0.0,0.0,0.0,0.0,0.0,0.0,0.0,0.0,0.0,0.0,0.0,0.0,0.0,0.0,0.0,0.0,-4.5157,-4.6963,-4.6147,-4.8716,-4.9613,0.0,0.0,0.0,0.0,0.0,0.0,-5.2099,-5.301,-5.4233,-5.5988,-5.6876,-5.7893,-5.8993,-6.0718,-6.2156,-6.3306,-6.4168,-6.524,-6.6495,-6.6652,-6.6965,-6.7383,-6.7383,-6.6547,-6.4822,-6.0091,-5.6876,-5.4745,-5.289,-5.1998,-5.1827,-5.096,-5.1485,-5.2725,0.0,0.0,0.0,0.0,0.0,0.0,0.0,0.0,0.0,0.0,0.0,-2.9268,-2.9292,-3.2077,-3.3846,-3.3765,-3.6013,-3.7094,-3.6304,-3.6191,-3.5864,-3.5217,-3.578,-3.6117,-3.6117,-3.8412,-3.9988,-4.0761,-4.3266,-4.5348,-4.7114,-4.8318,-5.0018,-5.2011,-5.0846,-4.9164,-4.6991,-4.5511,-4.5082,-4.5223,-4.2841,0.0,0.0,0.0,0.0,0.0,0.0,0.0,0.0,0.0,0.0,0.0,0.0,0.0,0.0,0.0,0.0,0.0,0.0,0.0,0.0,0.0,0.0,0.0,0.0,0.0,0.0,0.0,0.0,0.0,0.0,0.0,0.0,0.0,0.0,0.0,0.0,0.0,0.0,-4.8356,-5.1588,0.0,0.0,0.0,0.0,-5.465,-5.5944,-5.7848,-6.0616,-5.991,-6.0494,-6.303,-6.2635,-6.328,-6.4926,-6.6678,-6.7305,-6.6861,-6.8533,-6.9396,-6.9501,-7.0076,-7.0363,-7.0389,-7.0389,-6.9082,-6.673,-6.3175,-6.0666,-5.8941,-5.7791,-5.6938,-5.6487,-5.6545,-5.645,-5.6163,0.0,0.0,0.0,0.0,0.0,-2.7007,-2.8065,-2.8234,-2.8426,-2.8955,-2.9172,-2.9821,-3.1216,-3.35,-3.5305,-3.6309,-3.8347,-3.9269,-3.8602,-3.8165,-3.7636,-3.6989,-3.6754,-3.6917,-3.7461,-3.984,-4.1838,-4.3438,-4.6173,-4.8287,-4.9721,-5.0873,-5.1807,-5.2528,-5.2636,-5.2207,-5.1227,-4.8565,-4.6296,-4.4534,-4.4095,-4.2948,0.0,0.0,0.0,0.0,0.0,0.0,0.0,0.0,0.0,0.0,0.0,0.0,0.0,0.0,0.0,0.0,0.0,0.0,0.0,0.0,0.0,0.0,0.0,0.0,0.0,0.0,0.0,0.0,0.0,0.0,0.0,0.0,0.0,0.0,0.0,0.0,0.0,-5.3952,-5.7124,0.0,-5.6436,-5.7274,-5.8411,-5.9548,-6.2002,-6.4248,-6.6002,-6.5884,-6.6457,-6.804,-6.7191,-6.7357,-6.8716,-6.9344,-6.9919,-7.0442,-7.0677,-7.099,-7.1382,-7.1592,-7.1696,-7.167,-7.1278,-7.0442,-6.9213,-6.72,-6.4273,-6.1006,-6.0588,-5.932,-5.775,-5.7725,-5.7669,-5.7413,0.0,0.0,0.0,-2.5131,-2.6177,-2.7186,-2.8114,-2.8402,-2.8691,-2.922,-2.9605,-3.0664,-3.2812,-3.5168,-3.7059,-3.8286,-3.9984,-4.0615,-3.9658,-3.8949,-3.8243,-3.7625,-3.7597,-3.8178,-3.9311,-4.1952,-4.4298,-4.6271,-4.881,-5.0463,-5.1319,-5.2235,-5.2771,-5.2938,-5.3525,-5.3761,-5.3535,-5.14,-4.8723,-4.5886,-4.5341,-4.4439,-4.324,0.0,0.0,0.0,0.0,0.0,0.0,0.0,0.0,0.0,0.0,0.0,0.0,0.0,0.0,0.0,0.0,0.0,0.0,0.0,0.0,0.0,0.0,0.0,0.0,0.0,0.0,0.0,0.0,0.0,0.0,0.0,0.0,0.0,0.0,0.0,-5.7842,-5.868,-6.2331,-6.3977,-6.1942,-6.2989,-6.4126,-6.4994,-6.7717,-7.0141,-7.2051,-7.1105,-7.1297,-7.2821,-7.0994,-7.0468,-7.1435,-7.1644,-7.201,-7.2559,-7.2376,-7.248,-7.2872,-7.2872,-7.2768,-7.2559,-7.214,-7.133,-7.0232,-6.9684,-6.7174,-6.3698,-6.3698,-6.22,-5.9995,-6.0397,-5.9589,-5.8274,0.0,-2.3818,-2.4131,-2.5131,-2.6177,-2.7066,-2.7594,-2.8162,-2.8715,-2.9244,-3.023,-3.1766,-3.3928,-3.6936,-3.9055,-3.9659,-4.085,-4.0896,-3.9274,-3.838,-3.7625,-3.7091,-3.8311,-3.9816,-4.1683,-4.4743,-4.727,-4.914,-5.0961,-5.1861,-5.1886,-5.2496,-5.3088,-5.3671,-5.3778,-5.3754,-5.3726,-5.3882,-5.2428,-4.9795,-4.6753,-4.5795,-4.5938,0.0,0.0,0.0,0.0,0.0,0.0,0.0,0.0,0.0,0.0,0.0,0.0,0.0,0.0,0.0,0.0,0.0,0.0,0.0,0.0,0.0,0.0,0.0,0.0,0.0,0.0,0.0,0.0,0.0,0.0,0.0,0.0,0.0,-5.2546,-5.8112,-6.2301,-6.2421,-6.6999,-6.8914,-6.5772,-6.7777,-6.9812,-7.1068,-7.3013,-7.5527,-7.8729,-7.5754,-7.5002,-7.7362,-7.415,-7.2611,-7.316,-7.3735,-7.3735,-7.3186,-7.3761,-7.4049,-7.4049,-7.4049,-7.3735,-7.316,-7.3134,-7.1853,-6.9814,-7.0389,-6.9265,-6.7174,-6.7148,-6.5608,-6.3493,-6.4583,-6.2559,-5.9002,-2.4145,-2.4025,-2.4131,-2.5131,-2.6177,-2.7066,-2.7594,-2.8162,-2.8835,-2.9749,-3.047,-3.2138,-3.5424,-3.7646,-3.9699,-4.1764,-4.137,-4.1002,-4.0924,-3.8585,-3.7765,-3.8974,-3.976,-4.1479,-4.4235,-4.65,-4.8482,-5.0342,-5.1704,-5.2834,-5.3764,-5.3968,-5.4346,-5.501,-5.5465,-5.5412,-5.499,-5.5024,-5.412,-5.2437,-4.9882,-4.7845,-4.6136,0.0,0.0,0.0,0.0,0.0,0.0,0.0,0.0,0.0,0.0,0.0,0.0,0.0,0.0,0.0,0.0,0.0,0.0,0.0,0.0,0.0,0.0,0.0,0.0,0.0,0.0,0.0,0.0,0.0,0.0,0.0,-5.5628,-5.8112,-5.7932,-6.2391,-6.67,-6.9602,-7.2505,-7.448,-7.4958,-7.5228,-7.5946,-7.7263,-7.8759,-8.0225,-8.1601,-7.9235,-7.8144,-7.8846,-7.5357,-7.3813,-7.4414,-7.4153,-7.4336,-7.499,-7.478,-7.4859,-7.5251,-7.5251,-7.4937,-7.4388,-7.3944,-7.2925,-7.1565,-7.1304,-7.0311,-6.8926,-6.8533,-6.6795,-6.4526,-6.4309,-6.2003,-5.8964,-2.4699,-2.4434,-2.4338,-2.5155,-2.6021,-2.6767,-2.7258,-2.781,-2.8643,-2.9917,-3.0951,-3.2775,-3.5868,-3.8213,-4.0162,-4.1692,-4.1398,-4.0928,-4.0519,-3.8572,-3.7949,-3.9114,-4.0675,-4.2838,-4.5672,-4.8043,-5.0161,-5.1987,-5.2916,-5.3947,-5.4911,-5.516,-5.565,-5.6289,-5.6921,-5.7013,-5.6648,-5.6395,-5.558,-5.4345,-5.2701,-5.0687,-4.8505,-4.6276,-4.5449,-4.5255,-4.3889,-4.3316,-4.3092,-4.2444,0.0,0.0,0.0,0.0,0.0,0.0,0.0,0.0,0.0,0.0,0.0,0.0,0.0,0.0,0.0,0.0,0.0,0.0,0.0,0.0,0.0,0.0,0.0,0.0,-6.0146,-6.3558,-6.5233,-6.8016,-7.1038,-7.418,-7.6814,-7.8819,-7.9926,-8.0434,-8.0913,-8.1422,-8.2679,-8.3121,-8.2485,-8.0551,-7.9157,-7.8645,-7.5889,-7.465,-7.5251,-7.4885,-7.5042,-7.5721,-7.5382,-7.5408,-7.5721,-7.5721,-7.5277,-7.4519,-7.4153,-7.3212,-7.1905,-7.1539,-7.0886,-6.9912,0.0,0.0,0.0,0.0,-6.0416,-5.8962,-2.5192,-2.4856,-2.4664,-2.5157,-2.5721,-2.6249,-2.6764,-2.7292,-2.8203,-2.9827,-3.1412,-3.3223,-3.5556,-3.8268,-4.0013,-4.0315,-4.0703,-4.0315,-3.8768,-3.8464,-3.8483,-3.8895,-4.1741,-4.4424,-4.6783,-4.9694,-5.1982,-5.3579,-5.4185,-5.4824,-5.5524,-5.6132,-5.6741,-5.7446,-5.8115,-5.839,-5.8362,-5.7884,-5.7013,-5.5861,-5.5187,-5.3751,-5.1718,-4.9287,-4.8779,-4.9092,-4.7758,-4.6677,-4.5712,-4.4966,0.0,0.0,0.0,0.0,0.0,0.0,0.0,0.0,0.0,0.0,0.0,0.0,0.0,0.0,0.0,0.0,0.0,0.0,0.0,0.0,0.0,0.0,0.0,0.0,-6.5054,-6.9064,-7.2834,-7.418,-7.5407,-7.7083,-8.0075,-8.205,-8.22,-8.3816,-8.4594,-8.3995,-8.5043,-8.4694,-8.2262,0.0,0.0,0.0,0.0,-7.5251,-7.58,-7.5748,-7.5721,-7.5721,-7.5721,-7.5721,-7.5721,-7.5721,-7.512,-7.4101,-7.4049,-7.3081,-7.1592,-7.1539,-7.0975,-6.9954,-6.7818,-6.5689,-6.3397,-6.0007,-5.8932,-5.91,-2.5111,-2.4717,-2.4456,-2.4826,-2.5419,-2.5978,-2.6387,-2.6869,-2.7845,-2.96,-3.0683,-3.216,-3.4508,-3.5934,-3.7436,-3.9283,-3.7939,-3.7041,-3.7118,-3.8612,-4.0439,-4.2581,-4.5454,-4.7996,-4.9983,-5.2056,-5.3268,-5.3582,-5.4181,-5.4841,-5.5524,-5.6132,-5.6987,-5.8121,-5.875,-5.9036,-5.9064,-5.943,-5.9177,-5.839,-5.7294,-5.4852,-5.1666,-5.0223,-4.9398,-4.8906,-4.7659,-4.7716,-4.8063,-4.6469,-4.6429,-4.6671,-4.4666,-4.3969,0.0,0.0,0.0,0.0,0.0,0.0,0.0,0.0,0.0,0.0,0.0,0.0,0.0,0.0,0.0,0.0,0.0,0.0,0.0,-6.3588,-6.8944,-7.3373,-7.5736,-7.8489,-8.0195,-8.0045,-8.1991,-8.3786,-8.4833,-8.5282,-8.5462,-8.5312,-8.5551,-8.4872,-8.293,-8.16,-8.0263,-7.899,-7.6751,-7.5852,-7.6427,-7.5957,-7.5721,-7.5721,-7.5721,0.0,-7.5721,-7.5721,-7.5355,-7.4702,-7.4205,-7.3526,-7.2742,-7.2297,-7.0153,-6.7227,-6.7425,-6.5769,-6.3326,-6.2173,-6.1141,-6.0156,-2.4778,-2.4673,-2.4578,-2.479,-2.5274,-2.5793,-2.6212,-2.6752,-2.7686,-2.939,-3.0501,-3.1698,-3.3114,-3.4916,-3.6102,-3.6463,-3.5897,-3.5587,-3.5807,-3.8482,-4.092,-4.2884,-4.6329,-4.9085,-5.0847,-5.2678,-5.3964,-5.4512,-5.5508,-5.6421,-5.7339,-5.8348,-5.9228,-6.016,-6.0469,-6.061,-6.061,-6.061,-6.0245,-5.9626,-5.9008,-5.7097,-5.4428,-5.2854,-5.1702,-5.0803,-5.0185,-4.996,-4.9764,-4.8555,-4.8331,-4.8195,-4.6392,-4.538,-4.4725,0.0,0.0,0.0,0.0,0.0,0.0,0.0,0.0,0.0,0.0,0.0,0.0,0.0,0.0,-5.3893,-5.6576,0.0,-6.4366,-6.8315,-7.3133,-7.6814,-7.813,-8.0883,-8.226,-8.0943,-8.2828,-8.4624,-8.5611,-8.6299,-8.6689,-8.6689,-8.5831,-8.4474,-8.262,-8.0806,-7.9414,-7.8468,-7.66,-7.6009,-7.661,-7.6009,-7.5721,-7.5721,-7.5721,-7.5721,-7.5721,-7.5721,-7.5251,-7.4441,-7.4127,-7.3526,-7.2575,-7.1361,-6.8801,-6.5652,-6.5811,-6.4125,-6.1445,-6.0954,-6.0485,-6.0087,-2.4454,-2.4655,-2.4787,-2.4693,-2.5091,-2.5583,-2.6121,-2.6636,-2.7549,-2.9113,-3.0252,-3.1149,-3.1763,-3.3788,-3.4593,-3.3293,-3.4319,-3.5146,-3.5299,-3.8755,-4.1486,-4.2954,-4.6816,-4.9618,-5.105,-5.3025,-5.4529,-5.5524,-5.6992,-5.825,-5.9233,-6.0497,-6.1481,-6.2183,-6.2183,-6.2324,-6.2521,-6.2015,-6.1509,-6.1003,-6.0638,-5.9598,-5.8053,-5.5945,-5.4344,-5.322,-5.2967,-5.2012,-5.0857,-5.0491,-4.982,-4.9009,-4.819,-4.7207,-4.6223,-4.524,-4.4172,0.0,0.0,0.0,0.0,0.0,0.0,0.0,0.0,0.0,-5.1957,-5.4257,-5.6081,-5.8308,-6.1876,-6.5381,-6.9004,-7.2864,-7.6694,-7.9477,-8.0285,-8.2439,-8.3337,-8.1751,-8.3666,-8.5342,-8.603,-8.7077,-8.7545,-8.7163,-8.5768,-8.3872,-8.156,-7.9652,-7.8308,-7.7514,-7.6323,-7.6113,-7.6924,-7.6113,-7.5826,-7.6061,-7.5826,-7.5774,-7.5878,-7.5774,-7.5146,-7.4179,-7.3944,-7.3139,-7.1848,-6.9777,-6.7332,-6.4847,-6.3955,-6.2146,-5.9972,-5.9674,-5.9697,-5.988,-2.4236,-2.4581,-2.4779,-2.4342,-2.4775,-2.5359,-2.5701,-2.6207,-2.7186,-2.8924,-2.9447,-2.9958,-3.0694,-3.1275,-3.1391,-3.0968,-3.3444,-3.5475,-3.6603,-4.0482,-4.3651,-4.5853,-4.9467,-5.1476,-5.1629,-5.4036,-5.5358,-5.5524,-5.7858,-5.9093,-5.9233,-6.0497,-6.1706,-6.283,-6.283,-6.342,-6.4459,-6.4375,-6.4319,-6.4094,-6.2464,-6.1678,-6.1172,-5.8193,-5.6283,-5.5046,-5.395,-5.2405,-5.0944,-5.1421,-5.0803,-4.9985,-5.0326,-5.0382,-4.982,-4.7544,-4.642,-4.5633,-4.4603,-4.4755,-4.5173,-4.5195,-4.6244,-4.799,0.0,0.0,-5.5789,-5.8888,-6.1352,-6.3663,-6.588,-6.8569,-7.1577,-7.5018,-7.84,-8.1003,-8.226,-8.3696,-8.4534,-8.4295,-8.5551,-8.6718,-8.7407,-8.7616,-8.7001,-8.5326,-8.4964,-8.3079,-7.9141,-7.9106,-7.8683,-7.754,-7.6323,-7.6505,-7.81,-7.6532,-7.6244,-7.7263,-7.6218,-7.5983,-7.6505,-7.5957,-7.5382,-7.4754,-7.3683,-7.2422,-7.0935,-6.841,-6.6361,-6.4731,-6.2387,-6.1304,-6.1097,-6.1511,-6.112,-6.0454,-2.42,-2.459,-2.4843,-2.4636,-2.5355,-2.6016,-2.6145,-2.6588,-2.7387,-2.8691,-2.908,-2.9519,-3.0259,-3.0605,-3.0628,-3.0375,-3.2187,-3.4118,-3.6063,-3.9588,-4.2764,-4.5356,-4.8557,-5.0734,-5.18,-5.321,-5.4635,-5.5893,-5.7708,-5.9003,-5.9726,-6.1006,-6.2099,-6.2942,-6.3279,-6.3729,-6.4207,-6.4207,-6.4403,-6.4724,-6.3504,-6.2408,-6.1256,-5.9233,-5.6535,-5.3754,-5.2883,-5.1843,0.0,-5.0354,-5.0073,-5.0041,-5.0322,-4.9848,-4.9005,-4.7628,-4.6251,-4.5071,-4.4565,-4.5195,-4.6129,0.0,-4.8489,-5.0679,-5.3493,-5.6305,-5.9075,-6.1762,-6.4742,-6.7486,-6.9693,-7.2409,-7.5198,0.0,-8.0285,-8.226,-8.3187,-8.3786,-8.3846,-8.3098,-8.4175,-8.5521,-8.6958,-8.7107,-8.6475,-8.5018,-8.35,-8.1628,-7.9079,-7.7859,-7.7283,-7.7514,-7.6323,-7.6401,-7.7812,-7.6427,-7.614,-7.6976,-7.6113,-7.5852,-7.6087,-7.5826,-7.5225,-7.422,-7.2218,-7.0336,-6.8518,-6.6281,-6.4368,-6.2618,-6.158,-6.1051,-6.0799,-6.1028,-6.0822,-6.05,-2.4361,-2.4797,-2.5187,-2.5325,-2.6083,-2.6674,-2.6536,-2.7024,-2.7736,-2.8586,-2.9011,-2.945,-3.0124,-3.0352,-3.0397,-3.0216,-3.1225,-3.2913,-3.5341,-3.8644,-4.178,-4.461,-4.7705,-5.0113,-5.1743,-5.2817,-5.416,-5.5932,-5.7423,-5.8778,-6.0021,-6.1183,-6.2239,-6.3195,-6.3616,-6.3982,-6.4291,-6.4122,-6.4431,-6.4937,-6.3954,-6.2577,-6.0863,-5.8755,-5.5664,-5.2349,-5.1562,-5.0241,-4.878,-4.8415,-4.8246,-4.8353,-4.9028,-4.8696,-4.7965,-4.7178,-4.5745,-4.4537,-4.5043,-4.597,0.0,-4.8949,-5.112,-5.3625,-5.6337,-5.942,-6.243,-6.4842,-6.7753,-7.0572,-7.2822,-7.5044,-7.7293,-7.9477,-8.1332,-8.2769,-8.3606,-8.3014,-8.2189,-8.1314,-8.1142,-8.1857,-8.3628,-8.495,-8.5214,-8.4237,-8.197,-8.0009,-7.8381,-7.6795,-7.6349,-7.7211,-7.6244,-7.627,-7.7446,-7.6296,-7.6087,-7.6845,-7.6087,-7.58,-7.5957,-7.525,-7.4365,-7.3289,-7.0692,-6.8494,-6.6598,-6.4775,-6.2982,-6.1419,-6.1143,-6.0868,-6.0661,-6.0523,-6.0477,-6.0477,-2.4797,-2.5325,-2.5853,-2.6375,-2.6841,-2.7047,-2.6582,-2.7364,-2.8149,-2.8632,-2.916,-2.9665,-3.017,-3.0216,-3.0216,-3.0216,-3.0928,-3.244,-3.4799,-3.827,-4.1604,-4.4456,-4.7965,-5.0426,-5.1498,-5.3354,-5.464,-5.5199,-5.7185,-5.8734,-6.0021,-6.0722,-6.2036,-6.3757,-6.3785,-6.4488,-6.5583,-6.5062,-6.5078,-6.5499,-6.3673,-6.2212,-6.0638,-5.6339,-5.3529,-5.1646,-5.0491,-4.7341,-4.4003,-4.5774,-4.5183,-4.4116,-4.6532,-4.7684,-4.7881,-4.6673,-4.5408,-4.4818,-4.6616,-4.76,-4.878,-5.1815,-5.3978,-5.617,-5.9261,-6.2807,-6.6134,-6.865,-7.0825,-7.2912,-7.4962,-7.5614,-7.6784,-7.9387,-8.0943,-8.226,-8.3547,-8.1308,-7.9608,-7.955,-7.6616,-7.5087,0.0,-8.0501,-8.2886,-8.2337,-8.0472,-7.8291,-7.5931,-7.627,-7.661,-7.6636,-7.6035,-7.627,-7.7446,-7.6296,-7.6296,-7.742,-7.627,-7.6009,-7.6465,-7.3976,-7.2486,-7.1693,-6.9215,-6.7255,-6.5723,-6.4082,-6.2864,-6.1855,-6.0868,-6.0776,-6.1143,-6.0638,-6.0477,-6.0546,-2.482,-2.5348,-2.5876,-2.6421,-2.6887,-2.7144,-2.7001,-2.7552,-2.8149,-2.8632,-2.9435,0.0,0.0,0.0,0.0,0.0,-3.0604,-3.1809,-3.4033,-3.6415,-3.8707,-4.0877,-4.3929,-4.6162,-4.7498,-4.9744,-5.1702,-5.3472,-5.5794,-5.7493,-5.8762,-6.031,-6.165,-6.2661,-6.3448,-6.4038,-6.4403,-6.3813,-6.3897,-6.4207,-6.1537,-6.0216,-5.9317,-5.454,-5.1084,-4.8443,0.0,-4.4116,-4.2851,-4.2654,-4.243,-4.2542,-4.4228,-4.4874,-4.4959,-4.4565,-4.5296,-4.6504,-4.7544,-4.9764,-5.2461,-5.5131,-5.7519,-5.9781,-6.1914,-6.4261,-6.5936,-6.6081,-6.767,-6.908,-6.9626,-7.1615,-7.424,-7.7322,-7.8316,-7.9876,-8.3274,-8.0132,-7.7013,-7.5827,-7.4706,0.0,0.0,0.0,0.0,-7.86,-7.831,-7.7485,-7.5787,-7.5904,-7.6009,-7.6009,-7.5826,-7.6087,-7.6898,-7.6113,-7.6113,-7.6898,-7.4748,-7.3642,-7.3345,-7.1083,-6.9986,-6.967,-6.7115,-6.5519,-6.4609,-6.3103,-6.1879,-6.0983,-6.096,-6.0868,-6.0707,-6.0523,-6.0477,-6.05,0.0,-2.5601,-2.5922,-2.6611,-2.7024,0.0,0.0,0.0,0.0,0.0,0.0,0.0,0.0,0.0,0.0,0.0,0.0,-3.1182,-3.2858,-3.4524,-3.6192,-3.7816,-4.0644,-4.2758,-4.4031,-4.6019,-4.7921,-4.9723,-5.1865,-5.3759,-5.5255,-5.7162,-5.8731,-6.0048,-6.1059,-6.1734,-6.2099,-6.1284,-6.1031,-6.0891,-5.78,-5.603,-5.4793,-5.0466,-4.7319,0.0,-4.1952,-4.1053,-4.1209,-4.0575,-4.0491,-4.0856,-4.2093,-4.2795,-4.3357,-4.4228,-4.5942,-4.7909,-4.9623,-5.2489,-5.5636,-5.8362,-6.075,-6.2687,-6.3695,-6.4985,-6.5637,-6.4444,-6.4717,-6.5267,-6.5757,-6.7324,-6.953,-7.2756,-7.3972,-7.5769,-7.9437,-7.6215,-7.3231,-7.2687,-7.1408,-7.0159,0.0,0.0,0.0,-7.6281,-7.6344,-7.6156,-7.5761,-7.5721,-7.5721,-7.5721,-7.5721,-7.5904,-7.6296,-7.5904,-7.58,-7.5983,-7.4077,-7.2573,-7.1439,-6.9422,-6.8131,-6.7241,-6.4731,-6.3449,-6.3029,-6.1972,-6.1166,-6.0753,-6.0891,-6.0868,-6.0707,-6.0523,-6.0477,-6.0477,0.0,0.0,-2.606,0.0,0.0,0.0,0.0,0.0,0.0,0.0,0.0,0.0,0.0,0.0,0.0,0.0,0.0,0.0,-3.1321,-3.281,-3.4217,-3.5455,-3.8179,-4.0151,-4.1168,-4.2413,-4.3501,-4.428,-4.5954,-4.7815,-4.9847,-5.1503,-5.3624,-5.5999,-5.6704,-5.7659,-5.8671,-5.7463,-5.6592,-5.5777,-5.2686,-5.0073,-4.7684,-4.4593,-4.2654,-4.1306,-3.8861,-3.8383,-3.8986,-3.9577,-3.9465,-3.9268,-4.0407,-4.1671,-4.3188,-4.5633,-4.7347,-4.923,-5.2826,-5.5693,-5.839,-6.1397,-6.3476,-6.4704,-6.4526,-6.4903,-6.4943,-6.3695,-6.2089,-6.145,0.0,0.0,-6.3366,-6.641,-6.8538,-7.0646,-7.3009,-7.0379,-6.8811,0.0,0.0,0.0,0.0,0.0,0.0,-7.5292,0.0,-7.4441,-7.5643,-7.5721,-7.5721,-7.5721,-7.5721,-7.5721,-7.5721,-7.5695,-7.5408,-7.4859,-7.4051,-7.2708,-7.074,-6.8693,-6.6688,-6.4639,-6.2226,-6.1258,-6.1189,-6.0707,-6.0776,-6.1143,-6.0684,-6.0776,-6.1143,-6.0638,-6.0477,-6.0477,0.0,0.0,0.0,0.0,0.0,0.0,0.0,0.0,0.0,0.0,0.0,0.0,0.0,0.0,0.0,0.0,0.0,0.0,-3.0514,-3.1643,-3.2453,-3.2707,-3.5133,-3.6643,-3.7037,-3.908,-4.0532,-4.1281,-4.3038,-4.4629,-4.6081,-4.7538,-4.8982,-5.0458,-5.1071,-5.1737,-5.2264,-5.1478,-5.1056,-5.0637,-4.805,-4.6897,-4.642,-4.3301,-4.1896,-4.1418,-3.9873,-3.9155,-3.893,-3.9099,-3.9901,0.0,-4.184,-4.3273,-4.4931,-4.6504,-4.982,-5.3332,-5.5215,-5.8559,-6.1931,-6.3645,-6.3995,-6.3972,-6.3833,-6.2095,-6.0089,-5.8402,-5.6926,-5.6002,0.0,0.0,0.0,-6.5402,-6.8795,0.0,-7.4682,-7.3183,0.0,-7.115,0.0,-6.8664,-6.7645,-6.8455,0.0,0.0,-7.2901,-7.3604,-7.5617,-7.5721,-7.5721,-7.5721,-7.5721,-7.5721,-7.5721,-7.5303,-7.4807,-7.4232,-7.1414,-6.9423,-6.8048,-6.5678,-6.3922,-6.2689,-6.2087,-6.158,-6.1212,-6.1097,-6.0891,-6.0684,-6.0937,-6.0891,-6.0638,-6.0523,-6.0477,-6.0477,0.0,0.0,0.0,0.0,0.0,0.0,0.0,0.0,0.0,0.0,0.0,0.0,0.0,0.0,0.0,0.0,0.0,0.0,0.0,-3.0767,-3.1088,-3.1019,-3.2543,-3.3469,-3.3545,-3.5047,-3.6268,-3.6944,-3.8407,-3.988,-4.1283,-4.2569,-4.4041,-4.5646,-4.6302,-4.7101,-4.7881,-4.7263,-4.6673,0.0,0.0,-4.2795,-4.243,-4.0659,-3.9985,-3.9929,-3.9535,-3.9549,-3.9887,0.0,0.0,-4.3048,-4.4228,-4.5886,-4.7769,-4.9848,0.0,-5.6254,-5.8334,-6.0997,-6.3548,-6.4841,-6.418,-6.303,-6.2206,-5.9616,-5.6558,-5.3885,-5.1991,-5.081,-5.1072,-5.3865,0.0,0.0,0.0,0.0,-7.1467,-7.1499,-7.1229,0.0,-7.0905,0.0,-6.9239,-6.971,-7.0912,0.0,-7.2794,-7.3552,-7.5617,-7.5721,-7.5721,-7.5721,-7.5721,-7.5721,-7.5721,-7.5172,-7.4235,-7.2979,-7.0821,-6.8634,-6.6427,-6.4621,-6.3153,-6.197,-6.1511,-6.1143,-6.0891,-6.0891,-6.073,-6.05,-6.0776,-6.0707,-6.0477,-6.0477,-6.0477,-6.0477,0.0,0.0,0.0,0.0,0.0,0.0,0.0,0.0,0.0,0.0,-2.9871,-3.0216,0.0,0.0,0.0,0.0,0.0,0.0,0.0,0.0,-3.0216,-3.0216,-3.0652,-3.0905,-3.0905,-3.1341,-3.1925,-3.2627,-3.3475,-3.473,-3.6299,-3.7222,-3.8813,-4.0896,-4.1484,-4.25,-4.377,-4.3361,-4.2614,-4.1567,-4.0111,-3.8889,-3.7934,0.0,-3.8159,-3.8243,-3.893,-3.9788,-4.1109,0.0,-4.4762,-4.524,-4.7207,-4.9202,-5.1419,-5.4231,-5.6507,-5.8727,-6.1379,-6.2915,-6.4068,-6.514,-6.3761,-6.1744,-6.0049,-5.7043,-5.3714,-5.0304,-4.7848,-4.6663,-4.765,-4.9117,-5.1292,-5.487,0.0,-6.354,-6.7049,-6.856,-6.9919,-7.1565,-7.1409,-7.1147,-7.1043,-7.1121,-7.1984,-7.397,-7.363,-7.4049,-7.5643,-7.5721,-7.5721,-7.5721,-7.5721,-7.5603,-7.542,-7.4821,-7.3495,-7.1468,-7.0654,-6.8683,-6.5561,-6.452,-6.3359,-6.1924,-6.1051,-6.0661,-6.0661,-6.0523,-6.05,-6.0569,-6.05,-6.0477,-6.0477,-6.0477,-6.05,-6.0546,0.0,0.0,0.0,0.0,0.0,0.0,0.0,0.0,0.0,0.0,-2.9642,-3.0216,0.0,0.0,0.0,0.0,0.0,0.0,0.0,0.0,0.0,-3.0216,-3.0308,-3.0354,-3.0354,-3.0445,-3.0856,-3.1579,-3.1154,-3.1677,-3.3088,-3.2723,-3.3291,-3.4587,-3.4689,-3.5184,-3.5996,-3.6638,-3.6892,-3.6962,-3.7848,-3.8102,-3.8018,-3.9058,0.0,0.0,-4.0154,-4.0519,-4.125,-4.479,-4.6645,-4.7881,-5.0241,-5.2967,-5.5608,-5.7182,-5.9711,-6.2052,-6.2418,-6.3819,-6.4851,-6.404,-6.1982,-5.977,-5.8123,-5.4163,0.0,0.0,-4.6651,-4.5654,-4.5915,-4.8973,-5.2737,-5.6557,0.0,0.0,0.0,0.0,-7.2167,0.0,-7.3918,-7.397,-7.3474,-7.3866,0.0,0.0,-7.465,-7.4911,-7.5669,-7.5721,-7.5721,-7.5721,-7.5721,-7.5051,-7.3818,-7.2798,-7.1477,-6.9845,-6.7678,-6.6094,-6.4969,-6.4038,-6.3056,-6.197,-6.1786,-6.1717,-6.1648,-6.0822,-6.0707,-6.1051,-6.0638,-6.0477,-6.0477,-6.0477,-6.073,-6.1028,0.0,0.0,0.0,0.0,0.0,0.0,0.0,-2.8241,-2.8792,-2.9068,-2.9757,-3.0216,-3.0216,-3.0216,-3.0216,0.0,0.0,0.0,0.0,0.0,0.0,-3.0216,-3.0216,-3.0216,-3.0216,-3.0216,-3.0674,-3.1576,0.0,-3.1608,-3.3147,-3.2298,-3.2847,-3.4615,-3.4197,-3.4848,-3.6163,-3.6578,-3.6976,-3.7398,-3.7838,-3.8181,-3.8496,0.0,0.0,0.0,0.0,0.0,-4.129,-4.4355,-4.6634,-4.8694,-5.1433,-5.4811,-5.7925,-5.8463,-6.109,-6.3823,-6.3636,-6.4379,-6.5035,-6.3748,-6.0559,-5.7286,-5.5794,0.0,0.0,0.0,-4.4838,-4.4278,-4.4571,-4.7298,0.0,0.0,0.0,0.0,0.0,0.0,0.0,0.0,-7.4336,-7.4676,0.0,-7.4545,-7.5016,-7.5303,-7.5329,-7.5434,-7.5695,-7.5721,-7.5721,-7.5721,-7.5721,-7.4959,-7.3443,-7.2606,-7.0913,-6.8366,-6.6842,-6.5471,-6.4132,-6.3379,-6.2842,-6.236,-6.2108,-6.1832,-6.1557,-6.1074,-6.1006,-6.1212,-6.096,-6.0868,-6.0937,-6.1465,-6.1488,-6.1258,0.0,0.0,0.0,0.0,0.0,0.0,-2.7897,-2.8402,-2.8884,-2.9435,-2.9917,-3.0216,-3.0216,-3.0216,-3.0216,0.0,0.0,0.0,0.0,0.0,0.0,0.0,0.0,0.0,0.0,0.0,0.0,-3.2066,-3.1543,0.0,0.0,0.0,0.0,0.0,-3.5054,-3.5763,-3.7319,-3.7489,-3.7853,0.0,0.0,-3.8408,0.0,0.0,0.0,0.0,0.0,0.0,-4.1073,-4.3436,-4.5696,-4.8001,-5.0569,-5.486,-5.8911,-5.8614,-6.1311,-6.4236,-6.3966,-6.4335,-6.4397,-6.3064,-5.9279,-5.5415,-5.3641,-4.9772,0.0,-4.4279,-4.352,-4.3337,-4.3781,-4.5558,-4.7754,0.0,-5.3164,0.0,0.0,0.0,0.0,0.0,0.0,0.0,-7.4258,-7.4728,0.0,-7.5669,-7.5721,-7.5721,-7.5721,-7.5721,-7.5538,-7.5236,-7.5236,-7.4233,-7.2301,-7.1875,-6.9987,-6.6605,-6.6322,-6.5209,-6.3485,-6.3095,-6.2911,-6.2888,-6.2245,-6.1878,-6.1694,-6.1373,-6.1373,-6.1534,-6.1442,-6.1396,-6.1488,-6.2291,-6.2154,-6.1671,0.0,0.0,0.0,0.0,0.0,0.0,-2.7897,-2.8402,-2.8884,-2.9435,-2.9917,-3.0216,-3.0216,-3.0216,-3.0216,0.0,0.0,0.0,0.0,0.0,0.0,0.0,0.0,0.0,0.0,0.0,0.0,-3.2967,-3.1848,0.0,0.0,0.0,0.0,0.0,0.0,-3.4404,-3.4765,-3.5587,0.0,0.0,0.0,0.0,0.0,0.0,0.0,0.0,0.0,0.0,0.0,0.0,0.0,-4.5367,-4.6733,-5.2306,-5.8178,-5.7612,0.0,0.0,-6.2515,-6.2912,-6.2851,-6.0954,-5.8149,-5.5177,-5.2418,0.0,-4.5976,-4.4279,-4.3833,-4.3807,-4.3912,-4.4931,-4.6708,-4.9505,-5.157,-5.5203,0.0,0.0,0.0,0.0,0.0,0.0,0.0,-7.5329,0.0,-7.5721,-7.5721,-7.5721,-7.5721,-7.5721,-7.5051,-7.3631,-7.3631,-7.1942,-6.8612,-6.8564,-6.7173,-6.4601,-6.4555,-6.4182,-6.3508,-6.3462,-6.3439,-6.337,-6.2406,-6.2475,-6.3187,-6.1809,-6.1763,-6.2567,-6.2085,-6.1924,-6.1924,-6.2016,-6.2291,-6.2636,0.0,0.0,0.0,0.0,0.0,0.0,-2.8287,-2.8586,-2.8999,-2.9825,-3.0101,-3.0216,-3.0216,-3.0216,-3.0216,-3.0216,-3.0216,0.0,0.0,0.0,0.0,0.0,0.0,0.0,0.0,0.0,-3.0946,-3.2418,-3.1955,0.0,0.0,0.0,0.0,0.0,0.0,-3.6141,-3.6942,-3.7303,0.0,0.0,0.0,0.0,0.0,0.0,0.0,0.0,0.0,0.0,-3.9786,0.0,0.0,0.0,-4.3252,-4.6986,0.0,0.0,-5.73,-6.0564,-6.0914,-6.2291,-6.3049,-6.0807,-5.7294,-5.3896,-5.204,0.0,-4.5218,-4.4539,-4.4382,-4.4382,-4.4382,-4.4774,-4.5584,-4.7074,-4.8198,-5.0812,-5.6379,0.0,0.0,0.0,0.0,0.0,0.0,0.0,-7.5721,-7.5721,-7.5721,-7.5721,-7.5721,-7.5721,-7.4959,-7.3443,-7.3418,-7.1782,-6.8533,-6.7891,-6.6623,-6.4702,-6.4082,-6.3692,-6.3508,-6.3508,-6.3325,-6.3026,-6.2613,-6.2498,-6.2544,-6.1924,-6.2108,-6.2728,-6.2521,-6.2452,-6.2521,-6.3118,-6.2715,-6.1968,0.0,0.0,0.0,0.0,0.0,-2.7511,-2.8563,-2.87,-2.9068,-3.0078,-3.0216,-3.0216,-3.0216,-3.0216,-3.0216,-3.0216,-3.0216,0.0,0.0,0.0,0.0,0.0,0.0,0.0,0.0,0.0,-3.0991,-3.2009,-3.244,-3.3405,0.0,0.0,0.0,0.0,0.0,0.0,0.0,0.0,0.0,0.0,0.0,0.0,0.0,0.0,0.0,0.0,0.0,0.0,0.0,0.0,0.0,0.0,0.0,0.0,-4.5715,0.0,-5.4049,-5.7879,-5.8911,-6.1158,-6.2693,-6.0708,-5.6902,-5.3243,0.0,0.0,-4.4563,-4.4304,-4.4225,-4.4278,-4.4434,-4.446,-4.467,-4.5216,-4.6003,-4.8041,-5.2511,0.0,0.0,0.0,0.0,0.0,0.0,-7.4885,-7.5721,-7.5721,-7.5236,-7.5051,-7.5051,-7.4563,-7.3792,-7.2734,-7.2286,-7.0587,-6.7684,-6.7119,-6.6046,-6.4564,-6.399,-6.3646,-6.3508,-6.3508,-6.3233,-6.2656,-6.259,-6.2314,-6.1993,-6.1993,-6.2291,-6.2656,-6.2656,-6.2842,-6.2931,-6.3313,-6.2488,-6.1441,0.0,0.0,0.0,0.0,0.0,-2.7511,-2.8563,-2.87,-2.9068,-3.0078,-3.0216,-3.0216,-3.0216,-3.0216,-3.0216,-3.0216,-3.0216,0.0,0.0,0.0,0.0,0.0,0.0,0.0,-3.1294,-3.1294,-3.1511,-3.2009,-3.3469,-3.4399,-3.4807,-3.6308,-3.7325,-3.79,0.0,0.0,0.0,0.0,0.0,0.0,0.0,0.0,0.0,0.0,0.0,0.0,0.0,0.0,0.0,0.0,0.0,0.0,0.0,-4.0853,-4.2056,-4.5532,-5.0185,-5.4602,-5.6379,-5.8941,-6.098,-6.0378,-5.719,-5.3609,0.0,0.0,-4.4408,-4.3284,-4.3049,-4.3206,-4.3781,-4.3939,-4.4068,-4.4643,-4.5715,-4.7885,-5.1936,0.0,0.0,0.0,0.0,0.0,0.0,0.0,-7.5721,-7.5721,-7.4284,0.0,-7.3418,-7.1977,-7.1093,-7.1093,-6.9671,-6.7661,-6.5047,-6.5529,-6.5001,-6.3531,-6.4013,-6.399,-6.3508,-6.3508,-6.3233,-6.2633,-6.2222,-6.1993,-6.1993,-6.1993,-6.2291,-6.2656,-6.2656,-6.3049,-6.3344,-6.1772,-6.1234,-6.1272,0.0,0.0,0.0,0.0,0.0,0.0,-2.9091,-2.9251,-2.9481,-3.0124,-3.0216,-3.0216,-3.0216,-3.0216,-3.0216,-3.0216,-3.0216,0.0,0.0,0.0,0.0,0.0,0.0,0.0,-3.1294,-3.1757,-3.2288,-3.2824,-3.3617,-3.4549,-3.5642,-3.6416,-3.7186,-3.79,-3.79,-3.79,0.0,0.0,0.0,0.0,0.0,0.0,0.0,0.0,0.0,0.0,0.0,0.0,0.0,0.0,0.0,0.0,0.0,0.0,0.0,-4.3101,-4.6369,-4.9976,-5.2119,-5.4236,-5.57,-5.5099,-5.2798,-5.0394,-4.927,0.0,-4.4042,-4.3676,-4.3284,-4.3075,-4.3258,-4.3598,-4.4068,-4.467,-4.6395,-4.8094,0.0,0.0,0.0,0.0,0.0,0.0,0.0,0.0,-7.5565,-7.5199,-7.4079,-7.3088,-7.2327,-7.0534,-6.943,-6.9069,-6.861,-6.721,-6.5024,-6.4817,-6.4496,-6.4013,-6.383,-6.3646,-6.3508,-6.3508,-6.3233,-6.2656,-6.2567,-6.2498,-6.2498,-6.2498,-6.2796,-6.3256,-6.3256,-6.3347,-6.3485,-6.2921,-6.1896,-6.0783,0.0,0.0,0.0,0.0,0.0,0.0,-2.9366,-2.9504,-2.9665,-3.0147,-3.0216,-3.0216,-3.0216,-3.0216,-3.0216,-3.0216,-3.0216,0.0,0.0,0.0,0.0,0.0,0.0,0.0,-3.1693,-3.2567,-3.3102,-3.3207,-3.4465,-3.538,-3.6034,-3.678,-3.7413,-3.79,-3.79,-3.79,0.0,0.0,0.0,0.0,0.0,0.0,-3.9076,0.0,0.0,0.0,0.0,0.0,0.0,0.0,0.0,0.0,0.0,0.0,0.0,0.0,-4.3676,-4.6316,-4.9061,-5.1413,-5.2955,-5.2589,-5.0786,-4.8878,-4.8041,0.0,-4.3807,-4.3598,-4.3258,-4.3075,-4.331,-4.3624,-4.4068,-4.467,-4.595,-4.7336,0.0,0.0,0.0,0.0,0.0,0.0,0.0,-7.478,-7.5068,-7.4156,-7.2733,-7.1362,-7.0198,-6.8349,-6.7137,-6.6644,-6.6996,-6.6392,-6.4725,-6.422,-6.3967,-6.3967,-6.3256,-6.3026,-6.321,-6.321,-6.2934,-6.2475,-6.2659,-6.2427,0.0,-6.2383,-6.2636,-6.2911,-6.2728,-6.2699,-6.2593,-6.1827,-6.0431,-5.9149,0.0,0.0,0.0,0.0,0.0,0.0,0.0,-2.955,-2.9711,-3.0147,-3.0216,-3.0216,-3.0216,-3.0216,-3.0216,-3.0216,-3.0261,0.0,0.0,0.0,0.0,0.0,0.0,-3.1669,-3.2302,-3.3539,-3.3953,-3.3345,-3.5737,-3.6593,-3.6126,-3.7234,-3.7795,-3.7848,-3.7848,-3.7874,-3.8004,-3.8501,-3.8736,-3.8841,-3.9442,-3.9677,0.0,0.0,0.0,0.0,0.0,0.0,0.0,0.0,0.0,0.0,0.0,0.0,0.0,0.0,0.0,0.0,0.0,-4.9845,-5.1884,-5.1936,-5.0342,-4.8486,-4.7388,-4.5454,0.0,-4.318,-4.3075,-4.3232,-4.3729,-4.3939,-4.4121,-4.4643,-4.4853,0.0,0.0,0.0,0.0,0.0,0.0,0.0,0.0,-7.3202,-7.4156,-7.2715,-7.0658,-6.8744,-6.7249,-6.5829,-6.4771,-6.422,-6.5115,-6.5138,-6.4151,-6.3669,-6.3439,-6.337,-6.2429,-6.2222,-6.2682,-6.2682,-6.2452,-6.2062,-6.2498,-6.2177,-6.1373,-6.1832,-6.2016,-6.1947,-6.1418,-6.1249,-6.0959,-5.8984,-5.7712,-5.6794,0.0,0.0,0.0,0.0,0.0,0.0,0.0,0.0,0.0,0.0,-3.0216,-3.0216,-3.0216,-3.0216,-3.0216,0.0,0.0,0.0,0.0,0.0,0.0,0.0,-3.2064,-3.2152,-3.2302,-3.3658,-3.447,-3.4634,-3.5365,-3.6061,-3.676,-3.6582,-3.6776,-3.722,-3.722,-3.7717,-3.8527,-3.8658,-3.8972,-3.9442,-3.9991,-4.0226,0.0,0.0,0.0,0.0,-4.1115,-4.1481,0.0,0.0,0.0,0.0,0.0,0.0,0.0,0.0,-4.3127,-4.3859,-4.467,0.0,-4.6003,-4.6447,-4.6159,-4.5689,0.0,-4.4591,-4.3833,-4.3702,0.0,0.0,-4.3284,-4.3964,-4.4591,-4.4696,0.0,-4.7806,0.0,0.0,0.0,0.0,0.0,0.0,0.0,-7.2966,-7.3257,-7.2115,-6.9798,-6.7726,-6.6131,-6.5434,-6.461,-6.3715,-6.3921,-6.3738,-6.3118,-6.298,-6.2728,-6.2337,-6.2108,-6.2039,-6.2154,-6.2154,-6.2314,-6.2544,-6.2291,-6.2245,-6.2406,-6.2521,-6.2337,-6.1923,-6.1447,-6.1069,-6.0512,-5.9321,-5.8187,-5.7272,0.0,0.0,0.0,0.0,0.0,0.0,0.0,0.0,0.0,0.0,-3.0216,-3.0216,-3.0216,-3.0216,-3.0216,0.0,0.0,0.0,0.0,0.0,0.0,-3.276,-3.2803,-3.2932,-3.3275,-3.4279,-3.5063,-3.5569,-3.5921,-3.6541,-3.7403,-3.709,-3.7116,-3.7403,-3.7403,-3.79,-3.8736,-3.8998,-3.9442,-4.0043,-4.0592,0.0,0.0,0.0,0.0,0.0,-4.1611,-4.1899,0.0,-4.2813,-4.3154,-4.3415,0.0,0.0,0.0,0.0,-4.3415,-4.3912,-4.3912,-4.4068,-4.433,-4.4643,-4.4668,-4.4668,-4.4668,0.0,0.0,0.0,0.0,0.0,0.0,0.0,0.0,0.0,-4.6421,0.0,0.0,0.0,0.0,0.0,0.0,0.0,0.0,-7.1779,-7.0726,-6.948,-6.7887,-6.6228,-6.439,-6.4051,-6.3623,-6.2819,-6.2796,-6.2796,-6.2656,-6.2291,-6.2039,-6.197,-6.1511,-6.1396,-6.1625,-6.1625,-6.1786,-6.2039,-6.1993,-6.2016,-6.2062,-6.2062,-6.1462,-6.0635,-6.0146,-5.9355,-5.8445,-5.7546,-5.6632,-5.5819,0.0,0.0,0.0,0.0,0.0,0.0,0.0,0.0,0.0,0.0,0.0,0.0,0.0,0.0,0.0,0.0,0.0,0.0,0.0,0.0,-3.2889,-3.3513,-3.3428,-3.3777,-3.4528,-3.5025,-3.56,-3.6253,-3.6671,-3.7168,-3.7769,-3.7769,-3.7821,-3.79,-3.79,-3.8266,-3.8893,-3.939,-3.9965,-4.0592,-4.1115,0.0,0.0,0.0,0.0,0.0,0.0,0.0,0.0,-4.352,-4.3938,-4.399,-4.399,0.0,0.0,0.0,0.0,0.0,-4.399,-4.4434,-4.4853,-4.4694,-4.4668,-4.4694,-4.4853,0.0,0.0,0.0,0.0,0.0,0.0,0.0,0.0,0.0,0.0,0.0,0.0,0.0,0.0,0.0,0.0,0.0,-7.1519,-6.9826,-6.8039,-6.6581,-6.5777,-6.4508,-6.2659,-6.2636,-6.2406,-6.1878,-6.1878,-6.2039,-6.2406,-6.1557,-6.1281,-6.1625,-6.0776,-6.0546,-6.0891,-6.096,-6.1006,-6.1028,-6.1373,-6.1235,-6.073,-6.073,-5.9953,-5.8563,-5.8024,-5.6989,-5.5855,-5.5171,-5.4485,-5.3799,0.0,0.0,0.0,0.0,0.0,0.0,0.0,0.0,0.0,0.0,0.0,0.0,0.0,0.0,0.0,0.0,0.0,0.0,0.0,-3.3742,-3.4147,-3.423,-3.3683,-3.3956,-3.5155,-3.526,-3.5809,-3.6854,-3.6436,-3.6541,-3.7142,-3.7142,-3.7403,-3.79,-3.79,-3.8475,-3.9468,-3.9573,-4.0226,-4.1193,-4.1272,0.0,0.0,0.0,0.0,0.0,0.0,0.0,0.0,-4.365,-4.4199,-4.4591,-4.4591,0.0,0.0,0.0,0.0,0.0,-4.4591,-4.5036,-4.5375,-4.4853,-4.4668,-4.4798,-4.5375,0.0,0.0,0.0,0.0,0.0,0.0,0.0,0.0,0.0,0.0,0.0,0.0,0.0,0.0,0.0,0.0,0.0,-6.7308,-6.7395,-6.7034,-6.5963,-6.4647,-6.3356,-6.2154,-6.2108,-6.1878,-6.1373,-6.135,-6.1189,-6.0822,-6.0661,-6.0409,-6.0064,-5.9903,-5.9651,-5.9352,-5.9766,-5.9949,-5.9926,-5.9605,-5.9202,-5.8773,-5.8773,-5.7914,-5.6494,-5.6019,-5.5379,-5.4733,-5.3859,-5.3375,-5.3302,0.0,0.0,0.0,0.0,0.0,0.0,0.0,0.0,0.0,0.0,0.0,0.0,0.0,0.0,0.0,0.0,0.0,0.0,-3.3343,-3.4021,-3.4554,-3.4868,-3.4286,-3.439,-3.5286,-3.5286,-3.6018,-3.7482,-3.6881,-3.7037,-3.7926,-3.7612,-3.7639,-3.79,-3.79,-3.8527,-3.9599,-3.9599,-4.0278,-4.1324,0.0,0.0,0.0,0.0,0.0,0.0,0.0,0.0,0.0,0.0,-4.4513,-4.4668,-4.4668,0.0,0.0,0.0,0.0,0.0,-4.4668,-4.4931,-4.5166,-4.5138,-4.5454,-4.5741,-4.6029,-4.5846,0.0,0.0,0.0,0.0,0.0,0.0,0.0,0.0,0.0,0.0,0.0,0.0,0.0,0.0,0.0,-6.547,-6.5929,-6.5068,-6.4273,-6.3782,-6.3128,-6.2245,-6.1212,-6.1166,-6.0937,-6.0432,-6.0409,-6.0294,-6.0064,-6.0064,-5.9949,-5.972,-5.9444,-5.9215,-5.9008,-5.9215,-5.9062,-5.8569,-5.8365,-5.7828,-5.7127,-5.7127,-5.6297,-5.4887,-5.4759,-5.4168,-5.3428,-5.299,-5.2806,-5.2785,0.0,0.0,0.0,0.0,0.0,0.0,0.0,0.0,0.0,0.0,0.0,0.0,0.0,0.0,0.0,0.0,0.0,-3.2846,-3.3598,-3.4105,-3.4607,-3.5077,-3.4763,-3.4946,-3.5678,-3.5704,-3.6488,-3.8083,-3.7639,-3.7795,-3.8501,-3.8109,-3.79,-3.7926,-3.8031,-3.8658,-3.9625,-3.973,-4.0383,-4.1324,0.0,0.0,0.0,0.0,0.0,0.0,0.0,0.0,0.0,0.0,0.0,0.0,0.0,0.0,0.0,-4.4668,-4.4668,-4.4668,-4.4668,-4.4826,-4.5088,-4.5689,-4.6055,-4.6421,-4.697,-4.6761,0.0,0.0,0.0,0.0,0.0,0.0,0.0,0.0,0.0,0.0,0.0,-5.9316,-6.1103,-6.3972,-6.2664,-6.2387,-6.4669,-6.306,-6.1763,-6.1648,-6.1511,-6.1051,-6.0179,-6.0133,-5.988,-5.9375,-5.9582,-5.9536,-5.9192,-5.9421,-5.949,-5.9352,-5.8985,-5.8801,-5.8801,-5.8422,-5.7911,-5.7267,-5.6866,-5.6131,-5.5126,-5.5126,-5.4281,-5.3173,-5.3173,-5.2785,-5.2185,-5.2288,-5.2329,-5.2267,0.0,0.0,0.0,0.0,0.0,0.0,0.0,0.0,0.0,0.0,0.0,0.0,0.0,0.0,0.0,0.0,-3.2889,-3.3598,-3.4272,-3.4356,-3.4424,-3.445,-3.4946,-3.5757,-3.6854,-3.6881,-3.7456,-3.8658,-3.8606,-3.837,-3.7952,-3.7926,-3.79,-3.7926,-3.8423,-3.8998,-3.9651,-4.0148,-4.0723,-4.1324,-4.1324,0.0,0.0,0.0,0.0,0.0,0.0,0.0,0.0,0.0,0.0,0.0,0.0,0.0,-4.4668,-4.4668,-4.4668,-4.4668,-4.4668,-4.514,-4.5689,-4.6264,-4.6055,-4.6264,-4.8407,-4.8878,0.0,-5.089,0.0,0.0,0.0,0.0,0.0,0.0,0.0,0.0,0.0,0.0,-6.1391,-6.3177,-6.2102,-6.1465,-6.2202,-6.1695,-6.1097,-6.0615,-6.0133,-5.9651,-5.9123,-5.91,-5.8847,-5.8319,-5.9215,-5.9054,-5.7653,-5.8572,-5.8801,-5.8296,-5.8273,-5.825,-5.8227,-5.6875,-5.6213,-5.6125,-5.4784,-5.3365,-5.2105,-5.2105,-5.1558,-5.0658,-5.0658,-5.0907,-5.1253,-5.1688,-5.1853,-5.1853,0.0,0.0,0.0,0.0,0.0,0.0,0.0,0.0,0.0,0.0,0.0,-3.0352,-3.0847,0.0,0.0,0.0,-3.3258,-3.3683,-3.4356,-3.4397,-3.458,-3.4946,-3.4816,-3.5443,-3.6959,-3.7011,-3.756,-3.871,-3.871,-3.824,-3.7351,-3.7717,-3.79,-3.7926,-3.8475,-3.9233,-4.0122,-4.0331,-4.0775,-4.135,-4.1716,-4.1768,0.0,0.0,0.0,0.0,0.0,0.0,0.0,0.0,-4.4668,-4.4668,-4.4668,-4.4668,-4.4668,-4.4668,-4.4668,-4.4668,-4.4668,-4.5111,-4.5846,-4.6787,-4.6839,0.0,0.0,-4.9558,-4.926,-5.0383,-5.0052,0.0,0.0,0.0,0.0,0.0,0.0,0.0,0.0,0.0,-6.0363,-6.02,-6.0018,-5.977,-5.9703,-5.9771,-5.9766,-5.9559,-5.861,-5.802,-5.8067,-5.7497,-5.7269,-5.7263,-5.7952,-5.7883,-5.6987,-5.7699,-5.737,-5.5925,-5.6536,-5.6513,-5.5925,-5.5065,-5.4281,-5.3365,-5.2844,-5.1975,-5.0952,-5.0952,-5.0689,-5.0425,-5.0425,-5.0694,-5.1129,-5.1315,-5.1377,-5.1377,0.0,0.0,0.0,0.0,0.0,0.0,0.0,0.0,-3.0216,0.0,0.0,0.0,0.0,-3.1472,0.0,0.0,-3.3598,-3.3894,-3.4356,-3.4397,-3.458,-3.4999,-3.4789,-3.5234,-3.6436,-3.6645,-3.7377,-3.871,-3.8527,-3.7952,-3.7011,-3.7612,-3.7795,-3.7665,-3.8762,-3.9599,-4.0174,-4.054,-4.0932,-4.135,-4.1951,-4.203,0.0,0.0,0.0,0.0,0.0,0.0,0.0,0.0,-4.4668,-4.4668,-4.4668,-4.4668,-4.4668,-4.4668,-4.4668,-4.472,-4.4903,-4.5323,-4.5787,-4.6648,0.0,0.0,-5.0061,-5.0155,-5.0125,-5.1519,-5.0443,-4.9616,-5.0827,0.0,0.0,0.0,0.0,0.0,0.0,-5.8639,-5.918,-5.8211,-5.8361,-5.8425,-5.8165,-5.8202,-5.8255,-5.804,-5.69,-5.6294,-5.6582,-5.602,-5.5862,-5.6459,-5.6965,-5.681,-5.5784,-5.6445,-5.5767,-5.3664,-5.4384,-5.4583,-5.4353,-5.3429,-5.2563,-5.1804,-5.1395,-5.0725,-4.999,-4.999,-4.999,-5.0011,-5.0156,-5.0404,-5.0694,-5.0839,-5.0901,-5.0901,0.0,0.0,0.0,0.0,0.0,0.0,0.0,0.0,-3.0216,-3.0216,-3.0216,0.0,0.0,0.0,0.0,0.0,-3.4021,-3.4397,-3.4397,-3.4397,-3.4397,-3.4397,-3.4972,-3.5286,-3.5286,-3.5835,-3.6959,-3.8684,-3.8161,-3.7586,-3.7011,-3.7612,-3.7586,-3.7116,-3.939,-4.0122,-3.9703,-4.0827,-4.1324,-4.1376,-4.1951,-4.2526,-4.3075,0.0,0.0,0.0,0.0,0.0,0.0,0.0,-4.4668,-4.4668,-4.4668,-4.4668,-4.4668,-4.4668,-4.4668,-4.4853,-4.5454,-4.5637,-4.5701,0.0,0.0,0.0,-4.971,-5.0821,-5.2296,-5.5143,-5.2759,-5.0364,-5.1303,-5.0646,0.0,-5.2675,-5.5079,-5.685,-5.7378,-5.7883,-5.8014,-5.7626,-5.7542,-5.7489,-5.7581,-5.7042,-5.6531,-5.6078,-5.5117,-5.4557,-5.4557,-5.4557,-5.4981,-5.5824,-5.6413,-5.5761,-5.3817,-5.4866,-5.4087,-5.1642,-5.1767,-5.254,-5.3909,-5.196,-5.1358,-5.1762,-5.0363,-4.9494,-4.9059,-4.9059,-4.9059,-4.9121,-4.9576,-4.9829,-4.9804,-5.0259,-5.0404,-5.0404,0.0,0.0,0.0,0.0,0.0,0.0,0.0,0.0,-3.0216,-3.0216,-3.0668,0.0,0.0,0.0,0.0,0.0,0.0,0.0,-3.4397,-3.4397,-3.4397,-3.4397,-3.458,-3.4868,-3.5286,-3.5835,-3.6567,-3.7508,-3.7769,-3.7586,-3.7011,-3.7612,-3.8004,-3.824,-3.9364,-4.02,-4.0827,-4.1167,-4.1559,-4.1951,-4.2526,-4.2866,-4.3127,0.0,0.0,0.0,0.0,0.0,0.0,0.0,0.0,0.0,-4.4668,-4.4668,-4.4668,-4.4668,-4.5036,-4.5346,-4.5529,-4.6212,0.0,0.0,0.0,0.0,0.0,-5.1236,0.0,0.0,-5.2336,-5.1536,-5.1465,0.0,0.0,-5.2403,-5.4269,-5.5702,-5.5862,-5.6299,-5.6302,-5.5495,-5.5955,-5.591,-5.4651,-5.4964,-5.4934,-5.4209,-5.2972,-5.2452,-5.3112,-5.2516,-5.2448,-5.3025,-5.3491,-5.3123,-5.1878,-5.2248,-5.166,-5.0308,-5.0014,-5.0399,-5.1445,-5.0565,-5.0071,-4.9883,-4.95,-4.9183,-4.9059,-4.9059,-4.9059,-4.908,-4.9224,-4.9473,-4.9763,-4.9908,-4.9949,-4.9949,0.0,0.0,0.0,0.0,0.0,0.0,-3.0216,-3.0216,-3.0216,-3.0216,-3.0847,-3.156,0.0,0.0,0.0,0.0,0.0,0.0,-3.4397,-3.4397,-3.4397,-3.4397,-3.4397,-3.4685,-3.5286,-3.607,-3.6645,-3.7011,-3.7116,-3.7246,-3.7377,-3.8187,-3.8632,-3.8762,-4.0043,-4.0749,-4.0984,-4.1219,-4.1638,-4.2264,-4.2788,-4.3154,-4.3467,0.0,0.0,0.0,0.0,0.0,0.0,0.0,0.0,0.0,-4.4668,-4.4668,-4.4668,-4.4668,-4.5166,-4.5663,-4.5898,0.0,0.0,0.0,0.0,-4.9652,-5.1945,0.0,0.0,0.0,0.0,-5.2143,-5.2028,-5.235,0.0,-5.2487,-5.4003,-5.522,-5.522,-5.5633,-5.5404,-5.4131,-5.4631,-5.444,-5.2844,-5.3095,-5.3196,-5.2562,-5.1274,-5.0889,-5.1676,-5.0824,-5.0651,-5.1463,-5.1656,-5.1249,-5.0249,-5.0227,-4.9815,-4.8922,-4.8628,-4.8796,-4.9365,-4.9253,-4.9059,-4.879,-4.879,-4.8893,-4.9059,-4.9059,-4.9059,-4.9059,-4.9059,-4.9224,-4.9473,-4.9473,-4.9473,-4.9473,0.0,0.0,-3.0216,-3.0216,0.0,0.0,-3.0216,-3.0261,-3.0306,-3.0306,-3.0982,-3.1737,0.0,0.0,0.0,-3.4356,-3.4397,-3.4397,-3.4397,-3.4397,-3.4397,-3.4397,-3.445,-3.4763,-3.5365,-3.6384,-3.6959,-3.7011,-3.6515,-3.6854,-3.8004,-3.905,-3.9285,-3.8945,-4.1063,-4.1455,-4.054,-4.1141,-4.1716,-4.2291,-4.2866,-4.3441,-4.4016,-4.4539,0.0,0.0,0.0,0.0,0.0,0.0,0.0,0.0,-4.4746,-4.472,-4.4748,-4.4853,-4.5271,-4.579,-4.636,0.0,0.0,0.0,0.0,0.0,0.0,0.0,0.0,-5.443,0.0,-5.2579,-5.2969,-5.2671,-5.2533,-5.2969,-5.4209,-5.5151,-5.5151,-5.5518,-5.5121,-5.3422,-5.3535,-5.3149,-5.1765,-5.1635,-5.1374,-5.0911,-5.0082,-4.9785,-5.0167,-4.936,-4.9518,-5.0774,-5.036,-4.9691,-4.8829,-4.8829,-4.8438,-4.7631,-4.7589,-4.761,-4.7693,-4.8127,-4.8334,-4.8376,-4.8376,-4.8645,-4.9059,-4.9059,-4.9059,-4.9059,-4.9059,-4.9059,-4.9059,-4.9059,-4.9059,-4.9059,0.0,0.0,-3.0216,-3.0216,0.0,0.0,-3.0216,-3.0668,-3.1071,-3.1071,-3.2176,-3.3,-3.3129,-3.3768,0.0,-3.4397,-3.4397,-3.4397,-3.4397,-3.4397,-3.4397,-3.4397,-3.4842,-3.5365,-3.5913,-3.6175,-3.6541,-3.7011,-3.7351,-3.7874,-3.8527,-3.8789,-3.9311,-4.0069,-4.0566,-4.0906,-4.1167,-4.1742,-4.2317,-4.2892,-4.3467,-4.4042,-4.4565,-4.4696,-4.4668,0.0,0.0,0.0,0.0,0.0,0.0,0.0,-4.5428,-4.5114,-4.4905,-4.582,-4.6186,-4.633,-4.6506,-4.7186,0.0,0.0,0.0,0.0,0.0,0.0,0.0,0.0,0.0,-5.4462,-5.414,-5.4003,-5.3957,-5.4072,-5.437,-5.4577,-5.4577,-5.4668,-5.4326,-5.3248,-5.3219,-5.2459,-5.0335,-5.0463,-5.0039,-4.8588,-4.8609,-4.8588,-4.8317,-4.8109,-4.8129,-4.84,-4.8316,-4.8003,-4.7422,-4.7422,-4.734,-4.7175,-4.6803,-4.701,-4.7693,-4.7775,-4.8024,-4.8376,-4.8376,-4.8645,-4.9059,-4.9059,-4.9059,-4.9059,-4.9059,-4.9059,-4.9059,-4.9059,-4.9059,-4.9059,0.0,0.0,0.0,0.0,0.0,0.0,0.0,0.0,-3.1294,-3.1294,-3.2525,-3.3386,-3.3386,-3.3979,0.0,0.0,-3.4397,-3.4397,-3.4397,-3.4397,-3.4528,-3.4816,-3.5391,-3.594,-3.6515,-3.6802,-3.7116,-3.7429,-3.8004,-3.8423,-3.8736,-3.9834,-4.054,-4.088,-4.1428,-4.169,-4.1716,-4.1742,-4.2239,-4.3049,-4.3337,-4.3964,-4.4668,-4.4668,-4.4668,-4.4668,-4.4668,0.0,0.0,0.0,0.0,0.0,0.0,0.0,-4.5578,-4.5757,-4.5974,-4.6136,0.0,0.0,0.0,0.0,0.0,0.0,0.0,0.0,0.0,0.0,0.0,0.0,-5.4462,-5.4416,-5.4416,-5.4416,-5.4416,-5.4416,-5.4416,-5.4209,-5.3561,-5.2308,-5.1944,-5.0961,-4.8964,-4.9007,-4.8693,-4.7797,-4.7713,-4.7713,-4.7693,-4.7279,-4.7154,-4.7361,-4.6947,-4.6616,-4.6389,-4.6389,-4.6285,-4.6057,-4.6264,-4.6596,-4.7051,-4.7279,-4.7631,-4.8024,-4.7817,-4.7982,-4.8417,-4.8645,-4.8728,-4.8748,-4.8976,-4.9059,-4.9059,-4.9059,-4.9059,-4.9059,0.0,0.0,0.0,0.0,0.0,0.0,0.0,0.0,0.0,-3.1649,-3.2785,-3.3556,-3.3556,-3.4063,-3.4397,0.0,0.0,0.0,-3.4397,-3.4502,-3.4868,-3.5547,-3.6018,-3.6541,-3.7142,-3.7639,-3.7952,-3.8057,-3.8606,-3.9024,-3.9337,-4.1063,-4.1716,-4.1507,-4.2448,-4.2605,-4.2185,-4.1873,-4.2239,-4.3049,-4.3232,-4.3885,-4.4668,-4.4668,-4.4668,-4.4668,-4.4668,-4.5114,-4.5581,-4.5581,0.0,0.0,0.0,0.0,-4.6104,-4.5457,-4.5438,-4.5472,0.0,0.0,0.0,0.0,0.0,0.0,0.0,0.0,0.0,0.0,0.0,0.0,0.0,-5.4347,-5.4278,-5.4278,-5.4209,-5.414,-5.414,-5.3819,-5.2898,-5.1142,-5.0546,-4.9549,-4.7755,-4.7631,-4.761,-4.7465,-4.7113,-4.7051,-4.732,-4.6554,-4.6285,-4.6678,-4.5954,-4.5561,-4.5561,-4.5561,-4.5374,-4.5002,-4.5747,-4.6161,-4.6244,-4.6637,-4.7092,-4.7548,-4.7196,-4.7279,-4.7713,-4.8107,-4.8252,-4.8293,-4.8686,-4.8873,-4.8955,-4.8955,-4.8997,-4.9059,0.0,0.0,0.0,0.0,0.0,0.0,0.0,0.0,0.0,0.0,-3.381,-3.4272,-3.4272,-3.4356,-3.4397,-3.4397,-3.4397,-3.4397,-3.4397,0.0,0.0,-3.6724,-3.6854,-3.7168,-3.7769,-3.7874,-3.8135,-3.8606,-3.9207,-4.0252,-4.174,-4.0984,-4.1141,-4.2107,-4.2264,-4.229,-4.229,-4.3206,-4.3337,-4.3101,-4.4095,-4.4537,-4.4668,-4.4668,-4.4668,-4.4668,-4.4668,-4.5114,-4.5581,-4.5581,-4.6003,0.0,0.0,0.0,-4.5374,-4.6197,-4.5604,-4.4582,0.0,0.0,0.0,0.0,0.0,0.0,0.0,0.0,0.0,0.0,0.0,0.0,0.0,0.0,-5.3796,-5.3796,-5.3406,-5.3107,-5.3107,-5.3038,-5.2354,-5.0659,-5.0349,-4.942,-4.7319,-4.7465,-4.7361,-4.6575,-4.639,-4.6306,-4.5975,-4.5457,-4.5209,-4.5271,-4.5147,-4.5084,-4.5084,-4.5084,-4.5064,-4.5002,-4.5126,-4.5395,-4.5768,-4.583,-4.6326,-4.7113,-4.7072,-4.7279,-4.7693,-4.7755,-4.7775,-4.7775,-4.7838,-4.8107,-4.8459,-4.8459,-4.8728,-4.9059,0.0,0.0,0.0,0.0,0.0,0.0,0.0,0.0,0.0,0.0,0.0,-3.4397,-3.4397,-3.4397,-3.4397,-3.4397,-3.4711,-3.5025,-3.5338,-3.56,-3.6123,-3.6959,-3.7011,-3.7273,-3.79,-3.79,-3.8161,-3.871,-3.9311,-4.0488,-4.2211,-4.2291,-4.2971,-4.4095,-4.3781,-4.3624,-4.3572,-4.3101,-4.3127,-4.352,-4.3702,-4.4147,-4.4668,-4.4668,-4.4668,-4.4668,-4.4668,-4.4911,-4.5294,-4.5294,-4.5859,-4.6572,-4.6298,0.0,0.0,0.0,-4.4597,0.0,0.0,0.0,0.0,0.0,0.0,0.0,0.0,0.0,0.0,0.0,0.0,0.0,0.0,0.0,0.0,-5.3245,-5.3038,-5.2901,-5.2901,-5.2671,-5.1832,-5.0132,-4.9672,-4.871,-4.682,-4.6596,-4.6409,-4.5995,-4.5726,-4.5498,-4.5312,-4.5105,-4.5002,-4.5002,-4.4733,-4.4608,-4.4608,-4.4608,-4.4733,-4.5002,-4.4733,-4.4857,-4.5312,-4.5561,-4.6037,-4.6658,-4.6658,-4.6761,-4.6968,-4.7217,-4.732,-4.7341,-4.7589,-4.7962,-4.8376,-4.8376,-4.8666,-4.9059,0.0,0.0,0.0,0.0,0.0,0.0,0.0,0.0,0.0,0.0,0.0,0.0,-3.4397,0.0,0.0,0.0,-3.4946,-3.56,-3.6279,-3.6332,-3.6593,-3.7194,-3.722,-3.7456,-3.79,-3.79,-3.824,-3.8945,-3.939,-4.0697,-4.284,-4.3702,-4.4957,-4.6473,-4.5741,-4.5323,-4.5033,-4.3594,-4.341,-4.4136,-4.3143,-4.3241,-4.3987,-4.3987,-4.3987,-4.4013,-4.4167,-4.4286,-4.4475,-4.4752,-4.5405,-4.605,-4.5476,-4.5646,0.0,0.0,0.0,0.0,0.0,0.0,0.0,0.0,0.0,0.0,0.0,0.0,0.0,0.0,0.0,0.0,0.0,0.0,0.0,0.0,0.0,-5.2327,-5.2327,-5.189,-5.097,-4.9276,-4.8733,-4.7806,-4.6156,-4.5705,-4.5498,-4.5498,-4.5084,-4.4815,-4.4815,-4.4712,-4.465,-4.465,-4.4298,-4.4132,-4.4132,-4.4132,-4.4298,-4.4629,-4.4298,-4.4381,-4.4836,-4.5291,-4.5685,-4.6016,-4.6163,-4.6266,-4.6287,-4.672,-4.6783,-4.6885,-4.7217,-4.7631,-4.8045,-4.8045,-4.8396,-4.8893,0.0,0.0,0.0,0.0,0.0,0.0,0.0,0.0,0.0,0.0,0.0,-3.4397,-3.4397,-3.4397,-3.4397,-3.4397,-3.4946,-3.5783,-3.6881,-3.6959,-3.722,-3.7821,-3.7848,0.0,-3.79,-3.79,-3.8449,-3.9573,-3.9599,-4.1324,-4.4591,-4.4696,-4.6212,-4.8852,-4.7702,-4.6891,-4.6312,-4.5335,-4.4967,-4.4884,-4.2868,-4.2076,-4.2125,-4.2125,-4.2125,-4.2199,-4.2717,-4.2938,-4.3078,-4.4112,-4.4481,-4.4629,-4.5109,-4.4669,-4.3927,0.0,0.0,0.0,0.0,0.0,0.0,0.0,0.0,0.0,0.0,0.0,0.0,0.0,0.0,0.0,0.0,0.0,0.0,0.0,0.0,0.0,-5.0742,-5.0329,-4.9405,-4.7685,-4.7509,-4.6816,-4.5221,-4.5043,-4.5022,-4.5022,-4.4588,-4.4339,-4.4339,-4.3925,-4.3677,-4.3677,-4.3656,-4.3656,-4.3656,-4.3656,-4.3656,-4.3677,-4.3656,-4.3884,-4.436,-4.4815,-4.5043,-4.5105,-4.5975,-4.6266,-4.6266,-4.6287,-4.6308,-4.6308,-4.6328,-4.6699,-4.7113,-4.7113,-4.7651,-4.8417,0.0,0.0,0.0,0.0,0.0,0.0,0.0,0.0,0.0,0.0,0.0,0.0,0.0,-3.4397,-3.4554,-3.4946,-3.5835,-3.6724,-3.7534,-3.7586,-3.7665,-3.79,-3.824,-3.8423,-3.8423,-3.8423,-3.8972,-4.0122,-3.9782,-4.0984,-4.3597,-4.48,-4.6055,-4.7388,-4.6372,-4.6161,-4.6429,-4.374,-4.2992,-4.3482,-4.2051,-4.1717,-4.2012,-4.2012,-4.2233,-4.2553,-4.2749,-4.2856,-4.2916,-4.3276,-4.3697,-4.3983,-4.3884,-4.4073,-4.4175,-4.3565,-4.3078,0.0,0.0,0.0,0.0,0.0,0.0,0.0,0.0,0.0,0.0,0.0,0.0,0.0,0.0,0.0,0.0,0.0,0.0,0.0,-5.0168,-5.0008,-4.9292,-4.7575,-4.7422,-4.673,-4.5138,-4.4733,-4.4546,-4.4546,-4.4112,-4.3863,-4.3863,-4.3698,-4.3615,-4.3615,-4.3615,-4.3615,-4.3615,-4.3615,-4.3615,-4.3615,-4.3615,-4.3698,-4.3884,-4.4339,-4.4546,-4.4588,-4.5209,-4.5643,-4.5933,-4.6223,-4.6266,-4.6266,-4.6266,-4.6637,-4.703,-4.703,-4.761,-4.8376,0.0,0.0,0.0,0.0,0.0,-3.3894,-3.4314,-3.4397,-3.4397,-3.4397,0.0,0.0,0.0,0.0,-3.5025,-3.5809,-3.6567,-3.7246,-3.7874,-3.79,-3.79,-3.79,-3.8423,-3.871,-3.871,-3.8919,-3.9468,-4.0409,-4.0043,-4.0958,-4.3049,-4.4199,-4.5184,-4.5969,-4.4649,-4.5347,-4.7293,-4.3816,-4.2895,-4.3576,-4.1818,-4.1379,-4.1883,-4.2051,-4.234,-4.2676,-4.2844,-4.2827,-4.2723,-4.2723,-4.2958,-4.3294,-4.3106,-4.3641,-4.4208,-4.3521,-4.3211,0.0,-4.3487,0.0,0.0,0.0,0.0,0.0,0.0,0.0,0.0,0.0,0.0,0.0,0.0,0.0,0.0,0.0,0.0,0.0,0.0,-4.9502,-4.8793,-4.7093,-4.6942,-4.6332,-4.4681,-4.4256,-4.407,-4.407,-4.378,0.0,-4.3615,-4.3615,-4.3615,-4.3615,-4.3615,-4.3615,-4.3615,-4.3615,-4.3615,-4.3615,-4.3615,-4.3615,-4.3635,-4.4091,-4.4215,-4.4112,-4.4733,-4.5167,-4.5498,-4.5933,-4.6119,-4.614,-4.6285,-4.6452,-4.6803,-4.6803,-4.7279,-4.7941,0.0,0.0,-3.4397,-3.4397,-3.4397,-3.4397,-3.4397,-3.4397,-3.4397,-3.4397,0.0,0.0,0.0,0.0,0.0,-3.6881,-3.6985,-3.7246,-3.7874,-3.79,-3.79,-3.79,-3.8449,-3.8736,-3.8736,-3.9337,-3.9886,-4.0435,-4.0435,-4.1298,-4.2971,-4.2945,-4.3715,-4.4929,-4.2903,-4.46,-4.8813,-4.5809,-4.4865,-4.5158,-4.204,-4.1122,-4.1673,-4.2132,-4.2275,-4.2367,-4.2936,-4.2821,-4.2367,-4.2344,-4.2344,-4.2477,-4.2959,-4.3441,-4.3831,-4.3831,-4.351,-4.3119,0.0,0.0,0.0,0.0,0.0,0.0,0.0,0.0,0.0,0.0,0.0,0.0,0.0,0.0,0.0,0.0,0.0,0.0,0.0,-4.8676,-4.7794,-4.6225,-4.6002,-4.5405,-4.3767,-4.3615,-4.3615,-4.3615,-4.3615,-4.3615,-4.3615,-4.3615,-4.3594,-4.3573,-4.3594,-4.3594,-4.3573,-4.3594,-4.3594,-4.3594,-4.3594,-4.3594,-4.3635,-4.407,-4.4029,-4.3656,-4.4567,-4.496,-4.4981,-4.5457,-4.5664,-4.5726,-4.6161,-4.6246,-4.6266,-4.6266,-4.6555,-4.7092,0.0,-3.4397,-3.4397,-3.4397,-3.4397,-3.4397,-3.4397,-3.4397,-3.4397,0.0,0.0,0.0,-3.5051,-3.5547,-3.6018,-3.6332,-3.675,-3.7246,-3.7874,-3.79,-3.79,-3.79,-3.8841,-3.9364,-3.9364,-3.9913,-4.0488,-4.1063,-4.0618,-4.088,-4.177,-4.2007,-4.256,-4.3224,-4.251,-4.3168,-4.4583,-4.1952,-4.1963,-4.3548,-4.1199,-4.1237,-4.2614,-4.2017,-4.2454,-4.3418,-4.3556,-4.3992,-4.4474,-4.4107,-4.3716,-4.3418,-4.3556,-4.3969,-4.4382,-4.4382,-4.429,-4.4038,-4.328,0.0,0.0,0.0,0.0,0.0,-4.4153,-4.5094,0.0,0.0,0.0,0.0,0.0,0.0,0.0,0.0,0.0,0.0,0.0,0.0,-4.8013,-4.6965,-4.6374,-4.563,-4.4579,-4.3898,-4.3615,0.0,-4.3615,-4.3615,-4.3615,-4.3615,-4.3304,-4.2642,-4.3263,-4.3304,-4.2642,-4.2952,-4.3118,-4.3118,-4.3118,-4.3284,-4.3615,-4.3739,-4.3739,-4.3615,-4.3884,-4.3987,-4.4049,-4.4857,-4.5374,-4.5705,-4.5809,-4.6057,-4.6266,-4.6266,-4.6555,-4.7051,-3.4397,-3.4397,-3.4397,-3.4397,-3.4397,-3.4397,-3.4397,-3.4397,-3.4397,0.0,0.0,0.0,-3.56,-3.6149,-3.6488,-3.6488,-3.7037,-3.7534,-3.7874,-3.79,-3.79,-3.79,-3.8998,-3.9599,-3.9599,-4.0383,-4.1089,-4.1664,-4.1089,-4.0889,-4.1131,-4.1104,-4.1009,-4.0804,-4.0643,-4.0963,-4.1372,-3.9705,-4.0594,-4.3005,-4.2017,-4.2591,-4.4015,-4.3854,-4.4336,-4.5094,-4.5094,-4.5484,-4.5875,-4.5163,-4.4566,-4.4061,-4.3648,-4.3854,-4.4267,-4.4267,-4.4267,-4.4153,-4.3556,-4.3395,-4.3372,-4.3303,0.0,0.0,-4.2982,-4.3602,-4.4222,0.0,0.0,0.0,0.0,0.0,0.0,0.0,0.0,0.0,0.0,0.0,-4.8086,-4.7281,-4.6522,-4.5617,-4.4603,-4.3945,-4.3532,-4.3325,-4.3325,-4.3242,-4.3056,-4.3221,-4.2994,-4.2364,-4.2766,-4.2787,-4.2343,-4.2518,-4.2745,-4.2911,-4.2911,-4.3159,-4.3615,-4.3615,-4.3615,-4.3615,-4.3615,-4.3615,-4.3656,-4.4194,-4.4795,-4.5416,-4.5602,-4.5954,-4.6266,-4.6266,-4.6432,-4.6782,0.0,-3.4397,-3.4397,-3.4397,-3.4397,-3.4397,-3.4397,-3.4397,-3.4397,0.0,-3.4972,-3.56,-3.6149,-3.6671,-3.7011,-3.7011,-3.7482,-3.7821,-3.79,-3.7952,-3.8004,-3.8004,-3.9076,-3.9703,-3.9703,-4.0749,-4.1611,-4.2211,-4.1563,-4.1131,-4.0896,-4.0232,-3.9294,-3.8207,-3.8145,-3.855,-3.9124,-3.8872,-4.0387,-4.3051,-4.3464,-4.4405,-4.5691,-4.6541,-4.6908,-4.6977,-4.7023,-4.7046,-4.6885,-4.5944,-4.5163,-4.452,-4.3625,-4.3556,-4.3808,-4.3877,-4.3854,-4.3785,-4.3739,-4.3762,-4.39,-4.4336,-4.3074,0.0,-4.2752,-4.2614,-4.2568,-4.3395,0.0,0.0,0.0,0.0,0.0,0.0,0.0,0.0,0.0,0.0,0.0,-4.7338,-4.6463,-4.5527,-4.4282,-4.3823,-4.3359,-4.287,-4.2849,-4.2663,-4.2207,-4.26,-4.2621,-4.2198,-4.2281,-4.2281,-4.2177,-4.2239,-4.2414,-4.2849,-4.2849,-4.3118,-4.3615,-4.3615,-4.3615,-4.3615,-4.3615,-4.3615,-4.3615,-4.3615,-4.4153,-4.5022,-4.5395,-4.5871,-4.6266,-4.6204,-4.6225,-4.6328,-3.4397,-3.4397,-3.4397,-3.4397,-3.4397,-3.4397,-3.4397,-3.4397,-3.4397,-3.4397,-3.5312,-3.6175,-3.675,-3.6933,-3.7011,-3.7011,-3.7116,-3.7377,-3.7874,-3.8318,-3.8553,-3.8553,-3.9651,-4.0252,-4.0252,-4.0958,-4.1611,-4.2211,-4.1364,-4.0924,-4.0844,-3.9345,-3.8323,-3.7637,-3.7379,-3.7594,-3.816,-3.9285,-4.0823,-4.2436,-4.2591,-4.4222,-4.6609,-4.6793,-4.7138,-4.7551,-4.7941,-4.8102,-4.7941,-4.6931,-4.5967,-4.5186,-4.4979,-4.4405,-4.39,-4.4313,-4.4153,-4.3716,-4.3326,-4.351,-4.3739,-4.3464,-4.3096,0.0,-4.2017,-4.2109,-4.227,0.0,0.0,0.0,0.0,0.0,0.0,0.0,0.0,0.0,0.0,0.0,0.0,-4.7565,-4.646,-4.5473,-4.4591,-4.3876,-4.3142,-4.2467,-4.2393,-4.2186,-4.1731,-4.2145,-4.2,-4.1172,-4.1949,-4.197,-4.1151,-4.1524,-4.2011,-4.2393,-4.2393,-4.2807,-4.3615,-4.3615,-4.3615,-4.3615,-4.3615,-4.3615,-4.3615,-4.3615,-4.4153,-4.496,-4.467,-4.5291,-4.6225,-4.5954,-4.6037,-4.6287,-3.4397,-3.4397,-3.4397,-3.4397,-3.4659,-3.4737,-3.445,-3.4659,-3.4842,-3.4842,-3.6096,-3.7011,-3.7011,-3.7508,-3.7612,-3.7063,-3.7273,-3.7691,-3.8266,-3.8553,-3.8841,-3.9155,-4.0252,-4.0723,-4.0435,-4.1104,-4.1673,-4.1956,-4.1036,-4.0521,-4.0389,-3.8953,-3.7918,-3.7247,-3.7086,-3.7311,-3.7862,-3.8895,-4.0341,-4.2063,-4.3326,-4.5048,-4.6954,-4.7712,-4.8148,-4.8446,-4.8951,-4.9158,-4.8951,-4.7689,-4.6908,-4.6311,-4.5301,-4.4796,-4.4543,0.0,-4.4199,-4.4038,-4.328,-4.3648,-4.4084,-4.3579,-4.3441,0.0,0.0,-4.2155,-4.2206,0.0,0.0,0.0,0.0,0.0,0.0,0.0,0.0,0.0,0.0,0.0,0.0,-4.7252,-4.6314,-4.5475,-4.4875,-4.3925,-4.2972,-4.199,-4.2198,-4.1959,-4.1255,-4.1742,-4.1659,-4.0903,-4.1338,-4.1338,-4.0882,-4.111,-4.1565,-4.2322,-4.2322,-4.2725,-4.3615,-4.3615,-4.3615,-4.3615,-4.3615,-4.3615,-4.3615,-4.3615,-4.4029,-4.4629,-4.4381,-4.5002,-4.5995,-4.5768,-4.5975,-4.6266,-3.4397,-3.4397,-3.4397,-3.4397,-3.4789,-3.4946,-3.4476,-3.4816,-3.5234,-3.5574,-3.6959,-3.7795,-3.7488,-3.8272,-3.8439,-3.7341,-3.7593,-3.8054,-3.8652,-3.8648,-3.8947,-3.9756,-4.0749,-4.0989,-4.0346,-4.1131,-4.1524,-4.1465,-4.0621,-4.0089,-3.9879,-3.8706,-3.7839,-3.7173,-3.7025,-3.7425,-3.8114,-3.855,-3.9951,-4.2063,-4.4199,-4.5668,-4.6747,-4.8263,-4.8814,-4.8905,-4.9525,-4.9755,-4.9571,-4.8331,-4.7872,-4.7482,-4.5737,-4.5324,0.0,0.0,0.0,0.0,0.0,0.0,0.0,0.0,-4.4107,-4.3854,0.0,0.0,0.0,0.0,0.0,0.0,0.0,0.0,0.0,0.0,0.0,0.0,0.0,0.0,0.0,-4.6564,-4.5844,-4.5152,-4.4791,-4.3729,-4.2635,-4.1534,-4.1845,-4.1669,-4.0924,-4.1234,-4.1255,-4.0882,-4.0882,-4.0882,-4.0882,-4.0882,-4.1338,-4.2322,-4.2322,-4.2725,-4.3615,-4.3615,-4.3615,-4.3615,-4.3615,-4.3615,-4.3615,-4.3615,-4.3822,-4.4174,-4.4174,-4.4733,-4.5561,-4.5561,-4.583,-4.6244,-3.4356,-3.4397,-3.4397,-3.4397,-3.445,-3.4476,-3.4397,-3.445,-3.5051,-3.6593,-3.7456,-3.8173,-3.8847,-3.9272,-3.9128,-3.8304,-3.7766,-3.7842,-3.8708,-3.8515,-3.8942,-4.0282,-4.0958,-4.092,-4.0135,-4.0616,-4.0777,-4.0577,-4.0105,-3.9864,-3.9879,-3.8521,-3.7814,-3.7678,-3.7242,-3.7816,-3.9124,-3.9193,-4.0663,-4.2982,-4.3693,-4.4612,-4.5691,-4.7229,-4.7732,-4.7918,-4.886,-4.9204,-4.9181,-4.8997,-4.8653,-4.8194,0.0,-4.6724,-4.6012,-4.5898,0.0,0.0,0.0,0.0,0.0,0.0,-4.5254,-4.491,-4.3877,0.0,-4.3005,-4.3005,0.0,0.0,0.0,0.0,0.0,0.0,0.0,0.0,0.0,0.0,0.0,-4.5484,-4.4637,-4.3913,-4.3691,-4.2731,-4.1862,-4.1037,-4.1007,-4.0986,-4.0882,-4.0924,-4.0924,-4.0882,-4.0882,-4.0882,-4.0882,-4.0882,-4.1338,-4.2322,-4.2322,-4.2725,-4.3615,-4.3615,-4.3615,-4.3615,-4.3615,-4.3615,-4.3615,-4.3615,-4.3635,-4.3698,-4.3698,-4.4256,-4.5064,-4.5064,-4.5354,-4.5809,-3.4189,-3.423,-3.4272,-3.4397,-3.4946,-3.5155,-3.4502,-3.526,-3.6305,-3.7377,-3.8606,-3.9499,-3.9871,-4.0285,-3.9974,-3.8457,-3.8087,-3.8088,0.0,-3.8387,-3.9095,-4.0882,-4.1507,-4.1283,-4.0134,-4.0696,-4.0597,-3.9647,-3.9528,-3.9406,-3.9127,-3.8193,-3.7953,-3.8229,-3.7701,-3.8321,-3.9767,-4.0066,-4.0961,-4.227,-4.3074,-4.3992,-4.5163,-4.7275,-4.8446,-4.9043,-4.9732,-4.9985,-4.9893,-4.9319,-4.9181,-4.9089,0.0,0.0,0.0,-4.6724,0.0,0.0,0.0,0.0,0.0,-4.4727,-4.491,-4.5093,-4.3693,-4.3441,-4.3418,-4.3142,0.0,0.0,0.0,0.0,0.0,0.0,-4.3556,0.0,0.0,0.0,0.0,0.0,0.0,0.0,-4.3511,-4.271,-4.2048,-4.1551,-4.0847,-4.0613,-4.0862,-4.0882,-4.0882,-4.0882,-4.0882,-4.0882,-4.0882,-4.0882,-4.1338,-4.2322,-4.2322,-4.2725,-4.3615,-4.3615,-4.3615,-4.3615,-4.3615,-4.3615,-4.3615,-4.3615,-4.3136,-4.2503,-4.2503,-4.3049,-4.3856,-4.3856,-4.3819,-4.3765,-3.3852,-3.4004,-3.4182,-3.4396,-3.5253,-3.5609,-3.4914,-3.5896,-3.7045,-3.782,-3.9242,-4.0337,-4.0713,-4.1158,0.0,0.0,-3.8725,-3.8419,0.0,-3.808,-3.862,-4.0058,-4.085,-4.0618,-3.9156,-3.9986,-3.9761,-3.8515,-3.8885,-3.8918,-3.8573,-3.8045,-3.8137,-3.878,-3.8527,-3.9229,-4.0586,-4.1168,-4.1811,-4.2454,-4.3051,-4.4061,-4.5438,-4.7436,-4.8722,-4.9548,-5.0031,-5.0214,-5.0099,-4.9365,-4.9365,-4.9479,-4.824,-4.8102,-4.8217,0.0,0.0,0.0,-4.5599,-4.5875,-4.6173,-4.4612,-4.491,-4.5232,-4.3992,-4.4084,-4.4336,-4.3992,-4.4084,0.0,0.0,0.0,-4.3877,-4.3441,0.0,-4.452,0.0,0.0,0.0,0.0,0.0,0.0,0.0,-4.2788,-4.221,-4.1684,-4.0766,-4.0365,-4.0675,-4.082,-4.0882,-4.0882,-4.0882,-4.0882,-4.0882,-4.0882,-4.1276,-4.2136,-4.226,-4.2663,-4.3428,-4.3553,-4.3615,-4.3615,-4.3615,-4.3365,-4.306,-4.306,-4.235,-4.1249,-4.1249,-4.1464,-4.1808,-4.2226,-4.2434,-4.2499,-3.3428,-3.3793,-3.4202,-3.4555,-3.4986,-3.5409,-3.5711,-3.5947,-3.6571,-3.7745,-3.8899,-4.0117,0.0,0.0,0.0,0.0,0.0,-3.875,-3.8348,0.0,-3.7117,-3.7156,0.0,-3.8214,-3.6727,-3.78,-3.7942,-3.7058,-3.8091,-3.8596,-3.8573,-3.8045,-3.8321,-3.9308,-3.9767,-4.0609,-4.1581,-4.2591,-4.3602,-4.4474,-4.3969,-4.5002,-4.6862,-4.7436,-4.7987,-4.8515,-4.8997,-4.9158,-4.9158,-4.9112,-4.9112,-4.9043,-4.8538,-4.8377,-4.8286,-4.778,0.0,0.0,-4.7092,-4.7183,-4.7229,-4.5691,-4.5714,-4.5967,-4.5415,-4.5691,-4.6035,-4.6035,-4.5645,-4.5369,-4.5346,-4.4887,-4.4887,-4.5852,-4.5209,0.0,0.0,0.0,0.0,0.0,0.0,0.0,0.0,-4.2522,-4.1928,-4.0699,-4.0389,-4.0241,-4.0241,-4.0655,-4.0882,-4.0882,-4.0882,-4.0882,-4.0882,-4.0882,-4.111,-4.1659,-4.2115,-4.2497,-4.2952,-4.3408,-4.3615,-4.3615,-4.3615,-4.2887,-4.179,-4.179,-4.1016,-3.9943,-3.9943,-3.9417,-3.8824,-4.009,-4.1653,-4.3121,-3.3752,-3.4317,-3.474,-3.4622,-3.5344,-3.6129,-3.6605,-3.6728,-3.733,0.0,-3.9851,0.0,0.0,-4.3071,-4.2753,0.0,0.0,-3.9946,-3.8825,-3.7923,0.0,0.0,0.0,-3.9157,0.0,-3.8868,-3.8686,-3.754,-3.7885,-3.8045,-3.8045,-3.7517,-3.7839,-3.8849,-3.9331,-4.0318,0.0,0.0,0.0,0.0,0.0,-4.6058,-4.7872,-4.7689,-4.7964,-4.8446,-4.8928,-4.9112,-4.9112,-4.9112,-4.9112,-4.902,-4.8538,-4.84,-4.8354,-4.8194,-4.8263,-4.824,-4.7574,-4.7757,-4.7689,-4.5829,-4.5737,-4.5898,-4.5048,-4.5255,-4.5622,-4.5622,-4.576,-4.5668,-4.4979,-4.5002,-4.5094,-4.5117,-4.5117,-4.5048,0.0,0.0,0.0,0.0,0.0,0.0,0.0,0.0,-4.1435,-4.1361,-4.0077,-3.9509,-4.0199,-4.0365,-4.0572,-4.0862,-4.0882,-4.0882,-4.0882,-4.0882,-4.111,-4.1565,-4.2115,-4.2497,-4.2857,-4.253,-4.233,-4.233,-4.233,-4.1636,-4.0549,-4.1404,-4.0471,-3.8682,-3.8682,-3.7899,-3.713,-3.8906,-4.0158,-4.1222,-3.3847,-3.4483,-3.4945,-3.4902,-3.5621,-3.633,-3.6892,-3.725,0.0,0.0,-4.0535,0.0,-4.3406,0.0,-4.3646,0.0,-4.199,-4.0939,-3.8852,-3.8482,0.0,-3.8149,-3.8879,0.0,0.0,0.0,-3.8851,-3.7451,-3.8206,-3.8413,-3.8068,-3.754,-3.777,-3.8619,-3.9469,-4.0479,-4.1696,-4.3556,-4.4474,0.0,0.0,-4.6426,-4.7574,-4.7413,-4.7895,-4.8676,-4.8791,-4.886,-4.886,-4.886,-4.886,-4.8791,-4.8492,-4.84,-4.8354,-4.8171,-4.824,-4.824,-4.7551,-4.7734,-4.7734,-4.6058,-4.615,-4.6403,-4.537,-4.5668,-4.6127,-4.5944,-4.6012,-4.5989,-4.5507,-4.5393,-4.5301,-4.5163,-4.5255,-4.5323,0.0,-4.4589,0.0,0.0,0.0,0.0,0.0,-4.2103,-4.1022,-4.1175,-3.9728,-3.9117,-3.9951,-4.0137,-4.0427,-4.0862,-4.0882,-4.0882,-4.0882,-4.0882,-4.111,-4.1565,-4.2115,-4.2274,-4.2255,-4.1899,-4.1481,-4.1094,-4.1094,-4.0393,-3.9314,-4.0061,-3.9216,-3.733,-3.733,-3.6787,-3.6327,-3.8202,-3.9923,-4.1612,-3.3822,-3.4399,-3.4931,-3.5458,-3.5743,-3.6105,0.0,0.0,-3.8329,0.0,-4.094,-4.2719,-4.3849,-4.4268,-4.4409,-4.4315,-4.3468,-4.1731,-3.8647,-3.9311,0.0,0.0,-3.7185,-3.7536,-3.651,0.0,0.0,0.0,-3.899,-3.9551,-3.8596,-3.8022,-3.8022,-3.8573,-4.0158,-4.1099,-4.1673,-4.4357,-4.5668,-4.6127,-4.6127,-4.6173,-4.6288,-4.6747,-4.7826,-4.9043,-4.8561,-4.84,-4.84,-4.84,-4.84,-4.84,-4.84,-4.84,-4.8286,-4.7826,-4.801,-4.8171,-4.7206,-4.7298,-4.7365,-4.6449,-4.6931,-4.7319,-4.6426,-4.6954,-4.7505,-4.7023,-4.6518,-4.6288,-4.6747,-4.6035,-4.553,-4.6012,-4.5668,-4.5438,-4.5438,-4.5438,-4.5438,-4.5438,0.0,0.0,0.0,-4.2081,-4.0804,-4.0214,-3.9347,-3.9019,-3.9447,-3.9951,-4.0406,-4.0862,-4.0882,-4.0882,-4.0882,-4.0882,-4.111,-4.1565,-4.2115,-4.1902,-4.1118,-4.1438,-4.0938,-3.9786,-3.9786,-3.9077,-3.7888,-3.7968,-3.7268,-3.6097,-3.6097,-3.6195,-3.6425,-3.8114,-4.0939,-4.4099,-3.4399,-3.5278,-3.5981,-3.6132,-3.6251,-3.6427,0.0,0.0,0.0,0.0,-4.1278,-4.241,-4.3583,-4.4395,-4.467,-4.4314,-4.4426,0.0,0.0,0.0,0.0,-4.0013,-3.9939,-3.9574,-3.8953,-3.9289,-3.9372,-3.9014,0.0,-3.8619,-3.9101,-3.7816,-3.7311,-3.754,-4.0203,-4.103,-4.0747,-4.4359,-4.6012,-4.6127,-4.6127,-4.6793,-4.7709,-4.6883,-4.7618,-4.9043,-4.8561,-4.84,-4.84,-4.84,-4.84,-4.84,-4.84,-4.84,-4.8377,-4.824,-4.8286,-4.8331,-4.8079,-4.8102,-4.8056,-4.7413,-4.7365,-4.7502,-4.7227,-4.7388,-4.7525,-4.7482,-4.7023,-4.6609,-4.6357,-4.5783,-4.5461,-4.553,-4.5507,-4.5438,-4.5438,-4.5438,-4.5438,-4.5438,0.0,0.0,-4.3808,-4.2249,-4.0909,-4.0257,-3.9514,-3.9227,-3.9495,-3.9571,-4.0075,-4.0841,-4.0882,-4.0882,-4.0882,-4.0882,-4.111,-4.1565,-4.2115,-4.1902,-4.1042,-4.0511,-3.961,-3.8524,-3.8524,-3.7729,-3.6644,-3.757,-3.7268,-3.6097,-3.6097,-3.7073,-3.8544,-4.0017,-4.2492,-4.521,-3.458,-3.5805,-3.6782,-3.6782,0.0,0.0,-3.7631,-3.8359,0.0,-3.9962,-4.1457,0.0,-4.2728,-4.4091,-4.4877,-4.4629,-4.4836,0.0,-4.3387,0.0,0.0,-4.1607,-4.1456,-4.0885,-4.0004,-4.0058,0.0,-3.9316,-3.8672,-3.8557,-3.8964,-3.7655,-3.715,-3.7471,-3.9859,-4.0908,-4.1023,-4.4589,-4.6034,-4.5959,-4.5959,-4.6246,0.0,-4.6491,-4.7023,-4.7936,-4.8255,-4.84,-4.84,-4.84,-4.84,-4.84,-4.84,-4.84,-4.84,-4.84,-4.84,-4.84,-4.84,-4.84,-4.8331,-4.8033,-4.7964,-4.7918,-4.7617,-4.7571,-4.7571,-4.7571,-4.7046,-4.6518,-4.6472,-4.5852,-4.5438,-4.5438,-4.5438,-4.5438,-4.5438,-4.5438,-4.5438,-4.5438,-4.4635,-4.4061,-4.3831,-4.2266,-4.0971,-4.0323,-3.9604,-3.9302,-3.9495,-3.9468,-3.9951,-4.0841,-4.1069,-4.1089,-4.0882,-4.1069,-4.14,-4.1876,-4.2198,-4.1983,-4.13,-4.0297,-3.9138,-3.7968,-3.741,-3.6804,-3.6178,-3.6867,-3.7108,-3.6965,-3.7766,-3.9164,-4.1033,-4.1952,-4.3716,-4.5677,-3.452,-3.6013,0.0,0.0,0.0,0.0,0.0,-3.9262,0.0,-3.9583,0.0,-4.289,-4.1981,-4.3718,-4.496,-4.4898,0.0,-4.4546,-4.3263,-4.3884,-4.3594,-4.2,-4.2207,-4.1731,-4.0427,-4.0435,-4.001,0.0,-3.8886,-3.8829,-3.8573,-3.7517,-3.7265,-3.7747,-3.9413,0.0,0.0,-4.4455,-4.5458,-4.5207,-4.5319,-4.5025,-4.4626,-4.5833,-4.6346,-4.6698,-4.7781,-4.8328,-4.84,-4.84,-4.84,-4.84,-4.84,-4.84,-4.84,-4.84,-4.84,-4.84,-4.84,-4.84,-4.84,-4.84,-4.84,-4.8286,-4.7826,-4.7663,-4.7663,-4.7663,-4.6977,-4.6379,-4.6675,-4.5828,-4.5142,-4.521,-4.521,-4.521,-4.5074,-4.521,-4.521,-4.521,-4.4821,0.0,-4.3877,-4.2311,-4.106,-4.0344,-3.9604,-3.9281,-3.9413,-3.9447,-3.993,-4.0758,-4.1234,-4.1317,-4.0965,-4.1358,-4.1835,-4.2352,-4.2352,-4.2167,-4.1616,-4.0627,-3.9471,-3.8206,-3.7108,-3.6563,-3.6563,-3.6563,-3.7303,-3.8475,-3.9996,-4.1532,-4.3001,-4.3616,-4.4562,-4.5758,-3.4188,0.0,0.0,0.0,0.0,-3.9488,-3.9046,-4.0057,-4.1153,-4.1899,-4.2517,-4.3052,-4.3201,-4.4298,-4.4836,-4.4463,-4.5126,0.0,0.0,0.0,0.0,-4.3842,-4.3159,-4.2331,-4.1358,-4.0456,-3.9944,-3.9931,-3.8531,-3.815,-3.8573,-3.7517,-3.7025,-3.7242,0.0,0.0,-4.2003,-4.2521,0.0,-4.2562,-4.3353,-4.4003,-4.4626,-4.5252,-4.6109,-4.7073,-4.731,-4.7868,-4.84,-4.84,-4.84,-4.84,-4.84,-4.84,-4.84,-4.84,-4.84,-4.84,-4.84,-4.84,-4.84,-4.84,-4.84,-4.8377,-4.8286,-4.8263,-4.8263,-4.8263,-4.778,-4.7062,-4.6152,-4.462,-4.3675,-4.4297,-4.4366,-4.4159,-4.3584,-4.4021,-4.4366,-4.4366,-4.4298,-4.4166,-4.3834,-4.2605,-4.1393,-4.0279,-3.9604,-3.9133,-3.8937,-3.9261,-3.9785,-4.0282,-4.0758,-4.1131,-4.1441,-4.1524,-4.1979,-4.2807,-4.2807,-4.2377,-4.1693,-4.1481,-4.0705,-3.955,-3.9314,-3.9235,-3.9138,-3.9235,-3.958,-4.0076,-4.0731,-4.139,-4.2236,-4.3644,-4.4823,-4.5677,0.0,0.0,0.0,0.0,0.0,0.0,0.0,-4.1556,-4.1939,-4.1735,-4.2285,-4.2574,-4.2239,-4.3449,-4.4381,-4.4629,-4.4857,-4.5064,-4.5333,-4.4919,-4.4546,-4.4319,-4.3884,-4.3097,-4.2032,-4.0417,-3.9643,-3.9648,-3.7692,-3.7041,-3.762,-3.6959,-3.6782,-3.7071,0.0,-4.0485,0.0,-4.1971,-4.19,-4.2046,-4.2926,-4.3456,-4.3826,-4.474,-4.5435,-4.6002,-4.6448,-4.6817,-4.7259,-4.8086,-4.84,-4.84,-4.84,-4.84,-4.84,-4.84,-4.84,-4.84,-4.84,-4.84,-4.84,-4.84,-4.84,-4.84,-4.84,-4.84,-4.84,-4.84,-4.7626,-4.6532,-4.5057,-4.4162,-4.3675,-4.3606,-4.3952,-4.3952,-4.3167,-4.3397,-4.3606,-4.3606,-4.3606,-4.3414,-4.2772,-4.186,-4.0956,0.0,0.0,-3.9091,-3.8833,-3.922,-3.9744,-4.0199,-4.0882,-4.1234,-4.1214,-4.169,-4.2145,-4.258,-4.2807,-4.2858,-4.2657,-4.2022,-4.1404,-4.0783,-4.0178,-3.9864,-3.9924,-4.0549,-4.1113,-4.1619,-4.2704,-4.3379,-4.3917,-4.4926,-4.5576,-4.6063,0.0,-3.6237,0.0,0.0,-3.9851,-4.0751,-4.2,-4.269,-4.2683,-4.1586,-4.2129,-4.2393,-4.1586,-4.2828,-4.4008,-4.465,-4.4463,-4.4567,-4.5209,-4.4898,-4.4546,-4.4174,-4.4153,-4.3615,-4.2435,-4.0613,-3.9437,-3.9123,-3.7123,-3.6377,-3.6643,-3.6529,-3.6658,-3.6984,-3.8312,-3.9735,-4.1084,-4.1176,-4.1284,-4.1516,-4.2483,-4.2805,-4.2903,-4.4187,-4.472,-4.488,-4.5704,-4.6002,-4.6225,-4.7502,-4.7868,-4.7868,-4.7868,-4.7868,-4.7868,-4.7868,-4.7868,-4.7941,-4.8086,-4.8013,-4.7941,-4.8328,-4.8159,-4.7941,-4.8086,-4.8013,-4.7868,-4.7868,-4.6788,-4.5373,-4.4064,-4.3657,-4.3397,-4.3167,-4.3467,-4.3536,-4.2979,-4.2975,-4.2948,-4.2909,-4.2996,-4.2696,-4.1786,-4.1069,-4.0479,-3.9996,-3.9341,-3.8916,-3.8688,-3.9075,-3.9599,-4.0075,-4.0862,-4.1193,-4.1027,-4.1908,-4.2311,-4.2393,-4.2849,-4.3263,-4.3539,-4.258,-4.2099,-4.2022,-4.1113,-4.0724,-4.0821,-4.1931,-4.2599,-4.3116,-4.4547,-4.5478,-4.6016,-4.6368,-4.6554,-4.6698,0.0,0.0,0.0,0.0,0.0,-4.1641,-4.1134,-4.2467,-4.3491,-4.3366,-4.3069,-4.2965,-4.3304,-4.3884,-4.4112,-4.376,-4.4091,-4.4153,-4.3822,-4.376,-4.3718,-4.3677,-4.3677,-4.3428,-4.287,-4.1069,-3.975,-3.9099,-3.7814,-3.6802,-3.6185,-3.6655,-3.6905,-3.6834,-3.7932,-3.8033,-3.7675,-3.8914,-3.9302,-3.9212,-4.061,-4.1597,-4.2521,-4.37,-4.4422,-4.488,-4.5704,-4.6002,-4.6002,-4.6151,-4.6225,-4.6225,-4.6225,-4.6225,-4.6225,-4.6225,-4.6225,-4.6374,-4.7112,-4.6743,-4.6596,-4.8013,-4.7259,-4.6448,-4.7134,-4.6743,-4.6225,-4.6225,-4.4893,-4.373,-4.3878,-4.2387,-4.1643,-4.2888,-4.263,-4.2138,-4.2089,-4.2451,-4.2557,-4.2131,-4.2522,-4.2526,-4.1762,-4.109,-4.0298,-3.9339,-3.8702,-3.8258,-3.8253,-3.8667,-3.9055,-3.953,-4.0096,-4.0717,-4.1503,-4.2,-4.2456,-4.287,-4.3325,-4.3573,-4.3615,-4.3462,-4.3442,-4.3462,-4.3289,-4.3213,-4.3351,-4.4272,-4.4721,-4.4803,-4.5436,-4.614,-4.6906,-4.6947,-4.7217,-4.7506,0.0,0.0,-3.7994,-3.9638,-4.0705,-4.1599,-4.2405,-4.3139,-4.3615,-4.3615,-4.3449,-4.3408,-4.3594,-4.378,-4.3925,-4.4029,-4.3946,-4.3925,-4.4029,-4.376,-4.3615,-4.3615,-4.3615,-4.3387,-4.2932,-4.14,-4.0069,-3.8921,-3.7678,-3.6678,-3.583,-3.6184,-3.6489,-3.6685,-3.6948,-3.7259,-3.7551,-3.8579,-3.9036,-3.9323,-4.0737,-4.1503,-4.199,-4.3013,-4.3485,-4.3748,-4.4323,-4.4579,-4.4579,-4.4579,-4.5181,-4.6002,-4.6002,-4.6002,-4.6002,-4.6002,-4.6002,-4.6077,-4.6374,-4.6225,-4.6151,-4.6817,-4.6448,-4.6077,-4.6374,-4.6225,-4.5915,-4.5631,-4.422,-4.2933,-4.2598,-4.1981,-4.1573,-4.1785,-4.1926,-4.1877,-4.1381,-4.1527,-4.159,-4.1331,-4.1297,-4.1039,-4.0425,-3.9883,-3.9364,-3.9009,-3.847,-3.8191,-3.8191,-3.8874,-3.9282,-3.9468,-4.0241,-4.0924,-4.1565,-4.2094,-4.2476,-4.2932,-4.3387,-4.3615,-4.3615,-4.3615,-4.376,-4.4029,-4.4029,-4.4174,-4.4463,-4.4836,-4.5312,-4.583,-4.6016,-4.6637,-4.7424,-4.7424,-4.7527,-4.7651,-3.838,-3.8295,-3.8937,-4.1592,-4.1746,-4.1959,-4.3387,-4.3615,-4.3615,-4.3615,-4.3615,-4.3615,-4.3615,-4.3615,-4.3739,-4.407,-4.3801,-4.376,-4.407,-4.3801,-4.3615,-4.3615,-4.3615,-4.3449,-4.3118,-4.1917,-4.0675,-3.9454,-3.8327,-3.7253,-3.6104,-3.6081,-3.6214,-3.6535,-3.6652,-3.7149,-3.7994,-3.8724,-3.9261,-3.9847,-4.1069,-4.1565,-4.1648,-4.2435,-4.2807,-4.2973,-4.3284,-4.3491,-4.3615,-4.3615,-4.4352,-4.5256,-4.5256,-4.5256,-4.5256,-4.5256,-4.5256,-4.533,-4.5555,-4.548,-4.5405,-4.5853,-4.563,-4.533,-4.563,-4.5372,-4.4943,-4.4319,-4.3239,-4.2225,-4.1524,-4.1519,-4.1594,-4.131,-4.1523,-4.1594,-4.131,-4.1129,-4.1027,-4.0903,-4.0593,-4.022,-3.9785,-3.9137,-3.8786,-3.8786,-3.844,-3.8233,-3.8378,-3.8978,-3.9323,-3.9537,-4.0406,-4.1089,-4.1638,-4.2166,-4.26,-4.2932,-4.3387,-4.3615,-4.3615,-4.376,-4.407,-4.4505,-4.465,-4.4815,-4.5022,-4.5436,-4.5892,-4.6287,-4.6637,-4.7217,-4.7879,-4.7879,-4.7962,-4.8086,-3.7864,-3.8895,-4.0096,-4.199,-4.26,-4.3056,-4.3532,-4.3615,-4.3615,-4.3615,-4.3615,-4.3615,-4.3615,-4.3615,-4.3615,-4.3615,-4.3615,-4.3615,-4.3615,-4.3615,-4.3615,-4.3615,-4.3615,-4.3615,-4.3594,-4.2704,-4.1793,-4.0841,-4.014,-3.8781,-3.6999,-3.6669,-3.6415,-3.6361,-3.7254,-3.7864,-3.8233,-3.9144,-3.9736,-4.0303,-4.1214,-4.1565,-4.1607,-4.2156,-4.2538,-4.2911,-4.2932,-4.3221,-4.3615,-4.3615,-4.3615,-4.3615,-4.3615,-4.3615,-4.3615,-4.3615,-4.3615,-4.3843,-4.4579,-4.4201,-4.3995,-4.563,-4.4805,-4.3843,-4.4654,-4.3844,-4.2663,-4.1845,-4.1638,-4.1493,-4.0965,-4.0882,-4.1167,-4.1877,-4.1381,-4.1167,-4.1877,-4.1779,-4.14,-4.0924,-4.0862,-4.0696,-4.0261,-3.9323,0.0,-3.8786,-3.844,-3.8378,-3.8745,-3.8786,-3.8993,-3.9468,-4.0406,-4.1089,-4.1638,-4.2456,-4.2911,-4.2932,-4.3387,-4.3615,-4.3635,-4.4091,-4.4546,-4.5022,-4.5478,-4.5416,-4.5105,-4.6451,-4.674,-4.6349,-4.732,-4.7962,-4.8376,-4.8376,-4.8666,-4.9038,-3.9475,-4.0303,-4.1214,-4.2177,-4.2621,-4.3077,-4.3532,-4.3615,-4.3615,-4.3615,-4.3615,-4.3615,-4.3615,-4.3615,-4.3615,-4.3615,-4.3615,-4.3615,-4.3615,-4.3615,-4.3615,-4.3615,-4.3615,-4.3615,-4.3615,-4.2725,-4.1814,-4.0882,-4.0035,-3.8958,-3.7835,-3.7401,-3.7127,-3.7188,-3.8041,-3.8491,-3.8709,-3.962,-4.0261,-4.0696,-4.0986,-4.1276,-4.1607,-4.2156,-4.2538,-4.2973,-4.3284,-4.3491,-4.3615,-4.3615,-4.3615,-4.3615,-4.3615,-4.3615,-4.3615,-4.3615,-4.3615,-4.3691,-4.3919,-4.3843,-4.3691,-4.4201,-4.3995,-4.3691,-4.3898,-4.3239,-4.2393,-4.2104,-4.1545,-4.1048,-4.0903,-4.0882,-4.0954,-4.1239,-4.1025,-4.0954,-4.1239,-4.088,-4.0717,-4.0862,-4.0344,-4.0034,-4.022,-3.9612,-3.9261,-3.9261,-3.8827,-3.8621,-3.8765,-3.9075,-3.9468,-3.9922,-4.0882,-4.1565,-4.2115,-4.2621,-4.3077,-4.3387,-4.3532,-4.378,-4.4091,-4.4567,-4.5188,-4.5912,-4.6078,-4.6409,-4.6865,-4.7299,-4.7568,-4.7755,-4.8045,-4.8438,-4.8852,-4.8852,-4.8935,-4.9121,-4.0199,-4.1089,-4.199,-4.2281,-4.2766,-4.3284,-4.3573,-4.3615,-4.3615,-4.3615,-4.3615,-4.3615,-4.3615,-4.3615,-4.3615,-4.3615,-4.3615,-4.3615,-4.3615,-4.3615,-4.3615,-4.3615,-4.3615,-4.3615,-4.3615,-4.289,-4.2145,-4.14,-4.0137,-3.9164,-3.8419,-3.8129,-3.8005,-3.8046,-3.8957,-3.9302,-3.9344,-4.0158,-4.0634,-4.0882,-4.0882,-4.1151,-4.1607,-4.197,-4.2393,-4.2952,-4.3242,-4.347,-4.3615,-4.3615,-4.3615,-4.3615,-4.3615,-4.3615,-4.3615,-4.3615,-4.3615,-4.3615,-4.3615,-4.3615,-4.3615,-4.3615,-4.3615,-4.3573,-4.3387,-4.2911,-4.2414,-4.2062,-4.1545,-4.1089,-4.0903,-4.0882,-4.0882,-4.0882,-4.0882,-4.082,-4.0655,-4.0551,-4.051,-4.0613,-4.0282,-4.0158,-4.0448,-4.0054,-3.9736,-3.9736,-3.9302,-3.9117,-3.9282,-3.9406,-3.9827,-4.0448,-4.1358,-4.2042,-4.2497,-4.2952,-4.3325,-4.3615,-4.378,-4.4194,-4.4836,-4.5291,-4.5912,-4.6535,-4.6782,-4.7175,-4.7693,-4.7879,-4.8107,-4.8396,-4.8562,-4.881,-4.908,-4.9266,-4.9328,-4.9411,-4.0179,-4.1317,-4.2302,-4.2322,-4.2973,-4.3553,-4.3553,-4.3594,-4.3594,-4.3573,-4.3594,-4.3615,-4.3615,-4.3615,-4.3615,-4.3615,-4.3615,-4.3615,-4.3615,-4.3615,-4.3615,-4.3615,-4.3615,-4.3594,-4.3553,-4.3118,-4.2642,-4.2239,-4.0427,-3.9323,-3.8931,-3.8889,-3.8869,-3.891,-3.9798,-4.0261,-4.0261,-4.0696,-4.0882,-4.0882,-4.0924,-4.1193,-4.1565,-4.1628,-4.2166,-4.289,-4.2952,-4.3221,-4.3573,-4.3594,-4.3615,-4.3615,-4.3615,-4.3615,-4.3615,-4.3615,-4.3615,-4.3615,-4.3615,-4.3615,-4.3615,-4.3615,-4.3615,-4.3491,-4.3056,-4.2952,-4.2683,-4.1835,-4.1607,-4.1441,-4.1007,-4.0903,-4.0882,-4.0882,-4.0882,-4.0717,-4.0282,-4.0572,-4.0675,-4.0282,-4.0593,-4.0841,-4.0882,-4.051,-4.0261,-4.022,-3.9827,-3.9716,-4.0199,-3.9847,-4.0034,-4.0903,-4.1814,-4.2497,-4.2911,-4.3387,-4.3635,-4.3656,-4.4174,-4.4857,-4.5747,-4.6182,-4.6576,-4.7154,-4.7568,-4.7755,-4.7817,-4.8252,-4.8417,-4.8459,-4.8893,-4.9059,-4.9121,-4.9597,-4.9849,-4.9887,-4.0696,-4.1276,-4.1908,-4.226,-4.2704,-4.3077,-4.3077,-4.3387,-4.3491,-4.3118,-4.3387,-4.3615,-4.3615,-4.3615,-4.3615,-4.3615,-4.3615,-4.3615,-4.3615,-4.3615,-4.3615,-4.3615,-4.3615,-4.3449,-4.3097,-4.2642,-4.2021,-4.1193,-4.0448,-4.0179,-4.0386,-4.0054,-3.9909,-3.986,-4.0489,-4.0551,-4.0261,-4.0696,-4.0882,-4.0903,-4.1255,-4.1462,-4.1648,-4.2331,-4.2518,-4.2497,-4.3201,-4.3284,-4.3139,-4.3491,-4.3615,-4.3615,-4.3615,-4.3615,-4.3615,-4.3615,-4.3615,-4.3615,-4.3615,-4.3615,-4.3615,-4.3615,-4.3615,-4.3573,-4.347,-4.318,-4.2849,-4.2642,-4.2042,-4.1545,-4.1421,-4.111,-4.0882,-4.0882,-4.0882,-4.0717,-4.0261,-4.0303,-4.0344,-4.022,-4.0303,-4.051,-4.0841,-4.0779,-4.0593,-4.0261,-4.0137,-4.0046,-4.022,-4.0448,-4.082,-4.1379,-4.229,-4.2807,-4.2911,-4.3387,-4.378,-4.4153,-4.496,-4.5643,-4.6202,-4.6658,-4.7299,-4.8065,-4.8169,-4.8417,-4.8748,-4.8852,-4.8893,-4.8914,-4.9017,-4.9059,-4.9121,-4.9597,-4.9849,-4.9887,-4.0841,-4.1255,-4.1783,-4.226,-4.2456,-4.2683,-4.289,-4.3139,-4.3201,-4.2952,-4.3325,-4.3615,-4.3615,-4.3615,-4.3615,-4.3615,-4.3615,-4.3615,-4.3615,-4.3615,-4.3615,-4.3615,-4.3408,-4.318,-4.2932,-4.2497,-4.199,-4.1193,-4.0965,-4.0841,-4.0882,-4.0841,-4.0737,-4.0551,-4.0986,-4.0944,-4.0551,-4.0779,-4.0986,-4.1193,-4.1234,-4.1503,-4.199,-4.2186,-4.229,-4.2426,-4.3035,-4.3139,-4.2994,-4.3449,-4.3615,-4.3615,-4.3615,-4.3615,-4.3615,-4.3615,-4.3615,-4.3615,-4.3615,-4.3615,-4.3615,-4.3615,-4.3615,-4.3615,-4.3615,-4.3408,-4.318,-4.2973,-4.2373,-4.1814,-4.1607,-4.1193,-4.082,-4.0613,-4.0572,-4.0344,-3.9661,-3.9951,-4.0137,-3.9909,-4.0261,-4.0613,-4.0862,-4.0882,-4.0779,-4.0551,-4.053,-4.053,-4.053,-4.1151,-4.1628,-4.1876,-4.2559,-4.3014,-4.3242,-4.3698,-4.4153,-4.4629,-4.5333,-4.6016,-4.6678,-4.7134,-4.7713,-4.8396,-4.8603,-4.8831,-4.9059,-4.9059,-4.9059,-4.9059,-4.9059,-4.9204,-4.9431,-4.9887,-5.0197,-5.0466,-4.0717,-4.1193,-4.1783,-4.226,-4.2322,-4.2393,-4.2766,-4.287,-4.289,-4.2828,-4.3221,-4.3532,-4.3594,-4.3553,-4.3532,-4.3594,-4.3615,-4.3615,-4.3615,-4.3553,-4.3511,-4.3511,-4.3118,-4.289,-4.2828,-4.2373,-4.2032,-4.1565,-4.1503,-4.1296,-4.0986,-4.1379,-4.1358,-4.0986,-4.14,-4.1317,-4.0882,-4.0882,-4.1151,-4.1545,-4.1131,-4.1462,-4.2198,-4.1866,-4.1876,-4.2228,-4.2745,-4.2911,-4.2994,-4.3449,-4.3615,-4.3615,-4.3615,-4.3615,-4.3615,-4.3615,-4.3615,-4.3615,-4.3615,-4.3615,-4.3615,-4.3615,-4.3615,-4.3615,-4.3615,-4.3615,-4.3491,-4.3014,-4.2559,-4.2198,-4.1648,-4.1193,-4.0758,-4.0386,-4.0282,-3.9951,-3.9096,-3.9723,-4.0075,-3.9612,-4.0365,-4.0882,-4.0882,-4.0882,-4.0882,-4.0882,-4.0882,-4.0903,-4.0986,-4.1866,-4.2364,-4.2352,-4.2787,-4.3242,-4.3718,-4.4174,-4.465,-4.5105,-4.5643,-4.6326,-4.7154,-4.7589,-4.8045,-4.85,-4.8893,-4.9059,-4.9059,-4.9059,-4.9059,-4.9059,-4.9059,-4.9349,-4.9804,-5.0259,-5.0715,-5.117,-4.0323,-4.1007,-4.1783,-4.226,-4.2322,-4.2364,-4.2352,-4.2683,-4.2787,-4.2414,-4.2745,-4.318,-4.3573,-4.3263,-4.318,-4.3573,-4.3615,-4.3615,-4.3615,-4.3242,-4.3035,-4.3035,-4.2952,-4.2745,-4.2373,-4.1917,-4.1628,-4.1565,-4.1172,-4.1151,-4.1462,-4.1545,-4.1524,-4.1462,-4.1545,-4.1317,-4.0882,-4.0882,-4.1151,-4.1565,-4.1483,-4.1545,-4.171,-4.2115,-4.2032,-4.1793,-4.2621,-4.2911,-4.2994,-4.3449,-4.3615,-4.3615,-4.3615,-4.3615,-4.3615,-4.3615,-4.3615,-4.3615,-4.3615,-4.3615,-4.3615,-4.3615,-4.3615,-4.3615,-4.3615,-4.3615,-4.3491,-4.3014,-4.2559,-4.2198,-4.1648,-4.1193,-4.0862,-4.0779,-4.0468,-4.0179,-4.0034,-4.0116,-4.0179,-4.0137,-4.0572,-4.0882,-4.0882,-4.0882,-4.0882,-4.0882,-4.0882,-4.1048,-4.1441,-4.2053,-4.2435,-4.2807,-4.3263,-4.3718,-4.4194,-4.465,-4.5126,-4.5581,-4.643,-4.7092,-4.761,-4.8065,-4.8521,-4.8955,-4.9038,-4.9059,-4.9059,-4.9059,-4.9059,-4.9059,-4.9059,-4.9349,-4.9804,-5.0259,-5.0715,-5.117,-4.022,-4.0758,-4.1338,-4.1814,-4.1669,-4.1607,-4.1855,-4.2269,-4.2497,-4.2364,-4.2642,-4.3097,-4.3553,-4.3201,-4.3118,-4.3573,-4.3615,-4.3615,-4.3615,-4.3408,-4.3284,-4.3284,-4.3056,-4.2704,-4.2343,-4.2115,-4.1814,-4.1565,-4.1835,-4.171,-4.1193,-4.171,-4.1814,-4.1586,-4.1835,-4.1887,-4.1607,-4.1607,-4.1825,-4.1917,-4.1669,-4.1565,-4.1638,-4.1524,-4.1545,-4.1648,-4.2331,-4.2725,-4.2994,-4.3449,-4.3615,-4.3615,-4.3615,-4.3615,-4.3615,-4.3615,-4.3615,-4.3615,-4.3615,-4.3615,-4.3615,-4.3615,-4.3615,-4.3615,-4.3615,-4.3615,-4.3553,-4.3325,-4.2745,-4.226,-4.2053,-4.1358,-4.08,-4.0572,-4.0158,-3.9798,-3.9798,-3.9847,-3.993,-4.0199,-4.0613,-4.0882,-4.0882,-4.111,-4.1255,-4.1255,-4.1483,-4.1783,-4.199,-4.2373,-4.2704,-4.2911,-4.3366,-4.3842,-4.4298,-4.4753,-4.5229,-4.5705,-4.6596,-4.7258,-4.7693,-4.8169,-4.8624,-4.9059,-4.9059,-4.9059,-4.9059,-4.9059,-4.9059,-4.9059,-4.9059,-4.9494,-5.0135,-5.0342,-5.088,-5.1522,-3.984,-4.0344,-4.0882,-4.1338,-4.111,-4.1027,-4.1503,-4.2032,-4.2302,-4.2177,-4.2497,-4.2911,-4.3263,-4.2973,-4.2952,-4.3408,-4.3553,-4.3615,-4.3615,-4.3615,-4.3553,-4.3449,-4.3014,-4.2704,-4.258,-4.2373,-4.2156,-4.1731,-4.2414,-4.2228,-4.1214,-4.2042,-4.2228,-4.1897,-4.2249,-4.2352,-4.2322,-4.2219,-4.2239,-4.2281,-4.1628,-4.1462,-4.1524,-4.1048,-4.1234,-4.1772,-4.2198,-4.2621,-4.3139,-4.3491,-4.3615,-4.3615,-4.3615,-4.3615,-4.3615,-4.3615,-4.3615,-4.3615,-4.3615,-4.3615,-4.3615,-4.3615,-4.3615,-4.3615,-4.3615,-4.3615,-4.3573,-4.347,-4.289,-4.2352,-4.2145,-4.1524,-4.0882,-4.0448,-3.9992,-3.9744,-3.9847,-3.9765,-3.9868,-4.0323,-4.0675,-4.0882,-4.0882,-4.1296,-4.1565,-4.1565,-4.2073,-4.2364,-4.2414,-4.2725,-4.2973,-4.3077,-4.3428,-4.3884,-4.4463,-4.4815,-4.5333,-4.6016,-4.6803,-4.7424,-4.7858,-4.8334,-4.8728,-4.9059,-4.9059,-4.9059,-4.9059,-4.9059,-4.9059,-4.908,-4.9183,-4.9721,-5.0425,-5.0529,-5.1108,-5.1791,-3.8889,-3.9592,-4.0406,-4.0841,-4.0903,-4.1027,-4.1503,-4.2032,-4.2177,-4.1669,-4.2094,-4.2384,-4.2352,-4.2331,-4.2497,-4.2932,-4.3366,-4.3615,-4.3615,-4.3615,-4.3428,-4.2994,-4.2538,-4.2683,-4.3491,-4.2683,-4.2322,-4.2281,-4.2269,-4.2249,-4.2239,-4.2642,-4.2849,-4.2828,-4.2849,-4.2642,-4.2302,-4.1866,-4.1876,-4.226,-4.1276,-4.1193,-4.1524,-4.1048,-4.1421,-4.2281,-4.2322,-4.2828,-4.3573,-4.3594,-4.3615,-4.3615,-4.3615,-4.3615,-4.3615,-4.3615,-4.3615,-4.3615,-4.3615,-4.3615,-4.3615,-4.3615,-4.3615,-4.3615,-4.3615,-4.3615,-4.3491,-4.3056,-4.2911,-4.2621,-4.1772,-4.1638,-4.1358,-4.0903,-4.0468,-4.0323,-4.0717,-4.0427,-4.0344,-4.0779,-4.0862,-4.0882,-4.0882,-4.1296,-4.1565,-4.1565,-4.2073,-4.2435,-4.2849,-4.2911,-4.3118,-4.3553,-4.3594,-4.4029,-4.494,-4.4981,-4.5643,-4.6947,-4.7424,-4.7879,-4.8334,-4.881,-4.9038,-4.9059,-4.9059,-4.9059,-4.9059,-4.9059,-4.9059,-4.91,-4.9535,-4.999,-5.0466,-5.0901,-5.1377,-5.1791,-3.8502,-3.9185,-3.9765,-3.964,-4.0096,-4.053,-4.0717,-4.1358,-4.1772,-4.1586,-4.1783,-4.2011,-4.2302,-4.2322,-4.2435,-4.289,-4.3346,-4.3615,-4.3615,-4.3615,-4.3532,-4.3346,-4.2911,-4.2828,-4.318,-4.2849,-4.2393,-4.1908,-4.2683,-4.2663,-4.1908,-4.258,-4.2911,-4.2911,-4.2911,-4.2994,-4.3077,-4.26,-4.2352,-4.2281,-4.1565,-4.1234,-4.1131,-4.0944,-4.1462,-4.2322,-4.2322,-4.2849,-4.3615,-4.3615,-4.3615,-4.3615,-4.3615,-4.3615,-4.3615,-4.3615,-4.3615,-4.3615,-4.3615,-4.3615,-4.3615,-4.3615,-4.3615,-4.3615,-4.3615,-4.3615,-4.3553,-4.3387,-4.3118,-4.2807,-4.2476,-4.1938,-4.1503,-4.1338,-4.0696,-4.0386,-4.082,-4.051,-4.0386,-4.082,-4.0882,-4.0882,-4.0882,-4.1545,-4.2073,-4.2073,-4.2683,-4.318,-4.3346,-4.3346,-4.3428,-4.3594,-4.3615,-4.4049,-4.4981,-4.5002,-4.554,-4.6616,-4.7341,-4.7775,-4.7962,-4.8728,-4.9059,-4.9059,-4.9059,-4.9059,-4.9059,-4.9059,-4.9059,-4.908,-4.9266,-4.9618,-5.0073,-5.0508,-5.0963,-5.1419,-3.8026,-3.8585,-3.9019,-3.8688,-3.9392,-4.0054,-4.0199,-4.0862,-4.1338,-4.1338,-4.1483,-4.17,-4.1814,-4.2156,-4.2373,-4.2683,-4.3263,-4.3615,-4.3615,-4.3615,-4.3615,-4.3615,-4.3159,-4.2994,-4.3139,-4.2994,-4.2621,-4.2,-4.3077,-4.3056,-4.2,-4.2766,-4.3139,-4.3139,-4.3139,-4.3325,-4.3573,-4.3118,-4.2663,-4.2302,-4.1752,-4.1379,-4.1069,-4.0924,-4.1545,-4.2456,-4.2384,-4.2849,-4.3615,-4.3615,-4.3615,-4.3615,-4.3615,-4.3615,-4.3615,-4.3615,-4.3615,-4.3615,-4.3615,-4.3615,-4.3615,-4.3615,-4.3615,-4.3615,-4.3615,-4.3615,-4.3615,-4.3615,-4.3366,-4.3097,-4.2952,-4.229,-4.1731,-4.1586,-4.0924,-4.053,-4.0841,-4.0737,-4.0696,-4.0862,-4.1007,-4.1027,-4.0882,-4.1783,-4.2322,-4.2322,-4.3097,-4.3615,-4.3615,-4.3615,-4.3615,-4.3615,-4.376,-4.4194,-4.4981,-4.5002,-4.5519,-4.6493,-4.732,-4.7755,-4.792,-4.8707,-4.9059,-4.9059,-4.9059,-4.9059,-4.9059,-4.9059,-4.9059,-4.908,-4.9224,-4.9559,-4.9825,-5.0425,-5.0839,-5.117,-3.7488,-3.786,-3.8191,-3.8171,-3.8937,-3.9612,-4.0158,-4.0593,-4.0862,-4.0882,-4.1276,-4.1379,-4.0924,-4.171,-4.2322,-4.2322,-4.3097,-4.3615,-4.3615,-4.3615,-4.3615,-4.3615,-4.318,-4.3139,-4.3594,-4.3159,-4.2932,-4.2911,-4.3387,-4.3366,-4.2932,-4.3387,-4.3615,-4.3615,-4.3615,-4.3615,-4.3573,-4.3118,-4.2663,-4.2302,-4.1752,-4.1638,-4.1524,-4.1048,-4.1731,-4.2849,-4.2414,-4.2849,-4.3615,-4.3615,-4.3615,-4.3615,-4.3615,-4.3615,-4.3615,-4.3615,-4.3615,-4.3615,-4.3615,-4.3615,-4.3615,-4.3615,-4.3615,-4.3615,-4.3615,-4.3615,-4.3615,-4.3615,-4.3615,-4.347,-4.3014,-4.2559,-4.2177,-4.1648,-4.1193,-4.0882,-4.0882,-4.1276,-4.14,-4.0944,-4.1296,-4.14,-4.0924,-4.1731,-4.2343,-4.2343,-4.3097,-4.3615,-4.3615,-4.3615,-4.3615,-4.3615,-4.407,-4.4526,-4.5002,-4.5002,-4.5685,-4.703,-4.7486,-4.792,-4.8396,-4.8852,-4.9059,-4.9059,-4.9059,-4.9059,-4.9059,-4.9059,-4.9059,-4.9121,-4.9576,-4.9742,-4.9866,-5.0756,-5.1108,-5.117,-3.755,-3.786,-3.8088,-3.7757,-3.846,-3.9137,-3.9612,-4.0137,-4.053,-4.0841,-4.0986,-4.1027,-4.0882,-4.171,-4.2322,-4.2322,-4.3097,-4.3615,-4.3615,-4.3615,-4.3615,-4.3615,-4.3491,-4.347,-4.3615,-4.347,-4.3242,-4.2911,-4.3387,-4.3366,-4.2932,-4.3387,-4.3615,-4.3615,-4.3615,-4.3615,-4.3553,-4.2787,-4.2373,-4.226,-4.14,-4.1276,-4.1545,-4.1421,-4.1814,-4.2476,-4.2663,-4.289,-4.318,-4.3511,-4.3615,-4.3615,-4.3615,-4.3615,-4.3615,-4.3615,-4.3615,-4.3615,-4.3615,-4.3615,-4.3615,-4.3615,-4.3615,-4.3615,-4.3615,-4.3615,-4.3615,-4.3615,-4.3615,-4.3573,-4.3428,-4.3035,-4.258,-4.2124,-4.1938,-4.1804,-4.14,-4.1845,-4.2073,-4.1928,-4.2053,-4.2073,-4.1928,-4.2373,-4.2725,-4.2725,-4.3284,-4.3615,-4.3615,-4.3615,-4.376,-4.4091,-4.4236,-4.467,-4.5478,-4.5478,-4.583,-4.6473,-4.732,-4.7755,-4.792,-4.8707,-4.9059,-4.9059,-4.9059,-4.9059,-4.9059,-4.9059,-4.9059,-4.908,-4.9224,-4.9266,-4.9349,-4.9949,-4.9726,-4.9161,-3.7239,-3.7591,-3.7819,-3.755,-3.8109,-3.8792,-3.9364,-3.9716,-4.0179,-4.08,-4.0882,-4.0882,-4.0882,-4.171,-4.2322,-4.2322,-4.3097,-4.3532,-4.3346,-4.3511,-4.3615,-4.3615,-4.3615,-4.3615,-4.3615,-4.3615,-4.347,-4.3201,-4.347,-4.347,-4.3201,-4.3491,-4.3511,-4.3346,-4.3532,-4.3408,-4.3056,-4.2683,-4.2311,-4.1938,-4.1379,-4.1317,-4.1565,-4.1565,-4.1959,-4.2559,-4.2828,-4.3035,-4.3242,-4.3511,-4.3615,-4.3615,-4.3615,-4.3615,-4.3615,-4.3615,-4.3491,-4.3325,-4.3325,-4.3325,-4.3325,-4.3325,-4.347,-4.3615,-4.3615,-4.3615,-4.3615,-4.3615,-4.3615,-4.3615,-4.3615,-4.3242,-4.2828,-4.2559,-4.2373,-4.2239,-4.1949,-4.2228,-4.2456,-4.2343,-4.2414,-4.2373,-4.2094,-4.2559,-4.2994,-4.318,-4.3449,-4.3615,-4.3615,-4.3615,-4.3739,-4.4029,-4.4381,-4.4836,-4.5416,-4.5768,-4.6078,-4.6266,-4.7072,-4.7506,-4.7713,-4.8459,-4.8893,-4.9059,-4.9059,-4.9059,-4.9059,-4.9059,-4.9059,-4.9059,-4.9059,-4.8802,-4.8326,-4.8775,-4.8133,-4.7184,-3.6722,-3.7177,-3.7508,-3.755,-3.7902,-3.8481,-3.9282,-3.9406,-3.9806,-4.0696,-4.082,-4.082,-4.0862,-4.1669,-4.226,-4.226,-4.3014,-4.3387,-4.3014,-4.3387,-4.3615,-4.3615,-4.3615,-4.3615,-4.3615,-4.3615,-4.3615,-4.3615,-4.3615,-4.3615,-4.3615,-4.3615,-4.3387,-4.2994,-4.3428,-4.3159,-4.2467,-4.2725,-4.2393,-4.1628,-4.1545,-4.1524,-4.1565,-4.1565,-4.2104,-4.287,-4.2911,-4.318,-4.3553,-4.3594,-4.3615,-4.3615,-4.3615,-4.3573,-4.3553,-4.3553,-4.3242,-4.2911,-4.2911,-4.2952,-4.2973,-4.2973,-4.3304,-4.3615,-4.3615,-4.3615,-4.3615,-4.3615,-4.3615,-4.3615,-4.3615,-4.3263,-4.2973,-4.2932,-4.2621,-4.2426,-4.2331,-4.2704,-4.2807,-4.2373,-4.2683,-4.26,-4.1772,-4.2476,-4.3159,-4.3573,-4.3615,-4.3615,-4.3615,-4.3615,-4.3635,-4.3677,-4.4484,-4.496,-4.5064,-4.5871,-4.6225,-4.6266,-4.6823,-4.7258,-4.7693,-4.8169,-4.8624,-4.9059,-4.9059,-4.9059,-4.9059,-4.9059,-4.9059,-4.8887,-4.8887,-4.8007,-4.6832,-4.7208,-4.6501,-4.5404,-3.6722,-3.7177,-3.7612,-3.7964,-3.8109,-3.8378,-3.8848,-3.8931,-3.9309,-4.022,-4.0344,-4.051,-4.0841,-4.1379,-4.171,-4.171,-4.2538,-4.318,-4.3449,-4.3553,-4.3615,-4.3615,-4.3615,-4.3615,-4.3615,-4.3615,-4.3615,-4.3615,-4.3615,-4.3615,-4.3615,-4.3615,-4.3553,-4.347,-4.3573,-4.3511,-4.3284,-4.2663,-4.229,-4.2115,-4.1317,-4.1234,-4.1565,-4.1565,-4.1917,-4.2435,-4.2787,-4.2994,-4.3118,-4.3491,-4.3615,-4.3615,-4.3615,-4.3366,-4.3077,-4.3077,-4.2994,-4.2911,-4.2911,-4.318,-4.347,-4.347,-4.3532,-4.3615,-4.3615,-4.3615,-4.3615,-4.3615,-4.3615,-4.3615,-4.3615,-4.3532,-4.3346,-4.2973,-4.3139,-4.3201,-4.2828,-4.318,-4.3284,-4.2828,-4.287,-4.2849,-4.2642,-4.3139,-4.3511,-4.3594,-4.3615,-4.3615,-4.3615,-4.3615,-4.378,-4.4132,-4.4339,-4.4795,-4.5519,-4.5726,-4.5995,-4.6266,-4.6823,-4.7258,-4.7693,-4.8169,-4.8624,-4.9059,-4.9059,-4.9059,-4.9059,-4.9059,-4.8458,-4.7488,-4.7488,-4.6599,-4.5285,-4.5381,-4.4722,-4.3688,-3.6059,-3.6867,-3.757,-3.7819,-3.8046,-3.8336,-3.8724,-3.8786,-3.9117,-4.0096,-4.022,-4.0406,-4.082,-4.1296,-4.1648,-4.1876,-4.2518,-4.3014,-4.3263,-4.3491,-4.3615,-4.3615,-4.3615,-4.3615,-4.3615,-4.3615,-4.3615,-4.3615,-4.3387,-4.3284,-4.3284,-4.3077,-4.2973,-4.2973,-4.318,-4.3035,-4.2621,-4.2373,-4.2073,-4.1545,-4.1069,-4.1027,-4.1255,-4.1483,-4.1855,-4.2311,-4.2766,-4.3056,-4.3284,-4.3532,-4.3615,-4.3615,-4.3615,-4.3449,-4.3242,-4.3242,-4.3097,-4.2911,-4.2911,-4.3097,-4.3284,-4.3284,-4.3449,-4.3615,-4.3615,-4.3615,-4.3615,-4.3615,-4.3615,-4.3615,-4.3615,-4.3615,-4.3532,-4.3284,-4.3449,-4.3532,-4.3284,-4.3263,-4.3263,-4.3263,-4.3056,-4.3014,-4.3221,-4.3263,-4.3366,-4.3594,-4.3615,-4.3615,-4.3615,-4.3615,-4.3718,-4.3967,-4.4401,-4.4857,-4.5354,-4.5788,-4.6119,-4.6266,-4.6823,-4.7258,-4.7693,-4.8169,-4.8624,-4.9059,-4.9059,-4.9059,-4.9059,-4.8372,-4.7661,-4.6967,-4.625,-4.5109,-4.3782,-4.3782,-4.3144,-4.2211,-3.5107,-3.6308,-3.7281,-3.7363,-3.7819,-3.8316,-3.8688,-3.8662,-3.8972,-3.9889,-4.0054,-4.0282,-4.0717,-4.1172,-4.1628,-4.2177,-4.2559,-4.2807,-4.2807,-4.3304,-4.3573,-4.3491,-4.3573,-4.3615,-4.3615,-4.3615,-4.3615,-4.3615,-4.3139,-4.2911,-4.2911,-4.2538,-4.2373,-4.2393,-4.2849,-4.258,-4.1814,-4.2124,-4.1772,-4.0986,-4.0986,-4.0986,-4.1027,-4.1421,-4.1897,-4.2414,-4.2704,-4.3159,-4.3615,-4.3615,-4.3615,-4.3615,-4.3615,-4.3553,-4.3491,-4.3491,-4.3221,-4.2911,-4.2911,-4.2973,-4.3035,-4.3035,-4.3325,-4.3615,-4.3615,-4.3615,-4.3615,-4.3615,-4.3615,-4.3615,-4.3615,-4.3615,-4.3615,-4.3615,-4.3532,-4.3532,-4.3594,-4.3221,-4.3056,-4.3449,-4.3159,-4.3077,-4.3449,-4.3221,-4.3201,-4.3573,-4.3615,-4.3615,-4.3615,-4.3615,-4.3615,-4.3615,-4.4443,-4.4919,-4.5002,-4.583,-4.6184,-4.6266,-4.6823,-4.7258,-4.7693,-4.8086,-4.8541,-4.9059,-4.9059,-4.9059,-4.8973,-4.7574,-4.686,-4.6512,-4.5021,-4.3604,-4.2371,-4.2371,-4.1772,-4.108,-3.4155,-3.5355,-3.6432,-3.6825,-3.7612,-3.8212,-3.8253,-3.8274,-3.846,-3.891,-3.9323,-3.9736,-4.0261,-4.0696,-4.1151,-4.1607,-4.2156,-4.2352,-4.2352,-4.3139,-4.3428,-4.3035,-4.3387,-4.3615,-4.3615,-4.3615,-4.3615,-4.3615,-4.3139,-4.2911,-4.2911,-4.2849,-4.2828,-4.2849,-4.3304,-4.3221,-4.2725,-4.2393,-4.1959,-4.1483,-4.1483,-4.1483,-4.1483,-4.1617,-4.2083,-4.2787,-4.2456,-4.289,-4.3615,-4.3615,-4.3615,-4.3615,-4.3615,-4.3325,-4.3014,-4.3014,-4.2973,-4.2911,-4.2911,-4.3221,-4.3511,-4.3511,-4.3573,-4.3615,-4.3615,-4.3615,-4.3615,-4.3615,-4.3615,-4.3615,-4.3615,-4.3615,-4.3615,-4.3615,-4.3263,-4.3159,-4.3553,-4.3221,-4.2952,-4.3014,-4.2952,-4.2952,-4.3014,-4.3325,-4.3532,-4.3615,-4.3615,-4.3615,-4.3615,-4.3615,-4.3615,-4.3615,-4.4112,-4.4588,-4.4981,-4.5519,-4.5975,-4.6266,-4.6823,-4.7258,-4.7693,-4.7755,-4.8252,-4.9059,-4.9059,-4.9059,-4.8973,-4.7574,-4.625,-4.4933,-4.3515,-4.2102,-4.0856,-4.0856,-4.0799,-4.0703,-3.4049,-3.4962,-3.5956,-3.668,-3.7363,-3.7881,-3.815,-3.8191,-3.8336,-3.8724,-3.8951,-3.9261,-3.9736,-4.0241,-4.08,-4.1503,-4.1752,-4.2053,-4.2322,-4.2642,-4.2766,-4.2559,-4.2745,-4.2849,-4.2849,-4.3097,-4.3097,-4.2849,-4.289,-4.2911,-4.2911,-4.2663,-4.2683,-4.2911,-4.287,-4.2745,-4.2518,-4.2062,-4.1752,-4.1565,-4.1565,-4.1731,-4.2032,-4.2032,-4.2352,-4.2932,-4.2994,-4.3263,-4.3615,-4.3615,-4.3615,-4.3615,-4.3615,-4.347,-4.3304,-4.3304,-4.3304,-4.3304,-4.3304,-4.3449,-4.3615,-4.3615,-4.3615,-4.3615,-4.3615,-4.3615,-4.3615,-4.3615,-4.3615,-4.3615,-4.3615,-4.3615,-4.3615,-4.3615,-4.3449,-4.3387,-4.3573,-4.3221,-4.2911,-4.2911,-4.3139,-4.3304,-4.3304,-4.3491,-4.3615,-4.3615,-4.3615,-4.3615,-4.3615,-4.3615,-4.3615,-4.3615,-4.4319,-4.4795,-4.5002,-4.5705,-4.6161,-4.6266,-4.6473,-4.701,-4.7693,-4.7962,-4.8438,-4.9059,-4.9059,-4.863,-4.7834,-4.6337,-4.4933,-4.3515,-4.2102,-4.1127,-4.0583,-4.0583,-4.0583,-4.0635]}]]